| time (UTC) | temp F | wind direction | speed MPH | gust MPH | rain 1hr in | rain 24hr in | rain mn in | humidity % | barometer mb |
| 20260831190153 | 74 | 43 | 0.0 | 2.0 | 0.01 | 0.05 | 0.05 | 91 | 1016.3 |
| 20260831190101 | 74 | 34 | 0.0 | 2.0 | 0.01 | 0.05 | 0.05 | 91 | 1016.6 |
| 20260831190057 | 74 | 37 | 0.0 | 2.0 | 0.01 | 0.05 | 0.05 | 91 | 1016.6 |
| 20260831190036 | 74 | 13 | 0.0 | 2.0 | 0.01 | 0.05 | 0.05 | 90 | 1016.3 |
| 20260831190027 | 74 | 26 | 1.0 | 2.0 | 0.01 | 0.05 | 0.05 | 91 | 1016.6 |
| 20260831185718 | 74 | 22 | 0.0 | 2.0 | 0.01 | 0.05 | 0.05 | 90 | 1016.6 |
| 20260831185612 | 74 | 56 | 0.0 | 2.0 | 0.01 | 0.05 | 0.05 | 90 | 1016.6 |
| 20260831185506 | 74 | 139 | 1.0 | 2.0 | 0.01 | 0.05 | 0.05 | 90 | 1016.6 |
| 20260831185400 | 74 | 132 | 1.0 | 2.0 | 0.01 | 0.05 | 0.05 | 89 | 1016.6 |
| 20260831185301 | 74 | 99 | 0.0 | 2.0 | 0.01 | 0.05 | 0.05 | 91 | 1016.6 |
| 20260831185254 | 74 | 90 | 0.0 | 2.0 | 0.01 | 0.05 | 0.05 | 91 | 1016.6 |
| 20260831185149 | 74 | 131 | 0.0 | 2.0 | 0.01 | 0.05 | 0.05 | 91 | 1016.6 |
| 20260831185043 | 74 | 132 | 0.0 | 2.0 | 0.01 | 0.05 | 0.05 | 91 | 1016.6 |
| 20260831184938 | 74 | 131 | 1.0 | 2.0 | 0.01 | 0.05 | 0.05 | 90 | 1016.6 |
| 20260831184832 | 74 | 111 | 0.0 | 2.0 | 0.00 | 0.04 | 0.04 | 91 | 1016.3 |
| 20260831184754 | 74 | 111 | 0.0 | 2.0 | 0.00 | 0.04 | 0.04 | 91 | 1016.3 |
| 20260831184727 | 74 | 110 | 0.0 | 2.0 | 0.00 | 0.04 | 0.04 | 91 | 1016.3 |
| 20260831184620 | 74 | 110 | 0.0 | 2.0 | 0.00 | 0.04 | 0.04 | 90 | 1016.6 |
| 20260831184515 | 74 | 51 | 0.0 | 2.0 | 0.00 | 0.04 | 0.04 | 91 | 1016.6 |
| 20260831184410 | 74 | 50 | 0.0 | 2.0 | 0.00 | 0.04 | 0.04 | 91 | 1016.9 |
| 20260831184303 | 74 | 9 | 1.0 | 2.0 | 0.00 | 0.04 | 0.04 | 91 | 1016.9 |
| 20260831184248 | 74 | 17 | 0.0 | 2.0 | 0.00 | 0.04 | 0.04 | 91 | 1016.9 |
| 20260831184158 | 74 | 39 | 1.0 | 2.0 | 0.00 | 0.04 | 0.04 | 91 | 1016.9 |
| 20260831184052 | 74 | 18 | 0.0 | 2.0 | 0.00 | 0.04 | 0.04 | 91 | 1016.9 |
| 20260831183946 | 74 | 102 | 1.0 | 2.0 | 0.00 | 0.04 | 0.04 | 91 | 1017.3 |
| 20260831183841 | 74 | 74 | 0.0 | 2.0 | 0.00 | 0.04 | 0.04 | 90 | 1017.3 |
| 20260831183742 | 74 | 54 | 0.0 | 2.0 | 0.00 | 0.04 | 0.04 | 90 | 1017.3 |
| 20260831183735 | 74 | 54 | 0.0 | 2.0 | 0.00 | 0.04 | 0.04 | 90 | 1016.9 |
| 20260831183629 | 74 | 58 | 0.0 | 2.0 | 0.00 | 0.04 | 0.04 | 90 | 1017.3 |
| 20260831183524 | 74 | 51 | 0.0 | 1.0 | 0.00 | 0.04 | 0.04 | 90 | 1016.9 |
| 20260831183417 | 74 | 61 | 1.0 | 1.0 | 0.00 | 0.04 | 0.04 | 90 | 1016.9 |
| 20260831183312 | 74 | 42 | 0.0 | 1.0 | 0.00 | 0.04 | 0.04 | 90 | 1016.9 |
| 20260831183235 | 74 | 7 | 0.0 | 1.0 | 0.00 | 0.04 | 0.04 | 89 | 1016.9 |
| 20260831183206 | 75 | 10 | 1.0 | 1.0 | 0.00 | 0.04 | 0.04 | 89 | 1016.6 |
| 20260831183100 | 75 | 4 | 0.0 | 1.0 | 0.00 | 0.04 | 0.04 | 89 | 1016.6 |
| 20260831183009 | 75 | 133 | 0.0 | 1.0 | 0.00 | 0.04 | 0.04 | 88 | 1016.3 |
| 20260831183005 | 75 | 97 | 0.0 | 1.0 | 0.00 | 0.04 | 0.04 | 89 | 1016.6 |
| 20260831182957 | 75 | 90 | 0.0 | 1.0 | 0.00 | 0.04 | 0.04 | 89 | 1016.3 |
| 20260831182948 | 75 | 132 | 0.0 | 1.0 | 0.00 | 0.04 | 0.04 | 88 | 1016.6 |
| 20260831182636 | 75 | 134 | 0.0 | 2.0 | 0.00 | 0.04 | 0.04 | 88 | 1016.3 |
| 20260831182531 | 75 | 134 | 0.0 | 3.0 | 0.00 | 0.04 | 0.04 | 88 | 1016.3 |
| 20260831182426 | 75 | 133 | 0.0 | 3.0 | 0.00 | 0.04 | 0.04 | 87 | 1016.3 |
| 20260831182319 | 75 | 131 | 0.0 | 3.0 | 0.00 | 0.04 | 0.04 | 87 | 1015.9 |
| 20260831182220 | 75 | 130 | 0.0 | 3.0 | 0.00 | 0.04 | 0.04 | 87 | 1015.9 |
| 20260831182215 | 75 | 130 | 0.0 | 3.0 | 0.00 | 0.04 | 0.04 | 86 | 1015.9 |
| 20260831182108 | 75 | 125 | 1.0 | 4.0 | 0.00 | 0.04 | 0.04 | 86 | 1015.9 |
| 20260831182003 | 75 | 123 | 0.0 | 4.0 | 0.00 | 0.04 | 0.04 | 86 | 1016.3 |
| 20260831181857 | 75 | 116 | 1.0 | 4.0 | 0.00 | 0.04 | 0.04 | 86 | 1015.9 |
| 20260831181751 | 75 | 132 | 1.0 | 4.0 | 0.00 | 0.04 | 0.04 | 85 | 1016.3 |
| 20260831181714 | 75 | 130 | 2.0 | 4.0 | 0.00 | 0.04 | 0.04 | 84 | 1015.9 |
| 20260831181645 | 76 | 127 | 2.0 | 4.0 | 0.00 | 0.04 | 0.04 | 84 | 1015.9 |
| 20260831181538 | 76 | 121 | 1.0 | 4.0 | 0.00 | 0.04 | 0.04 | 84 | 1015.9 |
| 20260831181433 | 76 | 115 | 0.0 | 4.0 | 0.00 | 0.04 | 0.04 | 83 | 1016.3 |
| 20260831181327 | 76 | 116 | 3.0 | 4.0 | 0.00 | 0.04 | 0.04 | 84 | 1016.3 |
| 20260831181222 | 76 | 87 | 4.0 | 4.0 | 0.00 | 0.04 | 0.04 | 83 | 1016.3 |
| 20260831181205 | 76 | 104 | 1.0 | 3.0 | 0.00 | 0.04 | 0.04 | 85 | 1016.3 |
| 20260831181115 | 76 | 132 | 1.0 | 3.0 | 0.00 | 0.04 | 0.04 | 85 | 1015.9 |
| 20260831181009 | 76 | 129 | 1.0 | 3.0 | 0.00 | 0.04 | 0.04 | 86 | 1016.3 |
| 20260831180904 | 76 | 132 | 0.0 | 3.0 | 0.00 | 0.04 | 0.04 | 84 | 1016.3 |
| 20260831180759 | 76 | 131 | 1.0 | 3.0 | 0.00 | 0.04 | 0.04 | 85 | 1015.9 |
| 20260831180659 | 76 | 125 | 0.0 | 3.0 | 0.00 | 0.04 | 0.04 | 84 | 1015.9 |
| 20260831180653 | 76 | 124 | 1.0 | 3.0 | 0.00 | 0.04 | 0.04 | 83 | 1015.9 |
| 20260831180547 | 76 | 121 | 1.0 | 3.0 | 0.00 | 0.04 | 0.04 | 83 | 1015.9 |
| 20260831180447 | 76 | 183 | 0.0 | 3.0 | 0.00 | 0.04 | 0.04 | 86 | 1015.9 |
| 20260831180442 | 77 | 129 | 0.0 | 3.0 | 0.00 | 0.04 | 0.04 | 85 | 1015.9 |
| 20260831180434 | 77 | 128 | 2.0 | 3.0 | 0.00 | 0.04 | 0.04 | 86 | 1015.9 |
| 20260831180412 | 76 | 129 | 0.0 | 3.0 | 0.00 | 0.04 | 0.04 | 86 | 1015.9 |
| 20260831180135 | 76 | 181 | 1.0 | 3.0 | 0.00 | 0.04 | 0.04 | 85 | 1016.3 |
| 20260831180018 | 76 | 180 | 0.0 | 3.0 | 0.00 | 0.04 | 0.04 | 85 | 1016.3 |
| 20260831175922 | 76 | 177 | 1.0 | 3.0 | 0.00 | 0.04 | 0.04 | 86 | 1015.9 |
| 20260831175913 | 76 | 176 | 1.0 | 3.0 | 0.00 | 0.04 | 0.04 | 86 | 1015.9 |
| 20260831175905 | 76 | 95 | 2.0 | 2.0 | 0.00 | 0.04 | 0.04 | 87 | 1015.6 |
| 20260831175554 | 76 | 134 | 0.0 | 1.0 | 0.00 | 0.04 | 0.04 | 89 | 1015.9 |
| 20260831175449 | 76 | 131 | 0.0 | 1.0 | 0.00 | 0.04 | 0.04 | 87 | 1015.9 |
| 20260831175344 | 75 | 157 | 0.0 | 0.0 | 0.00 | 0.04 | 0.04 | 89 | 1015.9 |
| 20260831175237 | 75 | 165 | 0.0 | 0.0 | 0.00 | 0.04 | 0.04 | 88 | 1015.9 |
| 20260831175138 | 75 | 120 | 0.0 | 0.0 | 0.00 | 0.04 | 0.04 | 88 | 1015.9 |
| 20260831175131 | 75 | 122 | 0.0 | 0.0 | 0.00 | 0.04 | 0.04 | 88 | 1015.9 |
| 20260831175026 | 75 | 163 | 0.0 | 0.0 | 0.00 | 0.04 | 0.04 | 88 | 1015.9 |
| 20260831174919 | 74 | 168 | 0.0 | 0.0 | 0.00 | 0.04 | 0.04 | 88 | 1015.9 |
| 20260831174815 | 74 | 193 | 0.0 | 0.0 | 0.00 | 0.04 | 0.04 | 88 | 1015.9 |
| 20260831174709 | 74 | 179 | 0.0 | 0.0 | 0.00 | 0.04 | 0.04 | 87 | 1015.9 |
| 20260831174632 | 74 | 232 | 0.0 | 0.0 | 0.00 | 0.04 | 0.04 | 87 | 1015.9 |
| 20260831174604 | 74 | 201 | 0.0 | 0.0 | 0.00 | 0.04 | 0.04 | 88 | 1015.9 |
| 20260831174457 | 74 | 191 | 0.0 | 0.0 | 0.01 | 0.04 | 0.04 | 88 | 1015.9 |
| 20260831174351 | 74 | 215 | 0.0 | 0.0 | 0.01 | 0.04 | 0.04 | 88 | 1016.3 |
| 20260831174246 | 74 | 214 | 0.0 | 0.0 | 0.01 | 0.04 | 0.04 | 90 | 1016.3 |
| 20260831174141 | 74 | 224 | 0.0 | 0.0 | 0.01 | 0.04 | 0.04 | 90 | 1016.3 |
| 20260831174124 | 74 | 237 | 0.0 | 0.0 | 0.01 | 0.04 | 0.04 | 89 | 1016.3 |
| 20260831174035 | 74 | 216 | 0.0 | 0.0 | 0.01 | 0.04 | 0.04 | 91 | 1016.3 |
| 20260831173928 | 74 | 222 | 0.0 | 0.0 | 0.01 | 0.04 | 0.04 | 91 | 1016.3 |
| 20260831173902 | 73 | 150 | 0.0 | 1.0 | 0.02 | 0.04 | 0.04 | 91 | 1016.3 |
| 20260831173857 | 73 | 231 | 0.0 | 1.0 | 0.02 | 0.04 | 0.04 | 91 | 1016.3 |
| 20260831173836 | 73 | 209 | 0.0 | 1.0 | 0.02 | 0.04 | 0.04 | 91 | 1016.3 |
| 20260831173612 | 73 | 141 | 0.0 | 1.0 | 0.02 | 0.04 | 0.04 | 91 | 1016.3 |
| 20260831173506 | 73 | 165 | 0.0 | 1.0 | 0.02 | 0.04 | 0.04 | 91 | 1015.9 |
| 20260831173400 | 73 | 169 | 0.0 | 1.0 | 0.02 | 0.04 | 0.04 | 90 | 1016.6 |
| 20260831173255 | 73 | 204 | 0.0 | 1.0 | 0.02 | 0.04 | 0.04 | 90 | 1016.3 |
| 20260831173149 | 73 | 202 | 0.0 | 1.0 | 0.02 | 0.04 | 0.04 | 90 | 1016.3 |
| 20260831173112 | 73 | 181 | 0.0 | 1.0 | 0.02 | 0.04 | 0.04 | 91 | 1016.3 |
| 20260831173043 | 73 | 194 | 0.0 | 1.0 | 0.02 | 0.04 | 0.04 | 91 | 1016.3 |
| 20260831172937 | 73 | 220 | 0.0 | 1.0 | 0.02 | 0.04 | 0.04 | 91 | 1016.3 |
| 20260831172832 | 73 | 220 | 0.0 | 1.0 | 0.02 | 0.04 | 0.04 | 91 | 1016.6 |
| 20260831172726 | 73 | 204 | 0.0 | 1.0 | 0.02 | 0.04 | 0.04 | 91 | 1016.6 |
| 20260831172604 | 73 | 204 | 0.0 | 1.0 | 0.02 | 0.04 | 0.04 | 92 | 1016.6 |
| 20260831172521 | 72 | 205 | 0.0 | 1.0 | 0.02 | 0.04 | 0.04 | 91 | 1016.6 |
| 20260831172409 | 72 | 182 | 0.0 | 1.0 | 0.02 | 0.04 | 0.04 | 91 | 1016.6 |
| 20260831172306 | 73 | 182 | 0.0 | 2.0 | 0.04 | 0.04 | 0.04 | 91 | 1016.3 |
| 20260831172157 | 73 | 147 | 1.0 | 2.0 | 0.04 | 0.04 | 0.04 | 91 | 1016.3 |
| 20260831172058 | 73 | 177 | 0.0 | 2.0 | 0.04 | 0.04 | 0.04 | 92 | 1016.3 |
| 20260831172052 | 73 | 191 | 0.0 | 2.0 | 0.04 | 0.04 | 0.04 | 92 | 1016.3 |
| 20260831171946 | 73 | 201 | 1.0 | 2.0 | 0.04 | 0.04 | 0.04 | 92 | 1016.3 |
| 20260831171840 | 72 | 229 | 0.0 | 2.0 | 0.04 | 0.04 | 0.04 | 93 | 1016.6 |
| 20260831171735 | 72 | 230 | 0.0 | 2.0 | 0.04 | 0.04 | 0.04 | 93 | 1016.3 |
| 20260831171628 | 72 | 183 | 0.0 | 2.0 | 0.04 | 0.04 | 0.04 | 93 | 1016.3 |
| 20260831171552 | 72 | 205 | 0.0 | 2.0 | 0.04 | 0.04 | 0.04 | 93 | 1016.3 |
| 20260831171523 | 72 | 216 | 0.0 | 2.0 | 0.04 | 0.04 | 0.04 | 93 | 1016.3 |
| 20260831171417 | 72 | 215 | 2.0 | 2.0 | 0.04 | 0.04 | 0.04 | 93 | 1016.3 |
| 20260831171311 | 72 | 206 | 1.0 | 2.0 | 0.04 | 0.04 | 0.04 | 94 | 1016.6 |
| 20260831171206 | 72 | 202 | 0.0 | 2.0 | 0.04 | 0.04 | 0.04 | 93 | 1016.3 |
| 20260831171101 | 72 | 204 | 0.0 | 2.0 | 0.04 | 0.04 | 0.04 | 94 | 1016.3 |
| 20260831171045 | 72 | 201 | 0.0 | 2.0 | 0.04 | 0.04 | 0.04 | 94 | 1016.3 |
| 20260831170955 | 72 | 282 | 0.0 | 2.0 | 0.04 | 0.04 | 0.04 | 94 | 1016.6 |
| 20260831170849 | 72 | 197 | 1.0 | 2.0 | 0.04 | 0.04 | 0.04 | 94 | 1016.3 |
| 20260831170743 | 72 | 197 | 0.0 | 1.0 | 0.04 | 0.06 | 0.04 | 94 | 1016.6 |
| 20260831170638 | 72 | 185 | 0.0 | 0.0 | 0.04 | 0.06 | 0.04 | 94 | 1016.6 |
| 20260831170538 | 72 | 192 | 0.0 | 0.0 | 0.04 | 0.06 | 0.04 | 94 | 1016.3 |
| 20260831170532 | 72 | 225 | 0.0 | 0.0 | 0.04 | 0.06 | 0.04 | 94 | 1016.3 |
| 20260831170426 | 72 | 199 | 0.0 | 0.0 | 0.04 | 0.06 | 0.04 | 93 | 1016.3 |
| 20260831170320 | 72 | 215 | 0.0 | 0.0 | 0.04 | 0.06 | 0.04 | 94 | 1016.3 |
| 20260831170214 | 72 | 201 | 0.0 | 0.0 | 0.04 | 0.06 | 0.04 | 93 | 1016.3 |
| 20260831170121 | 72 | 185 | 0.0 | 0.0 | 0.04 | 0.06 | 0.04 | 93 | 1015.9 |
| 20260831170032 | 72 | 178 | 0.0 | 0.0 | 0.04 | 0.06 | 0.04 | 93 | 1016.3 |
| 20260831170004 | 72 | 178 | 0.0 | 0.0 | 0.04 | 0.06 | 0.04 | 93 | 1016.3 |
| 20260831165858 | 72 | 184 | 0.0 | 0.0 | 0.04 | 0.06 | 0.04 | 93 | 1016.3 |
| 20260831165751 | 72 | 195 | 0.0 | 0.0 | 0.04 | 0.06 | 0.04 | 93 | 1016.3 |
| 20260831165646 | 72 | 181 | 0.0 | 0.0 | 0.04 | 0.06 | 0.04 | 93 | 1016.3 |
| 20260831165540 | 72 | 188 | 0.0 | 0.0 | 0.04 | 0.06 | 0.04 | 93 | 1016.6 |
| 20260831165525 | 72 | 188 | 0.0 | 0.0 | 0.04 | 0.06 | 0.04 | 93 | 1016.3 |
| 20260831165434 | 72 | 170 | 0.0 | 0.0 | 0.04 | 0.06 | 0.04 | 92 | 1016.6 |
| 20260831165328 | 72 | 171 | 0.0 | 0.0 | 0.04 | 0.06 | 0.04 | 92 | 1016.3 |
| 20260831165223 | 72 | 155 | 0.0 | 0.0 | 0.04 | 0.06 | 0.04 | 92 | 1016.6 |
| 20260831165118 | 72 | 143 | 0.0 | 0.0 | 0.04 | 0.06 | 0.04 | 92 | 1016.3 |
| 20260831165018 | 72 | 138 | 0.0 | 0.0 | 0.04 | 0.06 | 0.04 | 91 | 1016.6 |
| 20260831165012 | 72 | 138 | 0.0 | 0.0 | 0.04 | 0.06 | 0.04 | 91 | 1016.6 |
| 20260831164905 | 73 | 138 | 0.0 | 0.0 | 0.04 | 0.06 | 0.04 | 91 | 1016.9 |
| 20260831164800 | 73 | 138 | 0.0 | 0.0 | 0.04 | 0.06 | 0.04 | 91 | 1016.9 |
| 20260831164653 | 73 | 127 | 0.0 | 1.0 | 0.04 | 0.06 | 0.04 | 90 | 1016.9 |
| 20260831164548 | 73 | 125 | 0.0 | 1.0 | 0.04 | 0.06 | 0.04 | 90 | 1016.9 |
| 20260831164511 | 73 | 125 | 0.0 | 1.0 | 0.03 | 0.05 | 0.04 | 90 | 1016.9 |
| 20260831164443 | 73 | 125 | 0.0 | 1.0 | 0.03 | 0.05 | 0.03 | 90 | 1016.9 |
| 20260831164336 | 73 | 119 | 0.0 | 1.0 | 0.03 | 0.05 | 0.03 | 90 | 1016.9 |
| 20260831164231 | 73 | 125 | 0.0 | 2.0 | 0.03 | 0.05 | 0.03 | 90 | 1017.3 |
| 20260831164126 | 73 | 125 | 0.0 | 3.0 | 0.03 | 0.05 | 0.03 | 90 | 1017.3 |
| 20260831164019 | 73 | 118 | 0.0 | 3.0 | 0.03 | 0.05 | 0.03 | 90 | 1017.3 |
| 20260831164004 | 73 | 118 | 0.0 | 3.0 | 0.03 | 0.05 | 0.03 | 90 | 1017.3 |
| 20260831163913 | 73 | 119 | 0.0 | 3.0 | 0.03 | 0.05 | 0.03 | 90 | 1016.9 |
| 20260831163808 | 73 | 118 | 0.0 | 3.0 | 0.02 | 0.04 | 0.02 | 89 | 1017.7 |
| 20260831163703 | 73 | 48 | 0.0 | 3.0 | 0.02 | 0.04 | 0.02 | 89 | 1017.7 |
| 20260831163556 | 73 | 259 | 0.0 | 3.0 | 0.02 | 0.04 | 0.02 | 88 | 1017.3 |
| 20260831163458 | 73 | 239 | 0.0 | 3.0 | 0.02 | 0.04 | 0.02 | 89 | 1017.7 |
| 20260831163450 | 73 | 236 | 0.0 | 3.0 | 0.02 | 0.04 | 0.02 | 89 | 1017.7 |
| 20260831163345 | 74 | 259 | 1.0 | 3.0 | 0.02 | 0.04 | 0.02 | 88 | 1017.7 |
| 20260831163240 | 74 | 58 | 1.0 | 3.0 | 0.02 | 0.04 | 0.02 | 88 | 1017.7 |
| 20260831163134 | 74 | 39 | 0.0 | 3.0 | 0.02 | 0.04 | 0.02 | 88 | 1017.7 |
| 20260831163029 | 74 | 322 | 1.0 | 3.0 | 0.02 | 0.04 | 0.02 | 87 | 1017.7 |
| 20260831162951 | 74 | 276 | 0.0 | 3.0 | 0.02 | 0.04 | 0.02 | 87 | 1017.7 |
| 20260831162924 | 74 | 355 | 0.0 | 3.0 | 0.02 | 0.06 | 0.02 | 87 | 1018.1 |
| 20260831162817 | 75 | 257 | 0.0 | 3.0 | 0.02 | 0.06 | 0.02 | 87 | 1018.1 |
| 20260831162711 | 75 | 281 | 0.0 | 3.0 | 0.02 | 0.06 | 0.02 | 86 | 1018.1 |
| 20260831162605 | 75 | 123 | 0.0 | 3.0 | 0.02 | 0.06 | 0.02 | 85 | 1018.1 |
| 20260831162444 | 75 | 190 | 0.0 | 3.0 | 0.02 | 0.06 | 0.02 | 85 | 1018.1 |
| 20260831162353 | 75 | 277 | 0.0 | 3.0 | 0.02 | 0.06 | 0.02 | 84 | 1018.1 |
| 20260831162248 | 76 | 342 | 1.0 | 3.0 | 0.00 | 0.04 | 0.00 | 84 | 1018.1 |
| 20260831162142 | 76 | 66 | 1.0 | 2.0 | 0.00 | 0.04 | 0.00 | 83 | 1018.1 |
| 20260831162037 | 76 | 248 | 1.0 | 2.0 | 0.00 | 0.06 | 0.00 | 84 | 1018.1 |
| 20260831161930 | 76 | 275 | 0.0 | 2.0 | 0.00 | 0.06 | 0.00 | 83 | 1018.1 |
| 20260831161825 | 76 | 223 | 0.0 | 2.0 | 0.00 | 0.06 | 0.00 | 83 | 1018.1 |
| 20260831161719 | 76 | 236 | 0.0 | 2.0 | 0.00 | 0.07 | 0.00 | 83 | 1018.1 |
| 20260831161614 | 76 | 235 | 0.0 | 2.0 | 0.00 | 0.07 | 0.00 | 82 | 1017.7 |
| 20260831161509 | 76 | 235 | 1.0 | 2.0 | 0.00 | 0.08 | 0.00 | 82 | 1018.1 |
| 20260831161431 | 76 | 236 | 0.0 | 2.0 | 0.00 | 0.08 | 0.00 | 83 | 1018.1 |
| 20260831161403 | 76 | 236 | 0.0 | 2.0 | 0.00 | 0.08 | 0.00 | 82 | 1018.1 |
| 20260831161256 | 77 | 236 | 0.0 | 2.0 | 0.00 | 0.09 | 0.00 | 82 | 1018.1 |
| 20260831161151 | 77 | 236 | 1.0 | 2.0 | 0.00 | 0.09 | 0.00 | 82 | 1018.1 |
| 20260831161045 | 77 | 236 | 0.0 | 2.0 | 0.00 | 0.09 | 0.00 | 81 | 1018.1 |
| 20260831160940 | 77 | 236 | 2.0 | 2.0 | 0.00 | 0.09 | 0.00 | 81 | 1017.7 |
| 20260831160924 | 77 | 236 | 0.0 | 2.0 | 0.00 | 0.09 | 0.00 | 81 | 1018.1 |
| 20260831160834 | 77 | 236 | 2.0 | 2.0 | 0.00 | 0.09 | 0.00 | 81 | 1017.7 |
| 20260831160728 | 77 | 221 | 0.0 | 2.0 | 0.00 | 0.09 | 0.00 | 83 | 1018.1 |
| 20260831160622 | 77 | 221 | 0.0 | 2.0 | 0.00 | 0.10 | 0.00 | 83 | 1017.7 |
| 20260831160517 | 77 | 222 | 0.0 | 2.0 | 0.00 | 0.10 | 0.00 | 83 | 1017.7 |
| 20260831160418 | 77 | 222 | 0.0 | 3.0 | 0.00 | 0.10 | 0.00 | 83 | 1017.7 |
| 20260831160411 | 77 | 221 | 0.0 | 3.0 | 0.00 | 0.10 | 0.00 | 83 | 1017.7 |
| 20260831160306 | 77 | 221 | 0.0 | 3.0 | 0.00 | 0.10 | 0.00 | 83 | 1017.7 |
| 20260831160200 | 77 | 221 | 0.0 | 3.0 | 0.00 | 0.10 | 0.00 | 82 | 1017.7 |
| 20260831160106 | 77 | 221 | 0.0 | 3.0 | 0.00 | 0.10 | 0.00 | 81 | 1017.7 |
| 20260831155947 | 77 | 221 | 1.0 | 3.0 | 0.00 | 0.10 | 0.00 | 80 | 1017.7 |
| 20260831155910 | 77 | 207 | 0.0 | 3.0 | 0.00 | 0.10 | 0.00 | 80 | 1017.7 |
| 20260831155841 | 77 | 200 | 0.0 | 3.0 | 0.00 | 0.11 | 0.00 | 80 | 1017.7 |
| 20260831155736 | 77 | 198 | 1.0 | 3.0 | 0.00 | 0.11 | 0.00 | 79 | 1017.3 |
| 20260831155630 | 77 | 179 | 0.0 | 3.0 | 0.00 | 0.11 | 0.00 | 79 | 1017.3 |
| 20260831155525 | 78 | 203 | 1.0 | 3.0 | 0.00 | 0.11 | 0.00 | 79 | 1017.3 |
| 20260831155403 | 78 | 152 | 1.0 | 3.0 | 0.00 | 0.11 | 0.00 | 79 | 1017.3 |
| 20260831155314 | 78 | 207 | 1.0 | 3.0 | 0.00 | 0.13 | 0.00 | 79 | 1017.7 |
| 20260831155207 | 78 | 218 | 2.0 | 3.0 | 0.00 | 0.13 | 0.00 | 77 | 1017.3 |
| 20260831155102 | 78 | 216 | 1.0 | 3.0 | 0.00 | 0.13 | 0.00 | 79 | 1017.7 |
| 20260831154956 | 78 | 157 | 0.0 | 3.0 | 0.00 | 0.13 | 0.00 | 78 | 1017.3 |
| 20260831154850 | 78 | 246 | 1.0 | 3.0 | 0.00 | 0.13 | 0.00 | 77 | 1017.3 |
| 20260831154745 | 78 | 195 | 0.0 | 3.0 | 0.00 | 0.15 | 0.00 | 79 | 1017.3 |
| 20260831154639 | 78 | 195 | 0.0 | 3.0 | 0.00 | 0.15 | 0.00 | 77 | 1016.9 |
| 20260831154533 | 78 | 195 | 1.0 | 3.0 | 0.00 | 0.15 | 0.00 | 78 | 1016.9 |
| 20260831154428 | 78 | 186 | 0.0 | 3.0 | 0.00 | 0.15 | 0.00 | 77 | 1017.3 |
| 20260831154351 | 78 | 108 | 1.0 | 3.0 | 0.00 | 0.15 | 0.00 | 77 | 1017.3 |
| 20260831154322 | 78 | 223 | 2.0 | 4.0 | 0.00 | 0.15 | 0.00 | 77 | 1017.3 |
| 20260831154216 | 78 | 220 | 0.0 | 4.0 | 0.00 | 0.15 | 0.00 | 79 | 1016.9 |
| 20260831154110 | 78 | 220 | 2.0 | 4.0 | 0.00 | 0.15 | 0.00 | 77 | 1016.9 |
| 20260831154005 | 78 | 210 | 2.0 | 4.0 | 0.00 | 0.15 | 0.00 | 80 | 1017.3 |
| 20260831153858 | 77 | 200 | 0.0 | 4.0 | 0.00 | 0.15 | 0.00 | 79 | 1017.3 |
| 20260831153843 | 77 | 200 | 0.0 | 4.0 | 0.00 | 0.15 | 0.00 | 79 | 1017.3 |
| 20260831153753 | 77 | 223 | 1.0 | 4.0 | 0.00 | 0.15 | 0.00 | 79 | 1017.3 |
| 20260831153647 | 77 | 196 | 1.0 | 4.0 | 0.00 | 0.15 | 0.00 | 81 | 1017.3 |
| 20260831153541 | 76 | 155 | 1.0 | 4.0 | 0.00 | 0.15 | 0.00 | 81 | 1017.3 |
| 20260831153436 | 76 | 205 | 0.0 | 4.0 | 0.00 | 0.15 | 0.00 | 81 | 1016.9 |
| 20260831153337 | 76 | 201 | 3.0 | 4.0 | 0.00 | 0.15 | 0.00 | 81 | 1016.9 |
| 20260831153330 | 76 | 169 | 2.0 | 4.0 | 0.00 | 0.15 | 0.00 | 81 | 1017.3 |
| 20260831153225 | 76 | 186 | 2.0 | 4.0 | 0.00 | 0.15 | 0.00 | 81 | 1017.3 |
| 20260831153118 | 76 | 187 | 1.0 | 4.0 | 0.00 | 0.15 | 0.00 | 81 | 1016.9 |
| 20260831153011 | 76 | 225 | 0.0 | 4.0 | 0.00 | 0.15 | 0.00 | 81 | 1017.3 |
| 20260831152906 | 76 | 211 | 3.0 | 4.0 | 0.00 | 0.15 | 0.00 | 81 | 1017.3 |
| 20260831152829 | 76 | 191 | 2.0 | 4.0 | 0.00 | 0.15 | 0.00 | 82 | 1017.3 |
| 20260831152759 | 76 | 281 | 0.0 | 4.0 | 0.00 | 0.15 | 0.00 | 82 | 1017.3 |
| 20260831152654 | 76 | 157 | 3.0 | 4.0 | 0.00 | 0.15 | 0.00 | 82 | 1017.3 |
| 20260831152549 | 75 | 203 | 1.0 | 3.0 | 0.00 | 0.15 | 0.00 | 83 | 1016.9 |
| 20260831152443 | 75 | 182 | 1.0 | 3.0 | 0.00 | 0.15 | 0.00 | 84 | 1017.3 |
| 20260831152337 | 75 | 155 | 1.0 | 3.0 | 0.00 | 0.15 | 0.00 | 84 | 1016.9 |
| 20260831152322 | 75 | 155 | 1.0 | 3.0 | 0.00 | 0.15 | 0.00 | 84 | 1017.3 |
| 20260831152231 | 75 | 209 | 1.0 | 3.0 | 0.00 | 0.15 | 0.00 | 85 | 1016.9 |
| 20260831152125 | 75 | 221 | 1.0 | 3.0 | 0.00 | 0.15 | 0.00 | 85 | 1016.9 |
| 20260831152020 | 75 | 227 | 1.0 | 3.0 | 0.00 | 0.17 | 0.00 | 84 | 1016.9 |
| 20260831151914 | 75 | 202 | 1.0 | 2.0 | 0.00 | 0.17 | 0.00 | 84 | 1016.9 |
| 20260831151816 | 75 | 235 | 0.0 | 3.0 | 0.00 | 0.17 | 0.00 | 85 | 1016.9 |
| 20260831151809 | 75 | 235 | 1.0 | 3.0 | 0.00 | 0.18 | 0.00 | 85 | 1016.9 |
| 20260831151703 | 75 | 233 | 0.0 | 3.0 | 0.00 | 0.18 | 0.00 | 85 | 1016.9 |
| 20260831151557 | 75 | 233 | 0.0 | 3.0 | 0.00 | 0.18 | 0.00 | 86 | 1016.9 |
| 20260831151452 | 75 | 233 | 0.0 | 3.0 | 0.00 | 0.18 | 0.00 | 85 | 1016.9 |
| 20260831151316 | 75 | 233 | 0.0 | 4.0 | 0.00 | 0.19 | 0.00 | 85 | 1016.9 |
| 20260831151236 | 74 | 233 | 2.0 | 4.0 | 0.00 | 0.19 | 0.00 | 85 | 1016.9 |
| 20260831151131 | 74 | 222 | 0.0 | 4.0 | 0.00 | 0.19 | 0.00 | 86 | 1016.9 |
| 20260831151025 | 74 | 181 | 1.0 | 4.0 | 0.00 | 0.19 | 0.00 | 86 | 1016.9 |
| 20260831150920 | 74 | 249 | 2.0 | 4.0 | 0.00 | 0.19 | 0.00 | 86 | 1016.9 |
| 20260831150813 | 74 | 278 | 1.0 | 4.0 | 0.00 | 0.19 | 0.00 | 87 | 1016.9 |
| 20260831150708 | 74 | 290 | 1.0 | 4.0 | 0.00 | 0.19 | 0.00 | 87 | 1016.9 |
| 20260831150602 | 74 | 290 | 0.0 | 4.0 | 0.00 | 0.19 | 0.00 | 87 | 1016.9 |
| 20260831150534 | 74 | 196 | 0.0 | 0.0 | 0.00 | 0.19 | 0.00 | 88 | 1016.9 |
| 20260831150529 | 74 | 290 | 1.0 | 4.0 | 0.00 | 0.19 | 0.00 | 88 | 1016.6 |
| 20260831150521 | 74 | 205 | 0.0 | 0.0 | 0.00 | 0.19 | 0.00 | 88 | 1016.9 |
| 20260831150245 | 74 | 195 | 0.0 | 0.0 | 0.00 | 0.19 | 0.00 | 88 | 1016.9 |
| 20260831150140 | 74 | 188 | 0.0 | 0.0 | 0.00 | 0.19 | 0.00 | 89 | 1017.3 |
| 20260831150034 | 74 | 203 | 0.0 | 0.0 | 0.00 | 0.20 | 0.00 | 89 | 1016.9 |
| 20260831145928 | 74 | 204 | 0.0 | 0.0 | 0.00 | 0.20 | 0.00 | 88 | 1016.9 |
| 20260831145822 | 74 | 205 | 0.0 | 0.0 | 0.00 | 0.20 | 0.00 | 89 | 1016.9 |
| 20260831145755 | 74 | 200 | 0.0 | 0.0 | 0.00 | 0.20 | 0.00 | 89 | 1016.9 |
| 20260831145716 | 74 | 199 | 0.0 | 0.0 | 0.00 | 0.20 | 0.00 | 89 | 1016.9 |
| 20260831145610 | 74 | 199 | 0.0 | 0.0 | 0.00 | 0.20 | 0.00 | 89 | 1016.9 |
| 20260831145505 | 74 | 199 | 0.0 | 0.0 | 0.00 | 0.20 | 0.00 | 89 | 1016.6 |
| 20260831145359 | 74 | 200 | 0.0 | 0.0 | 0.00 | 0.20 | 0.00 | 89 | 1016.9 |
| 20260831145252 | 74 | 200 | 0.0 | 0.0 | 0.00 | 0.21 | 0.00 | 89 | 1016.9 |
| 20260831145147 | 74 | 199 | 0.0 | 0.0 | 0.00 | 0.21 | 0.00 | 89 | 1016.6 |
| 20260831145042 | 74 | 199 | 0.0 | 0.0 | 0.00 | 0.21 | 0.00 | 89 | 1016.6 |
| 20260831144935 | 74 | 199 | 0.0 | 0.0 | 0.00 | 0.21 | 0.00 | 89 | 1016.6 |
| 20260831144830 | 73 | 199 | 0.0 | 0.0 | 0.00 | 0.21 | 0.00 | 89 | 1016.6 |
| 20260831144742 | 73 | 199 | 0.0 | 0.0 | 0.00 | 0.21 | 0.00 | 89 | 1016.6 |
| 20260831144724 | 73 | 199 | 0.0 | 0.0 | 0.00 | 0.21 | 0.00 | 89 | 1016.6 |
| 20260831144619 | 73 | 196 | 0.0 | 0.0 | 0.00 | 0.22 | 0.00 | 89 | 1016.6 |
| 20260831144513 | 73 | 196 | 0.0 | 0.0 | 0.00 | 0.22 | 0.00 | 89 | 1016.3 |
| 20260831144407 | 73 | 196 | 0.0 | 0.0 | 0.00 | 0.22 | 0.00 | 90 | 1016.3 |
| 20260831144302 | 73 | 196 | 0.0 | 0.0 | 0.00 | 0.22 | 0.00 | 90 | 1016.3 |
| 20260831144235 | 73 | 151 | 0.0 | 0.0 | 0.00 | 0.22 | 0.00 | 90 | 1016.3 |
| 20260831144156 | 72 | 183 | 0.0 | 0.0 | 0.00 | 0.22 | 0.00 | 91 | 1016.6 |
| 20260831144050 | 72 | 181 | 0.0 | 0.0 | 0.00 | 0.22 | 0.00 | 91 | 1016.3 |
| 20260831143944 | 72 | 194 | 0.0 | 0.0 | 0.00 | 0.22 | 0.00 | 91 | 1016.6 |
| 20260831143839 | 72 | 188 | 0.0 | 0.0 | 0.00 | 0.22 | 0.00 | 92 | 1016.3 |
| 20260831143733 | 72 | 188 | 0.0 | 0.0 | 0.00 | 0.22 | 0.00 | 92 | 1016.6 |
| 20260831143627 | 72 | 188 | 0.0 | 0.0 | 0.00 | 0.23 | 0.00 | 93 | 1016.3 |
| 20260831143521 | 72 | 174 | 0.0 | 0.0 | 0.00 | 0.23 | 0.00 | 93 | 1016.3 |
| 20260831143418 | 72 | 196 | 0.0 | 0.0 | 0.00 | 0.23 | 0.00 | 93 | 1016.3 |
| 20260831143310 | 72 | 196 | 0.0 | 0.0 | 0.00 | 0.23 | 0.00 | 93 | 1016.3 |
| 20260831143223 | 71 | 196 | 0.0 | 0.0 | 0.00 | 0.23 | 0.00 | 94 | 1016.3 |
| 20260831143205 | 71 | 196 | 0.0 | 0.0 | 0.00 | 0.24 | 0.00 | 94 | 1016.3 |
| 20260831143058 | 71 | 197 | 0.0 | 0.0 | 0.00 | 0.24 | 0.00 | 94 | 1016.6 |
| 20260831142953 | 71 | 193 | 0.0 | 0.0 | 0.00 | 0.24 | 0.00 | 94 | 1016.3 |
| 20260831142850 | 71 | 181 | 0.0 | 0.0 | 0.00 | 0.25 | 0.00 | 94 | 1016.6 |
| 20260831142741 | 71 | 183 | 0.0 | 0.0 | 0.00 | 0.25 | 0.00 | 94 | 1016.6 |
| 20260831142715 | 71 | 180 | 0.0 | 0.0 | 0.00 | 0.25 | 0.00 | 94 | 1016.3 |
| 20260831142635 | 71 | 178 | 0.0 | 0.0 | 0.00 | 0.25 | 0.00 | 95 | 1016.3 |
| 20260831142530 | 71 | 193 | 0.0 | 0.0 | 0.00 | 0.26 | 0.00 | 95 | 1016.6 |
| 20260831142446 | 71 | 183 | 0.0 | 0.0 | 0.00 | 0.26 | 0.00 | 95 | 1016.3 |
| 20260831142437 | 71 | 197 | 0.0 | 0.0 | 0.00 | 0.26 | 0.00 | 95 | 1016.6 |
| 20260831142427 | 70 | 198 | 0.0 | 0.0 | 0.00 | 0.26 | 0.00 | 95 | 1016.6 |
| 20260831142107 | 70 | 196 | 0.0 | 0.0 | 0.00 | 0.26 | 0.00 | 95 | 1016.6 |
| 20260831142001 | 70 | 191 | 0.0 | 0.0 | 0.00 | 0.26 | 0.00 | 95 | 1016.6 |
| 20260831141933 | 70 | 200 | 0.0 | 0.0 | 0.00 | 0.26 | 0.00 | 95 | 1016.6 |
| 20260831141929 | 70 | 191 | 0.0 | 0.0 | 0.00 | 0.26 | 0.00 | 95 | 1016.3 |
| 20260831141921 | 70 | 197 | 0.0 | 0.0 | 0.00 | 0.26 | 0.00 | 95 | 1016.6 |
| 20260831141644 | 70 | 200 | 0.0 | 0.0 | 0.00 | 0.26 | 0.00 | 95 | 1016.6 |
| 20260831141539 | 70 | 200 | 0.0 | 0.0 | 0.00 | 0.26 | 0.00 | 95 | 1016.3 |
| 20260831141434 | 70 | 201 | 0.0 | 0.0 | 0.00 | 0.26 | 0.00 | 95 | 1016.3 |
| 20260831141341 | 70 | 201 | 0.0 | 0.0 | 0.00 | 0.26 | 0.00 | 95 | 1016.6 |
| 20260831141222 | 70 | 189 | 0.0 | 0.0 | 0.00 | 0.26 | 0.00 | 96 | 1016.6 |
| 20260831141207 | 70 | 189 | 0.0 | 0.0 | 0.00 | 0.28 | 0.00 | 96 | 1016.3 |
| 20260831141201 | 70 | 189 | 0.0 | 0.0 | 0.00 | 0.26 | 0.00 | 95 | 1016.6 |
| 20260831141157 | 70 | 189 | 0.0 | 0.0 | 0.00 | 0.28 | 0.00 | 96 | 1016.6 |
| 20260831141148 | 70 | 189 | 0.0 | 0.0 | 0.00 | 0.28 | 0.00 | 95 | 1016.3 |
| 20260831140925 | 70 | 189 | 0.0 | 0.0 | 0.00 | 0.28 | 0.00 | 96 | 1016.6 |
| 20260831140916 | 70 | 189 | 0.0 | 0.0 | 0.00 | 0.28 | 0.00 | 96 | 1016.3 |
| 20260831140905 | 70 | 189 | 0.0 | 0.0 | 0.00 | 0.28 | 0.00 | 96 | 1016.3 |
| 20260831140645 | 70 | 188 | 0.0 | 0.0 | 0.00 | 0.30 | 0.00 | 96 | 1016.3 |
| 20260831140640 | 70 | 188 | 0.0 | 0.0 | 0.00 | 0.28 | 0.00 | 96 | 1016.3 |
| 20260831140632 | 70 | 188 | 0.0 | 0.0 | 0.00 | 0.28 | 0.00 | 96 | 1016.3 |
| 20260831140408 | 70 | 188 | 0.0 | 0.0 | 0.00 | 0.30 | 0.00 | 96 | 1016.6 |
| 20260831140400 | 70 | 188 | 0.0 | 0.0 | 0.00 | 0.30 | 0.00 | 96 | 1016.3 |
| 20260831140125 | 70 | 188 | 0.0 | 0.0 | 0.00 | 0.30 | 0.00 | 96 | 1016.3 |
| 20260831140017 | 70 | 188 | 0.0 | 0.0 | 0.00 | 0.31 | 0.00 | 96 | 1016.3 |
| 20260831135915 | 70 | 188 | 0.0 | 0.0 | 0.00 | 0.31 | 0.00 | 96 | 1016.3 |
| 20260831135901 | 70 | 188 | 0.0 | 0.0 | 0.00 | 0.31 | 0.00 | 96 | 1016.6 |
| 20260831135852 | 70 | 188 | 0.0 | 0.0 | 0.00 | 0.31 | 0.00 | 96 | 1016.6 |
| 20260831135553 | 70 | 188 | 0.0 | 0.0 | 0.00 | 0.32 | 0.00 | 96 | 1016.6 |
| 20260831135449 | 69 | 188 | 0.0 | 0.0 | 0.00 | 0.32 | 0.00 | 96 | 1016.6 |
| 20260831135404 | 69 | 188 | 0.0 | 0.0 | 0.00 | 0.33 | 0.00 | 96 | 1016.6 |
| 20260831135355 | 69 | 188 | 0.0 | 0.0 | 0.00 | 0.33 | 0.00 | 96 | 1016.6 |
| 20260831135344 | 69 | 188 | 0.0 | 0.0 | 0.00 | 0.33 | 0.00 | 96 | 1016.3 |
| 20260831135025 | 69 | 188 | 0.0 | 0.0 | 0.00 | 0.34 | 0.00 | 96 | 1016.6 |
| 20260831134920 | 69 | 188 | 0.0 | 0.0 | 0.00 | 0.34 | 0.00 | 96 | 1016.3 |
| 20260831134815 | 69 | 188 | 0.0 | 0.0 | 0.00 | 0.35 | 0.00 | 96 | 1016.3 |
| 20260831134709 | 69 | 188 | 0.0 | 0.0 | 0.00 | 0.35 | 0.00 | 96 | 1016.3 |
| 20260831134618 | 69 | 188 | 0.0 | 0.0 | 0.00 | 0.35 | 0.00 | 96 | 1016.3 |
| 20260831134600 | 69 | 187 | 0.0 | 0.0 | 0.00 | 0.36 | 0.00 | 96 | 1016.3 |
| 20260831134455 | 69 | 187 | 0.0 | 0.0 | 0.00 | 0.36 | 0.00 | 96 | 1016.6 |
| 20260831134349 | 69 | 187 | 0.0 | 0.0 | 0.00 | 0.37 | 0.00 | 96 | 1016.3 |
| 20260831134243 | 69 | 188 | 0.0 | 0.0 | 0.00 | 0.37 | 0.00 | 96 | 1016.3 |
| 20260831134138 | 69 | 188 | 0.0 | 0.0 | 0.00 | 0.38 | 0.00 | 96 | 1016.3 |
| 20260831134111 | 69 | 188 | 0.0 | 0.0 | 0.00 | 0.38 | 0.00 | 96 | 1016.3 |
| 20260831134032 | 69 | 188 | 0.0 | 0.0 | 0.00 | 0.38 | 0.00 | 96 | 1016.3 |
| 20260831133926 | 69 | 188 | 0.0 | 0.0 | 0.00 | 0.39 | 0.00 | 97 | 1016.3 |
| 20260831133820 | 69 | 188 | 0.0 | 0.0 | 0.00 | 0.39 | 0.00 | 97 | 1016.3 |
| 20260831133714 | 69 | 188 | 0.0 | 0.0 | 0.00 | 0.39 | 0.00 | 97 | 1016.3 |
| 20260831133608 | 69 | 188 | 0.0 | 0.0 | 0.00 | 0.39 | 0.00 | 97 | 1016.3 |
| 20260831133503 | 69 | 188 | 0.0 | 0.0 | 0.00 | 0.39 | 0.00 | 97 | 1016.3 |
| 20260831133358 | 69 | 188 | 0.0 | 0.0 | 0.00 | 0.41 | 0.00 | 96 | 1016.3 |
| 20260831133251 | 69 | 187 | 0.0 | 0.0 | 0.00 | 0.41 | 0.00 | 97 | 1016.3 |
| 20260831133146 | 69 | 187 | 0.0 | 0.0 | 0.00 | 0.41 | 0.00 | 97 | 1016.3 |
| 20260831133058 | 69 | 192 | 0.0 | 0.0 | 0.00 | 0.41 | 0.00 | 97 | 1016.3 |
| 20260831133040 | 69 | 188 | 0.0 | 0.0 | 0.00 | 0.41 | 0.00 | 97 | 1016.3 |
| 20260831132934 | 69 | 192 | 0.0 | 0.0 | 0.00 | 0.41 | 0.00 | 97 | 1016.6 |
| 20260831132829 | 68 | 192 | 0.0 | 0.0 | 0.00 | 0.41 | 0.00 | 97 | 1016.6 |
| 20260831132723 | 68 | 192 | 0.0 | 0.0 | 0.00 | 0.43 | 0.00 | 97 | 1016.3 |
| 20260831132618 | 68 | 191 | 0.0 | 0.0 | 0.00 | 0.43 | 0.00 | 97 | 1016.6 |
| 20260831132551 | 68 | 189 | 0.0 | 0.0 | 0.00 | 0.43 | 0.00 | 97 | 1016.6 |
| 20260831132512 | 68 | 195 | 0.0 | 0.0 | 0.00 | 0.43 | 0.00 | 97 | 1016.6 |
| 20260831132405 | 68 | 195 | 0.0 | 0.0 | 0.00 | 0.44 | 0.00 | 97 | 1016.6 |
| 20260831132300 | 68 | 195 | 0.0 | 2.0 | 0.00 | 0.44 | 0.00 | 97 | 1016.3 |
| 20260831132155 | 68 | 195 | 0.0 | 2.0 | 0.00 | 0.45 | 0.00 | 97 | 1016.3 |
| 20260831132049 | 68 | 196 | 0.0 | 2.0 | 0.00 | 0.45 | 0.00 | 97 | 1016.6 |
| 20260831131944 | 68 | 191 | 0.0 | 2.0 | 0.00 | 0.45 | 0.00 | 97 | 1016.3 |
| 20260831131837 | 68 | 188 | 0.0 | 2.0 | 0.00 | 0.46 | 0.00 | 97 | 1016.3 |
| 20260831131732 | 68 | 188 | 0.0 | 2.0 | 0.00 | 0.47 | 0.00 | 97 | 1016.3 |
| 20260831131626 | 68 | 193 | 0.0 | 2.0 | 0.00 | 0.47 | 0.00 | 97 | 1016.3 |
| 20260831131537 | 68 | 203 | 0.0 | 2.0 | 0.00 | 0.47 | 0.00 | 97 | 1016.3 |
| 20260831131533 | 68 | 207 | 0.0 | 2.0 | 0.00 | 0.48 | 0.00 | 97 | 1016.3 |
| 20260831131414 | 68 | 194 | 0.0 | 2.0 | 0.00 | 0.48 | 0.00 | 97 | 1016.3 |
| 20260831131310 | 68 | 194 | 0.0 | 2.0 | 0.00 | 0.49 | 0.00 | 97 | 1016.3 |
| 20260831131203 | 68 | 205 | 1.0 | 2.0 | 0.00 | 0.49 | 0.00 | 97 | 1016.3 |
| 20260831131057 | 68 | 207 | 1.0 | 2.0 | 0.00 | 0.50 | 0.00 | 97 | 1016.3 |
| 20260831131031 | 68 | 186 | 2.0 | 2.0 | 0.00 | 0.50 | 0.00 | 97 | 1016.3 |
| 20260831130951 | 68 | 199 | 2.0 | 2.0 | 0.00 | 0.50 | 0.00 | 97 | 1016.3 |
| 20260831130846 | 68 | 194 | 0.0 | 0.0 | 0.00 | 0.51 | 0.00 | 97 | 1016.3 |
| 20260831130741 | 68 | 192 | 0.0 | 0.0 | 0.00 | 0.52 | 0.00 | 97 | 1015.9 |
| 20260831130635 | 68 | 195 | 0.0 | 0.0 | 0.00 | 0.52 | 0.00 | 97 | 1016.3 |
| 20260831130528 | 68 | 191 | 0.0 | 0.0 | 0.00 | 0.52 | 0.00 | 97 | 1016.3 |
| 20260831130423 | 68 | 191 | 0.0 | 0.0 | 0.00 | 0.52 | 0.00 | 97 | 1015.9 |
| 20260831130318 | 68 | 189 | 0.0 | 0.0 | 0.00 | 0.54 | 0.00 | 97 | 1016.3 |
| 20260831130211 | 68 | 191 | 0.0 | 0.0 | 0.00 | 0.54 | 0.00 | 97 | 1016.3 |
| 20260831130113 | 68 | 189 | 0.0 | 0.0 | 0.00 | 0.54 | 0.00 | 97 | 1016.3 |
| 20260831130017 | 68 | 187 | 0.0 | 0.0 | 0.00 | 0.54 | 0.00 | 97 | 1016.3 |
| 20260831125959 | 68 | 187 | 0.0 | 0.0 | 0.00 | 0.54 | 0.00 | 97 | 1016.3 |
| 20260831125854 | 68 | 185 | 0.0 | 0.0 | 0.00 | 0.56 | 0.00 | 97 | 1016.3 |
| 20260831125748 | 68 | 185 | 0.0 | 0.0 | 0.00 | 0.56 | 0.00 | 97 | 1016.3 |
| 20260831125739 | 68 | 185 | 0.0 | 0.0 | 0.00 | 0.57 | 0.00 | 97 | 1015.9 |
| 20260831125731 | 68 | 185 | 0.0 | 0.0 | 0.00 | 0.57 | 0.00 | 97 | 1016.3 |
| 20260831125431 | 68 | 185 | 0.0 | 0.0 | 0.00 | 0.57 | 0.00 | 97 | 1016.3 |
| 20260831125326 | 68 | 185 | 0.0 | 0.0 | 0.00 | 0.58 | 0.00 | 97 | 1016.3 |
| 20260831125219 | 68 | 185 | 0.0 | 0.0 | 0.00 | 0.58 | 0.00 | 97 | 1016.3 |
| 20260831125114 | 68 | 185 | 0.0 | 0.0 | 0.00 | 0.59 | 0.00 | 97 | 1016.3 |
| 20260831125008 | 68 | 185 | 0.0 | 0.0 | 0.00 | 0.59 | 0.00 | 97 | 1016.3 |
| 20260831124902 | 68 | 177 | 0.0 | 0.0 | 0.00 | 0.60 | 0.00 | 97 | 1016.3 |
| 20260831124758 | 68 | 171 | 0.0 | 0.0 | 0.00 | 0.60 | 0.00 | 97 | 1015.9 |
| 20260831124652 | 68 | 171 | 0.0 | 0.0 | 0.00 | 0.60 | 0.00 | 97 | 1015.9 |
| 20260831124547 | 68 | 171 | 0.0 | 0.0 | 0.00 | 0.61 | 0.00 | 97 | 1016.3 |
| 20260831124459 | 68 | 166 | 0.0 | 0.0 | 0.00 | 0.61 | 0.00 | 97 | 1015.9 |
| 20260831124441 | 68 | 161 | 0.0 | 0.0 | 0.00 | 0.61 | 0.00 | 97 | 1015.9 |
| 20260831124336 | 68 | 161 | 0.0 | 0.0 | 0.00 | 0.61 | 0.00 | 97 | 1016.3 |
| 20260831124235 | 68 | 161 | 0.0 | 0.0 | 0.00 | 0.63 | 0.00 | 97 | 1016.3 |
| 20260831124231 | 68 | 161 | 0.0 | 0.0 | 0.00 | 0.62 | 0.00 | 97 | 1016.3 |
| 20260831124223 | 68 | 161 | 0.0 | 0.0 | 0.00 | 0.62 | 0.00 | 97 | 1016.3 |
| 20260831124214 | 68 | 161 | 0.0 | 0.0 | 0.00 | 0.63 | 0.00 | 97 | 1016.3 |
| 20260831123912 | 68 | 161 | 0.0 | 0.0 | 0.00 | 0.63 | 0.00 | 97 | 1016.3 |
| 20260831123807 | 68 | 161 | 0.0 | 0.0 | 0.00 | 0.63 | 0.00 | 97 | 1016.3 |
| 20260831123702 | 68 | 161 | 0.0 | 0.0 | 0.00 | 0.64 | 0.00 | 97 | 1016.3 |
| 20260831123556 | 68 | 161 | 0.0 | 0.0 | 0.00 | 0.64 | 0.00 | 97 | 1015.9 |
| 20260831123450 | 68 | 161 | 0.0 | 0.0 | 0.00 | 0.64 | 0.00 | 97 | 1016.3 |
| 20260831123345 | 68 | 161 | 0.0 | 0.0 | 0.00 | 0.64 | 0.00 | 97 | 1016.3 |
| 20260831123238 | 68 | 161 | 0.0 | 0.0 | 0.00 | 0.65 | 0.00 | 97 | 1015.9 |
| 20260831123133 | 68 | 161 | 0.0 | 0.0 | 0.00 | 0.65 | 0.00 | 97 | 1016.3 |
| 20260831123027 | 68 | 161 | 0.0 | 0.0 | 0.00 | 0.65 | 0.00 | 97 | 1015.9 |
| 20260831122939 | 67 | 161 | 0.0 | 0.0 | 0.00 | 0.65 | 0.00 | 97 | 1015.9 |
| 20260831122921 | 67 | 161 | 0.0 | 0.0 | 0.00 | 0.65 | 0.00 | 97 | 1016.3 |
| 20260831122816 | 67 | 161 | 0.0 | 0.0 | 0.00 | 0.65 | 0.00 | 97 | 1016.3 |
| 20260831122711 | 67 | 161 | 0.0 | 0.0 | 0.00 | 0.65 | 0.00 | 97 | 1016.3 |
| 20260831122604 | 67 | 161 | 0.0 | 0.0 | 0.00 | 0.65 | 0.00 | 97 | 1016.3 |
| 20260831122459 | 67 | 161 | 0.0 | 0.0 | 0.00 | 0.65 | 0.00 | 97 | 1016.3 |
| 20260831122432 | 67 | 161 | 0.0 | 0.0 | 0.00 | 0.65 | 0.00 | 97 | 1016.3 |
| 20260831122353 | 67 | 161 | 0.0 | 0.0 | 0.00 | 0.65 | 0.00 | 97 | 1016.3 |
| 20260831122247 | 67 | 161 | 0.0 | 0.0 | 0.00 | 0.65 | 0.00 | 97 | 1016.3 |
| 20260831122141 | 67 | 161 | 0.0 | 0.0 | 0.00 | 0.67 | 0.00 | 97 | 1016.3 |
| 20260831122036 | 67 | 161 | 0.0 | 0.0 | 0.00 | 0.67 | 0.00 | 97 | 1016.3 |
| 20260831121930 | 67 | 161 | 0.0 | 0.0 | 0.00 | 0.67 | 0.00 | 97 | 1016.3 |
| 20260831121824 | 67 | 161 | 0.0 | 0.0 | 0.00 | 0.68 | 0.00 | 97 | 1016.3 |
| 20260831121719 | 67 | 161 | 0.0 | 0.0 | 0.00 | 0.68 | 0.00 | 97 | 1016.3 |
| 20260831121613 | 67 | 161 | 0.0 | 0.0 | 0.00 | 0.69 | 0.00 | 97 | 1015.9 |
| 20260831121507 | 67 | 161 | 0.0 | 0.0 | 0.00 | 0.69 | 0.00 | 97 | 1016.3 |
| 20260831121419 | 67 | 161 | 0.0 | 0.0 | 0.00 | 0.69 | 0.00 | 97 | 1015.9 |
| 20260831121402 | 67 | 161 | 0.0 | 0.0 | 0.00 | 0.69 | 0.00 | 97 | 1015.9 |
| 20260831121256 | 67 | 161 | 0.0 | 0.0 | 0.00 | 0.69 | 0.00 | 97 | 1016.3 |
| 20260831121150 | 67 | 161 | 0.0 | 0.0 | 0.00 | 0.69 | 0.00 | 97 | 1016.3 |
| 20260831121045 | 67 | 161 | 0.0 | 0.0 | 0.00 | 0.69 | 0.00 | 97 | 1016.3 |
| 20260831120938 | 67 | 161 | 0.0 | 0.0 | 0.00 | 0.70 | 0.00 | 97 | 1016.3 |
| 20260831120912 | 67 | 161 | 0.0 | 0.0 | 0.00 | 0.70 | 0.00 | 97 | 1015.9 |
| 20260831120833 | 67 | 161 | 0.0 | 0.0 | 0.00 | 0.70 | 0.00 | 97 | 1016.3 |
| 20260831120740 | 67 | 161 | 0.0 | 0.0 | 0.00 | 0.70 | 0.00 | 97 | 1016.3 |
| 20260831120622 | 67 | 161 | 0.0 | 0.0 | 0.00 | 0.70 | 0.00 | 97 | 1016.3 |
| 20260831120516 | 67 | 161 | 0.0 | 0.0 | 0.00 | 0.70 | 0.00 | 97 | 1016.3 |
| 20260831120410 | 67 | 161 | 0.0 | 0.0 | 0.00 | 0.70 | 0.00 | 97 | 1016.3 |
| 20260831120304 | 67 | 161 | 0.0 | 0.0 | 0.00 | 0.70 | 0.00 | 97 | 1016.3 |
| 20260831120156 | 67 | 161 | 0.0 | 0.0 | 0.00 | 0.71 | 0.00 | 97 | 1016.3 |
| 20260831120104 | 67 | 161 | 0.0 | 0.0 | 0.00 | 0.71 | 0.00 | 97 | 1016.3 |
| 20260831115945 | 67 | 161 | 0.0 | 0.0 | 0.00 | 0.71 | 0.00 | 97 | 1016.3 |
| 20260831115857 | 67 | 161 | 0.0 | 0.0 | 0.00 | 0.71 | 0.00 | 97 | 1015.9 |
| 20260831115840 | 67 | 161 | 0.0 | 0.0 | 0.00 | 0.72 | 0.00 | 97 | 1015.9 |
| 20260831115735 | 67 | 161 | 0.0 | 0.0 | 0.00 | 0.72 | 0.00 | 97 | 1015.9 |
| 20260831115629 | 67 | 161 | 0.0 | 0.0 | 0.00 | 0.72 | 0.00 | 97 | 1016.3 |
| 20260831115523 | 67 | 161 | 0.0 | 0.0 | 0.00 | 0.72 | 0.00 | 97 | 1016.3 |
| 20260831115417 | 67 | 161 | 0.0 | 0.0 | 0.00 | 0.72 | 0.00 | 97 | 1016.3 |
| 20260831115351 | 67 | 161 | 0.0 | 0.0 | 0.00 | 0.72 | 0.00 | 97 | 1016.3 |
| 20260831115311 | 67 | 161 | 0.0 | 0.0 | 0.00 | 0.72 | 0.00 | 97 | 1016.3 |
| 20260831115205 | 67 | 161 | 0.0 | 0.0 | 0.00 | 0.72 | 0.00 | 97 | 1015.9 |
| 20260831115100 | 67 | 161 | 0.0 | 0.0 | 0.00 | 0.72 | 0.00 | 97 | 1016.3 |
| 20260831114954 | 67 | 161 | 0.0 | 0.0 | 0.00 | 0.72 | 0.00 | 97 | 1016.6 |
| 20260831114848 | 67 | 161 | 0.0 | 0.0 | 0.00 | 0.72 | 0.00 | 97 | 1016.3 |
| 20260831114743 | 67 | 161 | 0.0 | 0.0 | 0.00 | 0.72 | 0.00 | 97 | 1016.3 |
| 20260831114635 | 67 | 161 | 0.0 | 0.0 | 0.00 | 0.72 | 0.00 | 97 | 1016.3 |
| 20260831114530 | 67 | 161 | 0.0 | 0.0 | 0.00 | 0.72 | 0.00 | 97 | 1016.3 |
| 20260831114424 | 67 | 161 | 0.0 | 0.0 | 0.00 | 0.72 | 0.00 | 97 | 1016.3 |
| 20260831114319 | 67 | 161 | 0.0 | 0.0 | 0.00 | 0.72 | 0.00 | 97 | 1016.3 |
| 20260831114212 | 67 | 161 | 0.0 | 0.0 | 0.00 | 0.72 | 0.00 | 97 | 1016.3 |
| 20260831114107 | 67 | 160 | 0.0 | 0.0 | 0.00 | 0.72 | 0.00 | 97 | 1016.3 |
| 20260831114002 | 67 | 160 | 0.0 | 0.0 | 0.00 | 0.72 | 0.00 | 97 | 1016.6 |
| 20260831113829 | 67 | 160 | 0.0 | 0.0 | 0.00 | 0.72 | 0.00 | 97 | 1016.3 |
| 20260831113750 | 67 | 160 | 0.0 | 0.0 | 0.00 | 0.72 | 0.00 | 97 | 1016.3 |
| 20260831113644 | 67 | 160 | 0.0 | 0.0 | 0.00 | 0.72 | 0.00 | 97 | 1016.6 |
| 20260831113538 | 67 | 160 | 0.0 | 0.0 | 0.00 | 0.72 | 0.00 | 97 | 1016.3 |
| 20260831113433 | 67 | 160 | 0.0 | 0.0 | 0.00 | 0.72 | 0.00 | 97 | 1016.3 |
| 20260831113327 | 67 | 160 | 0.0 | 0.0 | 0.00 | 0.72 | 0.00 | 97 | 1016.3 |
| 20260831113222 | 67 | 160 | 0.0 | 0.0 | 0.00 | 0.72 | 0.00 | 97 | 1016.3 |
| 20260831113115 | 67 | 160 | 0.0 | 0.0 | 0.00 | 0.72 | 0.00 | 97 | 1016.3 |
| 20260831113021 | 67 | 160 | 0.0 | 0.0 | 0.00 | 0.72 | 0.00 | 97 | 1016.3 |
| 20260831112903 | 67 | 160 | 0.0 | 0.0 | 0.00 | 0.72 | 0.00 | 97 | 1016.3 |
| 20260831112815 | 67 | 160 | 0.0 | 0.0 | 0.00 | 0.72 | 0.00 | 97 | 1016.3 |
| 20260831112757 | 67 | 160 | 0.0 | 0.0 | 0.00 | 0.72 | 0.00 | 97 | 1016.3 |
| 20260831112652 | 67 | 160 | 0.0 | 0.0 | 0.00 | 0.72 | 0.00 | 97 | 1016.3 |
| 20260831112559 | 67 | 160 | 0.0 | 0.0 | 0.00 | 0.72 | 0.00 | 97 | 1016.3 |
| 20260831112440 | 67 | 160 | 0.0 | 0.0 | 0.00 | 0.72 | 0.00 | 97 | 1016.6 |
| 20260831112335 | 67 | 160 | 0.0 | 0.0 | 0.00 | 0.72 | 0.00 | 97 | 1016.3 |
| 20260831112308 | 67 | 160 | 0.0 | 0.0 | 0.00 | 0.72 | 0.00 | 97 | 1016.3 |
| 20260831112229 | 67 | 160 | 0.0 | 0.0 | 0.00 | 0.72 | 0.00 | 97 | 1016.3 |
| 20260831112123 | 67 | 160 | 0.0 | 0.0 | 0.00 | 0.72 | 0.00 | 97 | 1016.3 |
| 20260831112018 | 67 | 160 | 0.0 | 0.0 | 0.00 | 0.72 | 0.00 | 97 | 1016.3 |
| 20260831111912 | 67 | 160 | 0.0 | 0.0 | 0.00 | 0.72 | 0.00 | 97 | 1016.3 |
| 20260831111805 | 67 | 160 | 0.0 | 0.0 | 0.00 | 0.72 | 0.00 | 97 | 1016.3 |
| 20260831111700 | 67 | 160 | 0.0 | 0.0 | 0.00 | 0.72 | 0.00 | 97 | 1016.3 |
| 20260831111555 | 67 | 160 | 0.0 | 0.0 | 0.00 | 0.72 | 0.00 | 97 | 1016.3 |
| 20260831111448 | 67 | 160 | 0.0 | 0.0 | 0.00 | 0.72 | 0.00 | 97 | 1016.3 |
| 20260831111356 | 67 | 160 | 0.0 | 0.0 | 0.00 | 0.72 | 0.00 | 97 | 1016.3 |
| 20260831111238 | 67 | 160 | 0.0 | 0.0 | 0.00 | 0.72 | 0.00 | 97 | 1016.6 |
| 20260831111132 | 67 | 160 | 0.0 | 0.0 | 0.00 | 0.72 | 0.00 | 97 | 1016.3 |
| 20260831111026 | 67 | 160 | 0.0 | 0.0 | 0.00 | 0.72 | 0.00 | 97 | 1016.3 |
| 20260831110920 | 67 | 160 | 0.0 | 0.0 | 0.00 | 0.72 | 0.00 | 97 | 1016.3 |
| 20260831110814 | 67 | 160 | 0.0 | 0.0 | 0.00 | 0.72 | 0.00 | 97 | 1016.3 |
| 20260831110749 | 67 | 160 | 0.0 | 0.0 | 0.00 | 0.72 | 0.00 | 97 | 1016.3 |
| 20260831110709 | 67 | 160 | 0.0 | 0.0 | 0.00 | 0.72 | 0.00 | 97 | 1016.6 |
| 20260831110603 | 66 | 160 | 0.0 | 0.0 | 0.00 | 0.72 | 0.00 | 97 | 1016.6 |
| 20260831110457 | 66 | 160 | 0.0 | 0.0 | 0.00 | 0.72 | 0.00 | 97 | 1016.3 |
| 20260831110352 | 66 | 160 | 0.0 | 0.0 | 0.00 | 0.72 | 0.00 | 97 | 1016.3 |
| 20260831110246 | 66 | 160 | 0.0 | 0.0 | 0.00 | 0.72 | 0.00 | 97 | 1016.3 |
| 20260831110140 | 66 | 160 | 0.0 | 0.0 | 0.00 | 0.72 | 0.00 | 97 | 1016.6 |
| 20260831110035 | 66 | 160 | 0.0 | 0.0 | 0.00 | 0.72 | 0.00 | 97 | 1016.3 |
| 20260831105930 | 66 | 160 | 0.0 | 0.0 | 0.00 | 0.72 | 0.00 | 97 | 1016.3 |
| 20260831105823 | 66 | 160 | 0.0 | 0.0 | 0.00 | 0.72 | 0.00 | 97 | 1016.3 |
| 20260831105716 | 66 | 160 | 0.0 | 0.0 | 0.00 | 0.72 | 0.00 | 97 | 1016.3 |
| 20260831105611 | 66 | 160 | 0.0 | 0.0 | 0.00 | 0.72 | 0.00 | 97 | 1016.3 |
| 20260831105506 | 66 | 160 | 0.0 | 0.0 | 0.00 | 0.72 | 0.00 | 97 | 1016.3 |
| 20260831105359 | 66 | 160 | 0.0 | 0.0 | 0.00 | 0.72 | 0.00 | 97 | 1016.3 |
| 20260831105229 | 66 | 160 | 0.0 | 0.0 | 0.00 | 0.72 | 0.00 | 97 | 1016.3 |
| 20260831105148 | 66 | 160 | 0.0 | 0.0 | 0.00 | 0.72 | 0.00 | 97 | 1016.3 |
| 20260831105042 | 66 | 160 | 0.0 | 0.0 | 0.00 | 0.72 | 0.00 | 97 | 1016.3 |
| 20260831104937 | 66 | 160 | 0.0 | 0.0 | 0.00 | 0.72 | 0.00 | 97 | 1016.3 |
| 20260831104831 | 66 | 160 | 0.0 | 0.0 | 0.00 | 0.72 | 0.00 | 97 | 1016.3 |
| 20260831104724 | 66 | 160 | 0.0 | 0.0 | 0.00 | 0.72 | 0.00 | 97 | 1016.3 |
| 20260831104619 | 66 | 160 | 0.0 | 0.0 | 0.00 | 0.72 | 0.00 | 97 | 1016.3 |
| 20260831104514 | 66 | 160 | 0.0 | 0.0 | 0.00 | 0.72 | 0.00 | 97 | 1016.3 |
| 20260831104408 | 66 | 160 | 0.0 | 0.0 | 0.00 | 0.72 | 0.00 | 97 | 1016.3 |
| 20260831104302 | 66 | 160 | 0.0 | 0.0 | 0.00 | 0.72 | 0.00 | 97 | 1016.3 |
| 20260831104215 | 66 | 160 | 0.0 | 0.0 | 0.00 | 0.72 | 0.00 | 97 | 1016.3 |
| 20260831104157 | 66 | 160 | 0.0 | 0.0 | 0.00 | 0.72 | 0.00 | 97 | 1016.3 |
| 20260831104051 | 66 | 160 | 0.0 | 0.0 | 0.00 | 0.72 | 0.00 | 97 | 1016.3 |
| 20260831103945 | 66 | 160 | 0.0 | 0.0 | 0.00 | 0.73 | 0.00 | 97 | 1016.3 |
| 20260831103840 | 66 | 160 | 0.0 | 0.0 | 0.00 | 0.73 | 0.00 | 97 | 1016.3 |
| 20260831103708 | 66 | 160 | 0.0 | 0.0 | 0.00 | 0.73 | 0.00 | 97 | 1016.3 |
| 20260831103628 | 66 | 160 | 0.0 | 0.0 | 0.00 | 0.73 | 0.00 | 97 | 1016.3 |
| 20260831103522 | 66 | 160 | 0.0 | 0.0 | 0.00 | 0.73 | 0.00 | 97 | 1016.3 |
| 20260831103417 | 66 | 160 | 0.0 | 0.0 | 0.00 | 0.73 | 0.00 | 97 | 1015.9 |
| 20260831103311 | 66 | 160 | 0.0 | 0.0 | 0.00 | 0.73 | 0.00 | 97 | 1016.3 |
| 20260831103206 | 66 | 160 | 0.0 | 0.0 | 0.00 | 0.73 | 0.00 | 97 | 1016.3 |
| 20260831103100 | 66 | 160 | 0.0 | 0.0 | 0.00 | 0.73 | 0.00 | 97 | 1015.9 |
| 20260831102954 | 66 | 160 | 0.0 | 0.0 | 0.00 | 0.73 | 0.00 | 97 | 1015.9 |
| 20260831102848 | 66 | 160 | 0.0 | 0.0 | 0.00 | 0.73 | 0.00 | 97 | 1016.3 |
| 20260831102743 | 66 | 160 | 0.0 | 0.0 | 0.00 | 0.73 | 0.00 | 97 | 1016.3 |
| 20260831102637 | 66 | 160 | 0.0 | 0.0 | 0.00 | 0.73 | 0.00 | 97 | 1016.3 |
| 20260831102531 | 66 | 160 | 0.0 | 0.0 | 0.00 | 0.73 | 0.00 | 97 | 1016.3 |
| 20260831102426 | 66 | 160 | 0.0 | 0.0 | 0.00 | 0.73 | 0.00 | 97 | 1015.9 |
| 20260831102418 | 66 | 160 | 0.0 | 0.0 | 0.00 | 0.73 | 0.00 | 97 | 1016.3 |
| 20260831102414 | 66 | 160 | 0.0 | 0.0 | 0.00 | 0.73 | 0.00 | 97 | 1016.3 |
| 20260831102405 | 66 | 160 | 0.0 | 0.0 | 0.00 | 0.73 | 0.00 | 97 | 1016.3 |
| 20260831102108 | 66 | 160 | 0.0 | 0.0 | 0.00 | 0.73 | 0.00 | 97 | 1016.3 |
| 20260831102003 | 66 | 160 | 0.0 | 0.0 | 0.00 | 0.73 | 0.00 | 97 | 1016.3 |
| 20260831101856 | 66 | 160 | 0.0 | 0.0 | 0.00 | 0.73 | 0.00 | 97 | 1015.9 |
| 20260831101751 | 66 | 160 | 0.0 | 0.0 | 0.00 | 0.73 | 0.00 | 97 | 1015.9 |
| 20260831101645 | 66 | 160 | 0.0 | 0.0 | 0.00 | 0.73 | 0.00 | 97 | 1016.3 |
| 20260831101539 | 66 | 161 | 0.0 | 0.0 | 0.00 | 0.73 | 0.00 | 97 | 1016.3 |
| 20260831101434 | 66 | 161 | 0.0 | 0.0 | 0.00 | 0.73 | 0.00 | 97 | 1015.9 |
| 20260831101328 | 66 | 161 | 0.0 | 0.0 | 0.00 | 0.73 | 0.00 | 97 | 1016.3 |
| 20260831101224 | 66 | 161 | 0.0 | 0.0 | 0.00 | 0.73 | 0.00 | 97 | 1016.3 |
| 20260831101205 | 66 | 161 | 0.0 | 0.0 | 0.00 | 0.73 | 0.00 | 97 | 1015.9 |
| 20260831101159 | 66 | 161 | 0.0 | 0.0 | 0.00 | 0.73 | 0.00 | 97 | 1016.3 |
| 20260831101155 | 66 | 161 | 0.0 | 0.0 | 0.00 | 0.73 | 0.00 | 97 | 1015.9 |
| 20260831101146 | 66 | 161 | 0.0 | 0.0 | 0.00 | 0.73 | 0.00 | 97 | 1015.9 |
| 20260831100926 | 66 | 161 | 0.0 | 0.0 | 0.00 | 0.73 | 0.00 | 97 | 1016.3 |
| 20260831100918 | 66 | 161 | 0.0 | 0.0 | 0.00 | 0.73 | 0.00 | 97 | 1016.3 |
| 20260831100657 | 66 | 161 | 0.0 | 0.0 | 0.00 | 0.73 | 0.00 | 97 | 1016.3 |
| 20260831100647 | 66 | 161 | 0.0 | 0.0 | 0.00 | 0.73 | 0.00 | 97 | 1015.9 |
| 20260831100642 | 66 | 161 | 0.0 | 0.0 | 0.00 | 0.73 | 0.00 | 97 | 1015.9 |
| 20260831100634 | 66 | 161 | 0.0 | 0.0 | 0.00 | 0.73 | 0.00 | 97 | 1016.3 |
| 20260831100410 | 66 | 161 | 0.0 | 0.0 | 0.00 | 0.73 | 0.00 | 97 | 1015.9 |
| 20260831100401 | 66 | 161 | 0.0 | 0.0 | 0.00 | 0.73 | 0.00 | 97 | 1015.9 |
| 20260831100351 | 66 | 161 | 0.0 | 0.0 | 0.00 | 0.73 | 0.00 | 97 | 1015.9 |
| 20260831100019 | 66 | 161 | 0.0 | 0.0 | 0.00 | 0.73 | 0.00 | 97 | 1016.3 |
| 20260831095914 | 66 | 161 | 0.0 | 0.0 | 0.00 | 0.73 | 0.00 | 97 | 1016.3 |
| 20260831095809 | 66 | 161 | 0.0 | 0.0 | 0.00 | 0.73 | 0.00 | 97 | 1015.9 |
| 20260831095703 | 66 | 161 | 0.0 | 0.0 | 0.00 | 0.73 | 0.00 | 97 | 1015.9 |
| 20260831095615 | 66 | 161 | 0.0 | 0.0 | 0.00 | 0.73 | 0.00 | 97 | 1016.3 |
| 20260831095557 | 66 | 161 | 0.0 | 0.0 | 0.00 | 0.73 | 0.00 | 97 | 1016.3 |
| 20260831095452 | 66 | 161 | 0.0 | 0.0 | 0.00 | 0.73 | 0.00 | 97 | 1016.3 |
| 20260831095400 | 66 | 161 | 0.0 | 0.0 | 0.00 | 0.73 | 0.00 | 97 | 1016.3 |
| 20260831095346 | 66 | 161 | 0.0 | 0.0 | 0.00 | 0.73 | 0.00 | 97 | 1015.9 |
| 20260831095337 | 66 | 161 | 0.0 | 0.0 | 0.00 | 0.73 | 0.00 | 97 | 1015.9 |
| 20260831095039 | 66 | 161 | 0.0 | 0.0 | 0.00 | 0.73 | 0.00 | 97 | 1015.9 |
| 20260831094934 | 66 | 161 | 0.0 | 0.0 | 0.00 | 0.74 | 0.00 | 97 | 1015.9 |
| 20260831094848 | 66 | 161 | 0.0 | 0.0 | 0.00 | 0.74 | 0.00 | 97 | 1016.3 |
| 20260831094840 | 66 | 161 | 0.0 | 0.0 | 0.00 | 0.74 | 0.00 | 97 | 1015.9 |
| 20260831094829 | 66 | 161 | 0.0 | 0.0 | 0.00 | 0.74 | 0.00 | 97 | 1016.3 |
| 20260831094511 | 66 | 161 | 0.0 | 0.0 | 0.00 | 0.74 | 0.00 | 97 | 1015.9 |
| 20260831094405 | 66 | 161 | 0.0 | 0.0 | 0.00 | 0.74 | 0.00 | 97 | 1015.9 |
| 20260831094336 | 66 | 160 | 0.0 | 0.0 | 0.00 | 0.75 | 0.00 | 97 | 1015.6 |
| 20260831094332 | 66 | 160 | 0.0 | 0.0 | 0.00 | 0.74 | 0.00 | 97 | 1015.9 |
| 20260831094323 | 66 | 160 | 0.0 | 0.0 | 0.00 | 0.75 | 0.00 | 97 | 1015.9 |
| 20260831094047 | 66 | 160 | 0.0 | 0.0 | 0.00 | 0.75 | 0.00 | 97 | 1015.6 |
| 20260831093942 | 66 | 160 | 0.0 | 0.0 | 0.00 | 0.75 | 0.00 | 97 | 1015.9 |
| 20260831093837 | 66 | 159 | 0.0 | 0.0 | 0.00 | 0.75 | 0.00 | 97 | 1015.9 |
| 20260831093731 | 66 | 161 | 0.0 | 0.0 | 0.00 | 0.75 | 0.00 | 97 | 1015.9 |
| 20260831093625 | 66 | 161 | 0.0 | 0.0 | 0.00 | 0.75 | 0.00 | 97 | 1015.9 |
| 20260831093559 | 66 | 161 | 0.0 | 0.0 | 0.00 | 0.75 | 0.00 | 97 | 1015.9 |
| 20260831093520 | 66 | 161 | 0.0 | 0.0 | 0.00 | 0.75 | 0.00 | 97 | 1015.9 |
| 20260831093414 | 66 | 161 | 0.0 | 0.0 | 0.00 | 0.75 | 0.00 | 97 | 1015.9 |
| 20260831093308 | 66 | 161 | 0.0 | 0.0 | 0.00 | 0.75 | 0.00 | 97 | 1015.9 |
| 20260831093202 | 66 | 161 | 0.0 | 0.0 | 0.00 | 0.75 | 0.00 | 97 | 1015.9 |
| 20260831093056 | 66 | 161 | 0.0 | 0.0 | 0.00 | 0.75 | 0.00 | 97 | 1015.9 |
| 20260831092950 | 66 | 161 | 0.0 | 0.0 | 0.00 | 0.75 | 0.00 | 97 | 1015.9 |
| 20260831092845 | 66 | 161 | 0.0 | 0.0 | 0.00 | 0.75 | 0.00 | 97 | 1015.9 |
| 20260831092740 | 66 | 161 | 0.0 | 0.0 | 0.00 | 0.76 | 0.00 | 97 | 1015.9 |
| 20260831092646 | 66 | 161 | 0.0 | 0.0 | 0.00 | 0.76 | 0.00 | 97 | 1015.9 |
| 20260831092545 | 66 | 161 | 0.0 | 0.0 | 0.00 | 0.76 | 0.00 | 97 | 1015.9 |
| 20260831092528 | 66 | 161 | 0.0 | 0.0 | 0.00 | 0.76 | 0.00 | 97 | 1016.3 |
| 20260831092422 | 66 | 161 | 0.0 | 0.0 | 0.00 | 0.76 | 0.00 | 97 | 1016.3 |
| 20260831092316 | 66 | 161 | 0.0 | 0.0 | 0.00 | 0.76 | 0.00 | 97 | 1016.3 |
| 20260831092308 | 66 | 161 | 0.0 | 0.0 | 0.00 | 0.76 | 0.00 | 97 | 1016.3 |
| 20260831092259 | 66 | 161 | 0.0 | 0.0 | 0.00 | 0.76 | 0.00 | 97 | 1016.3 |
| 20260831091959 | 66 | 161 | 0.0 | 0.0 | 0.00 | 0.76 | 0.00 | 97 | 1015.9 |
| 20260831091854 | 66 | 161 | 0.0 | 0.0 | 0.00 | 0.76 | 0.00 | 97 | 1016.3 |
| 20260831091810 | 66 | 161 | 0.0 | 0.0 | 0.00 | 0.76 | 0.00 | 97 | 1015.9 |
| 20260831091801 | 66 | 161 | 0.0 | 0.0 | 0.00 | 0.76 | 0.00 | 97 | 1015.9 |
| 20260831091751 | 66 | 157 | 0.0 | 0.0 | 0.00 | 0.76 | 0.00 | 97 | 1016.3 |
| 20260831091431 | 66 | 157 | 0.0 | 0.0 | 0.00 | 0.76 | 0.00 | 97 | 1016.3 |
| 20260831091325 | 66 | 156 | 0.0 | 0.0 | 0.00 | 0.76 | 0.00 | 97 | 1015.9 |
| 20260831091220 | 66 | 156 | 0.0 | 0.0 | 0.00 | 0.76 | 0.00 | 97 | 1016.3 |
| 20260831091114 | 66 | 156 | 0.0 | 0.0 | 0.00 | 0.76 | 0.00 | 97 | 1016.3 |
| 20260831091025 | 66 | 156 | 0.0 | 0.0 | 0.00 | 0.76 | 0.00 | 97 | 1015.9 |
| 20260831091008 | 66 | 156 | 0.0 | 0.0 | 0.00 | 0.76 | 0.00 | 97 | 1015.9 |
| 20260831090903 | 66 | 156 | 0.0 | 0.0 | 0.00 | 0.76 | 0.00 | 97 | 1015.9 |
| 20260831090756 | 66 | 156 | 0.0 | 0.0 | 0.00 | 0.76 | 0.00 | 97 | 1015.9 |
| 20260831090651 | 66 | 156 | 0.0 | 0.0 | 0.00 | 0.76 | 0.00 | 97 | 1015.9 |
| 20260831090545 | 66 | 156 | 0.0 | 0.0 | 0.00 | 0.76 | 0.00 | 97 | 1016.3 |
| 20260831090519 | 66 | 156 | 0.0 | 0.0 | 0.00 | 0.76 | 0.00 | 97 | 1015.9 |
| 20260831090440 | 66 | 156 | 0.0 | 0.0 | 0.00 | 0.76 | 0.00 | 97 | 1015.9 |
| 20260831090334 | 66 | 156 | 0.0 | 0.0 | 0.00 | 0.76 | 0.00 | 97 | 1015.9 |
| 20260831090228 | 66 | 156 | 0.0 | 0.0 | 0.00 | 0.76 | 0.00 | 97 | 1016.3 |
| 20260831090124 | 66 | 156 | 0.0 | 0.0 | 0.00 | 0.76 | 0.00 | 97 | 1016.3 |
| 20260831090017 | 66 | 156 | 0.0 | 0.0 | 0.00 | 0.76 | 0.00 | 97 | 1016.3 |
| 20260831085909 | 66 | 156 | 0.0 | 0.0 | 0.00 | 0.77 | 0.00 | 97 | 1016.3 |
| 20260831085802 | 66 | 156 | 0.0 | 0.0 | 0.00 | 0.77 | 0.00 | 97 | 1016.3 |
| 20260831085656 | 66 | 156 | 0.0 | 0.0 | 0.00 | 0.77 | 0.00 | 97 | 1016.3 |
| 20260831085551 | 66 | 156 | 0.0 | 0.0 | 0.00 | 0.77 | 0.00 | 97 | 1016.3 |
| 20260831085513 | 66 | 156 | 0.0 | 0.0 | 0.00 | 0.77 | 0.00 | 97 | 1016.3 |
| 20260831085445 | 66 | 156 | 0.0 | 0.0 | 0.00 | 0.77 | 0.00 | 97 | 1016.3 |
| 20260831085328 | 66 | 156 | 0.0 | 0.0 | 0.00 | 0.77 | 0.00 | 97 | 1016.3 |
| 20260831085222 | 66 | 156 | 0.0 | 0.0 | 0.00 | 0.77 | 0.00 | 96 | 1016.3 |
| 20260831085117 | 66 | 156 | 0.0 | 0.0 | 0.00 | 0.77 | 0.00 | 96 | 1015.9 |
| 20260831085011 | 66 | 156 | 0.0 | 0.0 | 0.00 | 0.77 | 0.00 | 96 | 1016.3 |
| 20260831084956 | 66 | 156 | 0.0 | 0.0 | 0.00 | 0.77 | 0.00 | 96 | 1016.3 |
| 20260831084905 | 66 | 156 | 0.0 | 0.0 | 0.00 | 0.77 | 0.00 | 96 | 1016.3 |
| 20260831084800 | 66 | 156 | 0.0 | 0.0 | 0.00 | 0.77 | 0.00 | 96 | 1016.3 |
| 20260831084653 | 66 | 156 | 0.0 | 0.0 | 0.00 | 0.77 | 0.00 | 96 | 1016.3 |
| 20260831084548 | 66 | 156 | 0.0 | 0.0 | 0.00 | 0.77 | 0.00 | 96 | 1016.6 |
| 20260831084443 | 66 | 156 | 0.0 | 0.0 | 0.00 | 0.77 | 0.00 | 96 | 1016.3 |
| 20260831084336 | 66 | 153 | 0.0 | 0.0 | 0.00 | 0.77 | 0.00 | 96 | 1016.3 |
| 20260831084231 | 66 | 153 | 0.0 | 0.0 | 0.00 | 0.77 | 0.00 | 96 | 1016.3 |
| 20260831084125 | 66 | 154 | 0.0 | 0.0 | 0.00 | 0.77 | 0.00 | 96 | 1016.3 |
| 20260831084019 | 66 | 154 | 0.0 | 0.0 | 0.00 | 0.77 | 0.00 | 96 | 1016.3 |
| 20260831083914 | 66 | 154 | 0.0 | 0.0 | 0.00 | 0.77 | 0.00 | 96 | 1016.3 |
| 20260831083808 | 66 | 152 | 0.0 | 0.0 | 0.00 | 0.77 | 0.00 | 96 | 1015.9 |
| 20260831083702 | 66 | 153 | 0.0 | 0.0 | 0.00 | 0.77 | 0.00 | 96 | 1016.3 |
| 20260831083557 | 66 | 153 | 0.0 | 0.0 | 0.00 | 0.77 | 0.00 | 96 | 1016.3 |
| 20260831083435 | 66 | 152 | 0.0 | 0.0 | 0.00 | 0.78 | 0.00 | 96 | 1015.9 |
| 20260831083346 | 66 | 153 | 0.0 | 0.0 | 0.00 | 0.78 | 0.00 | 96 | 1015.9 |
| 20260831083239 | 66 | 153 | 0.0 | 0.0 | 0.00 | 0.78 | 0.00 | 96 | 1016.3 |
| 20260831083134 | 66 | 154 | 0.0 | 0.0 | 0.00 | 0.78 | 0.00 | 96 | 1015.9 |
| 20260831083028 | 66 | 153 | 0.0 | 0.0 | 0.00 | 0.78 | 0.00 | 96 | 1015.9 |
| 20260831082923 | 66 | 153 | 0.0 | 0.0 | 0.00 | 0.78 | 0.00 | 96 | 1015.9 |
| 20260831082816 | 66 | 153 | 0.0 | 0.0 | 0.00 | 0.78 | 0.00 | 96 | 1015.9 |
| 20260831082711 | 66 | 154 | 0.0 | 0.0 | 0.00 | 0.78 | 0.00 | 96 | 1015.9 |
| 20260831082606 | 66 | 154 | 0.0 | 0.0 | 0.00 | 0.78 | 0.00 | 96 | 1015.9 |
| 20260831082459 | 66 | 154 | 0.0 | 0.0 | 0.00 | 0.78 | 0.00 | 96 | 1015.9 |
| 20260831082423 | 66 | 154 | 0.0 | 0.0 | 0.00 | 0.78 | 0.00 | 96 | 1015.9 |
| 20260831082354 | 66 | 154 | 0.0 | 0.0 | 0.00 | 0.78 | 0.00 | 96 | 1015.9 |
| 20260831082248 | 66 | 153 | 0.0 | 0.0 | 0.00 | 0.78 | 0.00 | 96 | 1015.9 |
| 20260831082142 | 66 | 153 | 0.0 | 0.0 | 0.00 | 0.78 | 0.00 | 96 | 1015.6 |
| 20260831082036 | 66 | 153 | 0.0 | 0.0 | 0.00 | 0.78 | 0.00 | 96 | 1015.9 |
| 20260831081915 | 66 | 153 | 0.0 | 0.0 | 0.00 | 0.78 | 0.00 | 96 | 1015.6 |
| 20260831081825 | 66 | 153 | 0.0 | 0.0 | 0.00 | 0.78 | 0.00 | 96 | 1015.6 |
| 20260831081718 | 66 | 153 | 0.0 | 0.0 | 0.00 | 0.78 | 0.00 | 96 | 1015.9 |
| 20260831081613 | 66 | 153 | 0.0 | 0.0 | 0.00 | 0.78 | 0.00 | 96 | 1015.9 |
| 20260831081507 | 66 | 153 | 0.0 | 0.0 | 0.00 | 0.78 | 0.00 | 96 | 1015.9 |
| 20260831081407 | 66 | 153 | 0.0 | 0.0 | 0.00 | 0.78 | 0.00 | 96 | 1016.3 |
| 20260831081401 | 66 | 153 | 0.0 | 0.0 | 0.00 | 0.78 | 0.00 | 96 | 1016.3 |
| 20260831081256 | 66 | 152 | 0.0 | 0.0 | 0.00 | 0.78 | 0.00 | 96 | 1015.9 |
| 20260831081151 | 66 | 152 | 0.0 | 0.0 | 0.00 | 0.78 | 0.00 | 96 | 1015.9 |
| 20260831081044 | 66 | 152 | 0.0 | 0.0 | 0.00 | 0.78 | 0.00 | 96 | 1015.9 |
| 20260831080939 | 66 | 152 | 0.0 | 0.0 | 0.00 | 0.78 | 0.00 | 96 | 1015.6 |
| 20260831080901 | 66 | 152 | 0.0 | 0.0 | 0.00 | 0.78 | 0.00 | 96 | 1015.9 |
| 20260831080833 | 66 | 152 | 0.0 | 0.0 | 0.00 | 0.78 | 0.00 | 96 | 1015.9 |
| 20260831080728 | 66 | 152 | 0.0 | 0.0 | 0.00 | 0.78 | 0.00 | 96 | 1015.6 |
| 20260831080621 | 66 | 152 | 0.0 | 0.0 | 0.00 | 0.78 | 0.00 | 96 | 1015.9 |
| 20260831080516 | 66 | 152 | 0.0 | 0.0 | 0.00 | 0.78 | 0.00 | 96 | 1015.9 |
| 20260831080410 | 67 | 152 | 0.0 | 0.0 | 0.00 | 0.78 | 0.00 | 96 | 1015.9 |
| 20260831080354 | 67 | 152 | 0.0 | 0.0 | 0.00 | 0.78 | 0.00 | 96 | 1015.9 |
| 20260831080318 | 67 | 152 | 0.0 | 0.0 | 0.00 | 0.78 | 0.00 | 96 | 1015.9 |
| 20260831080158 | 67 | 152 | 0.0 | 0.0 | 0.00 | 0.78 | 0.00 | 96 | 1015.9 |
| 20260831080105 | 66 | 152 | 0.0 | 0.0 | 0.00 | 0.78 | 0.00 | 96 | 1015.9 |
| 20260831075946 | 66 | 152 | 0.0 | 0.0 | 0.00 | 0.78 | 0.00 | 96 | 1015.9 |
| 20260831075841 | 66 | 152 | 0.0 | 0.0 | 0.00 | 0.78 | 0.00 | 96 | 1015.9 |
| 20260831075735 | 66 | 152 | 0.0 | 0.0 | 0.00 | 0.78 | 0.00 | 96 | 1016.3 |
| 20260831075630 | 67 | 157 | 0.0 | 0.0 | 0.00 | 0.78 | 0.00 | 96 | 1016.3 |
| 20260831075524 | 67 | 157 | 0.0 | 0.0 | 0.00 | 0.78 | 0.00 | 96 | 1015.9 |
| 20260831075418 | 67 | 157 | 0.0 | 0.0 | 0.00 | 0.78 | 0.00 | 96 | 1015.9 |
| 20260831075312 | 67 | 157 | 0.0 | 0.0 | 0.00 | 0.78 | 0.00 | 96 | 1015.9 |
| 20260831075206 | 67 | 157 | 0.0 | 0.0 | 0.00 | 0.80 | 0.00 | 96 | 1015.9 |
| 20260831075101 | 67 | 157 | 0.0 | 0.0 | 0.00 | 0.80 | 0.00 | 96 | 1015.9 |
| 20260831074954 | 67 | 157 | 0.0 | 0.0 | 0.00 | 0.80 | 0.00 | 96 | 1016.3 |
| 20260831074834 | 67 | 157 | 0.0 | 0.0 | 0.00 | 0.80 | 0.00 | 96 | 1015.9 |
| 20260831074744 | 67 | 157 | 0.0 | 0.0 | 0.00 | 0.80 | 0.00 | 96 | 1015.9 |
| 20260831074636 | 67 | 157 | 0.0 | 0.0 | 0.00 | 0.80 | 0.00 | 96 | 1016.3 |
| 20260831074531 | 67 | 157 | 0.0 | 0.0 | 0.00 | 0.80 | 0.00 | 96 | 1015.9 |
| 20260831074424 | 67 | 157 | 0.0 | 0.0 | 0.00 | 0.80 | 0.00 | 96 | 1015.9 |
| 20260831074319 | 67 | 157 | 0.0 | 0.0 | 0.00 | 0.80 | 0.00 | 96 | 1015.9 |
| 20260831074214 | 67 | 157 | 0.0 | 0.0 | 0.00 | 0.80 | 0.00 | 96 | 1015.9 |
| 20260831074107 | 67 | 157 | 0.0 | 0.0 | 0.00 | 0.80 | 0.00 | 96 | 1015.9 |
| 20260831074002 | 67 | 157 | 0.0 | 0.0 | 0.00 | 0.80 | 0.00 | 96 | 1015.9 |
| 20260831073857 | 67 | 157 | 0.0 | 0.0 | 0.00 | 0.80 | 0.00 | 96 | 1015.9 |
| 20260831073819 | 67 | 157 | 0.0 | 0.0 | 0.00 | 0.80 | 0.00 | 96 | 1015.9 |
| 20260831073751 | 67 | 157 | 0.0 | 0.0 | 0.00 | 0.80 | 0.00 | 96 | 1015.9 |
| 20260831073644 | 67 | 157 | 0.0 | 0.0 | 0.00 | 0.80 | 0.00 | 96 | 1015.9 |
| 20260831073539 | 67 | 157 | 0.0 | 0.0 | 0.00 | 0.80 | 0.00 | 96 | 1015.9 |
| 20260831073433 | 67 | 157 | 0.0 | 0.0 | 0.00 | 0.80 | 0.00 | 96 | 1015.9 |
| 20260831073312 | 67 | 157 | 0.0 | 0.0 | 0.00 | 0.80 | 0.00 | 96 | 1015.6 |
| 20260831073222 | 67 | 157 | 0.0 | 0.0 | 0.00 | 0.80 | 0.00 | 96 | 1015.6 |
| 20260831073116 | 67 | 157 | 0.0 | 0.0 | 0.00 | 0.80 | 0.00 | 96 | 1015.9 |
| 20260831073011 | 67 | 157 | 0.0 | 0.0 | 0.00 | 0.80 | 0.00 | 96 | 1015.9 |
| 20260831072918 | 67 | 157 | 0.0 | 0.0 | 0.00 | 0.80 | 0.00 | 96 | 1015.9 |
| 20260831072806 | 67 | 157 | 0.0 | 0.0 | 0.00 | 0.80 | 0.00 | 96 | 1015.6 |
| 20260831072800 | 67 | 157 | 0.0 | 0.0 | 0.00 | 0.80 | 0.00 | 96 | 1015.6 |
| 20260831072653 | 67 | 144 | 0.0 | 0.0 | 0.00 | 0.80 | 0.00 | 96 | 1015.9 |
| 20260831072548 | 67 | 144 | 0.0 | 0.0 | 0.00 | 0.80 | 0.00 | 96 | 1016.3 |
| 20260831072442 | 67 | 144 | 0.0 | 0.0 | 0.00 | 0.80 | 0.00 | 96 | 1015.9 |
| 20260831072336 | 67 | 102 | 0.0 | 0.0 | 0.00 | 0.80 | 0.00 | 96 | 1015.9 |
| 20260831072258 | 67 | 102 | 0.0 | 0.0 | 0.00 | 0.80 | 0.00 | 96 | 1015.9 |
| 20260831072231 | 67 | 102 | 0.0 | 0.0 | 0.00 | 0.80 | 0.00 | 96 | 1016.3 |
| 20260831072125 | 67 | 102 | 0.0 | 0.0 | 0.00 | 0.80 | 0.00 | 96 | 1016.3 |
| 20260831072019 | 67 | 102 | 0.0 | 0.0 | 0.00 | 0.80 | 0.00 | 96 | 1016.3 |
| 20260831071914 | 67 | 102 | 0.0 | 0.0 | 0.00 | 0.80 | 0.00 | 96 | 1016.3 |
| 20260831071807 | 67 | 102 | 0.0 | 0.0 | 0.00 | 0.80 | 0.00 | 96 | 1016.3 |
| 20260831071752 | 67 | 102 | 0.0 | 0.0 | 0.00 | 0.80 | 0.00 | 96 | 1016.3 |
| 20260831071702 | 67 | 102 | 0.0 | 0.0 | 0.00 | 0.80 | 0.00 | 96 | 1015.9 |
| 20260831071556 | 67 | 102 | 0.0 | 0.0 | 0.00 | 0.80 | 0.00 | 96 | 1015.9 |
| 20260831071450 | 67 | 102 | 0.0 | 0.0 | 0.00 | 0.80 | 0.00 | 96 | 1015.9 |
| 20260831071345 | 67 | 102 | 0.0 | 0.0 | 0.00 | 0.80 | 0.00 | 96 | 1016.3 |
| 20260831071239 | 67 | 102 | 0.0 | 0.0 | 0.00 | 0.80 | 0.00 | 96 | 1016.3 |
| 20260831071135 | 67 | 102 | 0.0 | 0.0 | 0.00 | 0.80 | 0.00 | 96 | 1016.3 |
| 20260831071028 | 67 | 102 | 0.0 | 0.0 | 0.00 | 0.80 | 0.00 | 96 | 1016.3 |
| 20260831070922 | 67 | 102 | 0.0 | 0.0 | 0.00 | 0.80 | 0.00 | 96 | 1016.3 |
| 20260831070816 | 67 | 102 | 0.0 | 0.0 | 0.00 | 0.80 | 0.00 | 96 | 1016.3 |
| 20260831070711 | 67 | 102 | 0.0 | 0.0 | 0.00 | 0.80 | 0.00 | 96 | 1016.3 |
| 20260831070605 | 67 | 102 | 0.0 | 0.0 | 0.00 | 0.80 | 0.00 | 96 | 1016.3 |
| 20260831070459 | 67 | 102 | 0.0 | 0.0 | 0.00 | 0.80 | 0.00 | 96 | 1016.6 |
| 20260831070354 | 67 | 102 | 0.0 | 0.0 | 0.00 | 0.80 | 0.00 | 96 | 1016.3 |
| 20260831070232 | 67 | 102 | 0.0 | 0.0 | 0.00 | 0.80 | 0.00 | 96 | 1016.3 |
| 20260831070142 | 67 | 102 | 0.0 | 0.0 | 0.00 | 0.80 | 0.00 | 96 | 1016.3 |
| 20260831070037 | 67 | 102 | 0.0 | 0.0 | 0.00 | 0.80 | 0.00 | 96 | 1016.3 |
| 20260831065931 | 67 | 102 | 0.0 | 0.0 | 0.00 | 0.80 | 0.00 | 96 | 1016.3 |
| 20260831065825 | 67 | 102 | 0.0 | 0.0 | 0.00 | 0.80 | 0.00 | 96 | 1016.3 |
| 20260831065720 | 67 | 102 | 0.0 | 0.0 | 0.00 | 0.80 | 0.00 | 96 | 1016.3 |
| 20260831065613 | 67 | 102 | 0.0 | 0.0 | 0.00 | 0.80 | 0.00 | 96 | 1016.3 |
| 20260831065508 | 67 | 102 | 0.0 | 0.0 | 0.00 | 0.80 | 0.00 | 96 | 1015.9 |
| 20260831065405 | 67 | 102 | 0.0 | 0.0 | 0.00 | 0.80 | 0.00 | 96 | 1016.3 |
| 20260831065259 | 67 | 102 | 0.0 | 0.0 | 0.00 | 0.80 | 0.00 | 96 | 1016.6 |
| 20260831065221 | 67 | 102 | 0.0 | 0.0 | 0.00 | 0.80 | 0.00 | 96 | 1016.3 |
| 20260831065153 | 67 | 102 | 0.0 | 0.0 | 0.00 | 0.80 | 0.00 | 95 | 1016.3 |
| 20260831065047 | 67 | 102 | 0.0 | 0.0 | 0.00 | 0.80 | 0.00 | 96 | 1016.3 |
| 20260831064942 | 67 | 102 | 0.0 | 0.0 | 0.00 | 0.80 | 0.00 | 96 | 1016.6 |
| 20260831064837 | 67 | 102 | 0.0 | 0.0 | 0.00 | 0.80 | 0.00 | 95 | 1016.6 |
| 20260831064714 | 67 | 102 | 0.0 | 0.0 | 0.00 | 0.80 | 0.00 | 95 | 1016.3 |
| 20260831064625 | 67 | 102 | 0.0 | 0.0 | 0.00 | 0.80 | 0.00 | 95 | 1016.3 |
| 20260831064519 | 67 | 102 | 0.0 | 0.0 | 0.00 | 0.80 | 0.00 | 95 | 1016.6 |
| 20260831064414 | 67 | 102 | 0.0 | 0.0 | 0.00 | 0.80 | 0.00 | 95 | 1016.6 |
| 20260831064307 | 67 | 102 | 0.0 | 0.0 | 0.00 | 0.80 | 0.00 | 95 | 1016.6 |
| 20260831064208 | 67 | 102 | 0.0 | 0.0 | 0.00 | 0.80 | 0.00 | 95 | 1016.6 |
| 20260831064203 | 67 | 102 | 0.0 | 0.0 | 0.00 | 0.80 | 0.00 | 95 | 1016.6 |
| 20260831064056 | 67 | 102 | 0.0 | 0.0 | 0.00 | 0.80 | 0.00 | 95 | 1016.3 |
| 20260831063950 | 67 | 102 | 0.0 | 0.0 | 0.00 | 0.80 | 0.00 | 95 | 1016.6 |
| 20260831063845 | 67 | 102 | 0.0 | 0.0 | 0.00 | 0.80 | 0.00 | 95 | 1016.3 |
| 20260831063739 | 67 | 102 | 0.0 | 0.0 | 0.00 | 0.80 | 0.00 | 95 | 1016.3 |
| 20260831063701 | 67 | 102 | 0.0 | 0.0 | 0.00 | 0.80 | 0.00 | 95 | 1016.6 |
| 20260831063633 | 67 | 102 | 0.0 | 0.0 | 0.00 | 0.80 | 0.00 | 95 | 1016.3 |
| 20260831063529 | 67 | 102 | 0.0 | 0.0 | 0.00 | 0.80 | 0.00 | 95 | 1016.6 |
| 20260831063422 | 67 | 102 | 0.0 | 0.0 | 0.00 | 0.80 | 0.00 | 95 | 1016.6 |
| 20260831063316 | 67 | 102 | 0.0 | 0.0 | 0.00 | 0.80 | 0.00 | 95 | 1016.6 |
| 20260831063210 | 67 | 102 | 0.0 | 0.0 | 0.00 | 0.80 | 0.00 | 95 | 1016.6 |
| 20260831063154 | 67 | 102 | 0.0 | 0.0 | 0.00 | 0.80 | 0.00 | 95 | 1016.6 |
| 20260831063104 | 67 | 102 | 0.0 | 0.0 | 0.00 | 0.80 | 0.00 | 95 | 1016.3 |
| 20260831062958 | 67 | 102 | 0.0 | 0.0 | 0.00 | 0.80 | 0.00 | 95 | 1016.3 |
| 20260831062853 | 67 | 102 | 0.0 | 0.0 | 0.00 | 0.80 | 0.00 | 95 | 1016.6 |
| 20260831062748 | 67 | 102 | 0.0 | 0.0 | 0.00 | 0.80 | 0.00 | 95 | 1016.3 |
| 20260831062641 | 67 | 102 | 0.0 | 0.0 | 0.00 | 0.80 | 0.00 | 95 | 1016.3 |
| 20260831062536 | 67 | 102 | 0.0 | 0.0 | 0.00 | 0.80 | 0.00 | 95 | 1016.6 |
| 20260831062431 | 67 | 102 | 0.0 | 0.0 | 0.00 | 0.80 | 0.00 | 95 | 1016.6 |
| 20260831062324 | 67 | 102 | 0.0 | 0.0 | 0.00 | 0.80 | 0.00 | 95 | 1016.6 |
| 20260831062218 | 67 | 102 | 0.0 | 0.0 | 0.00 | 0.80 | 0.00 | 95 | 1016.6 |
| 20260831062114 | 67 | 102 | 0.0 | 0.0 | 0.00 | 0.80 | 0.00 | 95 | 1016.6 |
| 20260831062007 | 67 | 105 | 0.0 | 0.0 | 0.00 | 0.80 | 0.00 | 95 | 1016.6 |
| 20260831061901 | 67 | 109 | 0.0 | 0.0 | 0.00 | 0.80 | 0.00 | 95 | 1016.6 |
| 20260831061756 | 67 | 128 | 0.0 | 0.0 | 0.00 | 0.80 | 0.00 | 95 | 1016.6 |
| 20260831061650 | 67 | 142 | 0.0 | 0.0 | 0.00 | 0.80 | 0.00 | 95 | 1016.3 |
| 20260831061634 | 67 | 162 | 0.0 | 0.0 | 0.00 | 0.80 | 0.00 | 95 | 1016.3 |
| 20260831061544 | 67 | 166 | 0.0 | 0.0 | 0.00 | 0.80 | 0.00 | 95 | 1016.6 |
| 20260831061438 | 67 | 167 | 0.0 | 0.0 | 0.00 | 0.80 | 0.00 | 95 | 1016.6 |
| 20260831061345 | 67 | 168 | 0.0 | 0.0 | 0.00 | 0.80 | 0.00 | 95 | 1016.6 |
| 20260831061227 | 67 | 174 | 0.0 | 0.0 | 0.00 | 0.80 | 0.00 | 95 | 1016.6 |
| 20260831061121 | 67 | 174 | 0.0 | 0.0 | 0.00 | 0.80 | 0.00 | 95 | 1016.6 |
| 20260831061016 | 67 | 174 | 0.0 | 0.0 | 0.00 | 0.80 | 0.00 | 95 | 1016.3 |
| 20260831060911 | 67 | 174 | 0.0 | 0.0 | 0.00 | 0.80 | 0.00 | 95 | 1016.6 |
| 20260831060804 | 67 | 179 | 0.0 | 0.0 | 0.00 | 0.80 | 0.00 | 95 | 1016.6 |
| 20260831060659 | 67 | 189 | 0.0 | 0.0 | 0.00 | 0.80 | 0.00 | 95 | 1016.6 |
| 20260831060620 | 67 | 189 | 0.0 | 0.0 | 0.00 | 0.80 | 0.00 | 95 | 1016.3 |
| 20260831060605 | 67 | 189 | 0.0 | 0.0 | 0.00 | 0.80 | 0.00 | 95 | 1016.3 |
| 20260831060447 | 67 | 189 | 0.0 | 0.0 | 0.00 | 0.80 | 0.00 | 95 | 1016.6 |
| 20260831060341 | 67 | 189 | 0.0 | 0.0 | 0.00 | 0.80 | 0.00 | 95 | 1016.6 |
| 20260831060236 | 67 | 190 | 0.0 | 0.0 | 0.00 | 0.80 | 0.00 | 95 | 1016.6 |
| 20260831060114 | 67 | 189 | 0.0 | 0.0 | 0.00 | 0.80 | 0.00 | 95 | 1016.6 |
| 20260831060023 | 67 | 189 | 0.0 | 0.0 | 0.00 | 0.80 | 0.00 | 95 | 1016.3 |
| 20260831055915 | 67 | 189 | 0.0 | 0.0 | 0.00 | 0.80 | 0.00 | 95 | 1016.6 |
| 20260831055808 | 67 | 189 | 0.0 | 0.0 | 0.00 | 0.80 | 0.00 | 95 | 1016.6 |
| 20260831055703 | 67 | 189 | 0.0 | 0.0 | 0.00 | 0.80 | 0.00 | 95 | 1016.6 |
| 20260831055615 | 67 | 189 | 0.0 | 0.0 | 0.00 | 0.80 | 0.00 | 95 | 1016.3 |
| 20260831055557 | 67 | 189 | 0.0 | 0.0 | 0.00 | 0.80 | 0.00 | 95 | 1016.3 |
| 20260831055452 | 68 | 189 | 0.0 | 0.0 | 0.00 | 0.80 | 0.00 | 95 | 1016.3 |
| 20260831055346 | 68 | 189 | 0.0 | 0.0 | 0.00 | 0.80 | 0.00 | 94 | 1016.6 |
| 20260831055240 | 68 | 184 | 0.0 | 0.0 | 0.00 | 0.80 | 0.00 | 94 | 1016.6 |
| 20260831055108 | 68 | 186 | 0.0 | 0.0 | 0.00 | 0.80 | 0.00 | 94 | 1016.3 |
| 20260831055029 | 68 | 186 | 0.0 | 0.0 | 0.00 | 0.80 | 0.00 | 94 | 1016.6 |
| 20260831054922 | 68 | 186 | 0.0 | 0.0 | 0.00 | 0.80 | 0.00 | 94 | 1016.6 |
| 20260831054817 | 68 | 186 | 0.0 | 0.0 | 0.00 | 0.80 | 0.00 | 94 | 1016.6 |
| 20260831054712 | 68 | 186 | 0.0 | 0.0 | 0.00 | 0.80 | 0.00 | 94 | 1016.6 |
| 20260831054606 | 68 | 186 | 0.0 | 0.0 | 0.00 | 0.80 | 0.00 | 94 | 1016.6 |
| 20260831054500 | 68 | 185 | 0.0 | 0.0 | 0.00 | 0.80 | 0.00 | 94 | 1016.6 |
| 20260831054354 | 68 | 185 | 0.0 | 0.0 | 0.00 | 0.80 | 0.00 | 94 | 1016.6 |
| 20260831054249 | 68 | 185 | 0.0 | 0.0 | 0.00 | 0.80 | 0.00 | 94 | 1016.6 |
| 20260831054143 | 68 | 185 | 0.0 | 0.0 | 0.00 | 0.80 | 0.00 | 94 | 1016.6 |
| 20260831054037 | 68 | 185 | 0.0 | 0.0 | 0.00 | 0.80 | 0.00 | 94 | 1016.6 |
| 20260831053931 | 68 | 185 | 0.0 | 0.0 | 0.00 | 0.80 | 0.00 | 94 | 1016.3 |
| 20260831053826 | 68 | 185 | 0.0 | 0.0 | 0.00 | 0.80 | 0.00 | 94 | 1016.6 |
| 20260831053720 | 68 | 185 | 0.0 | 0.0 | 0.00 | 0.80 | 0.00 | 94 | 1016.6 |
| 20260831053615 | 68 | 185 | 0.0 | 0.0 | 0.00 | 0.80 | 0.00 | 94 | 1016.6 |
| 20260831053548 | 68 | 185 | 0.0 | 0.0 | 0.00 | 0.80 | 0.00 | 94 | 1016.6 |
| 20260831053508 | 68 | 185 | 0.0 | 0.0 | 0.00 | 0.80 | 0.00 | 94 | 1016.6 |
| 20260831053403 | 68 | 185 | 0.0 | 0.0 | 0.00 | 0.80 | 0.00 | 94 | 1016.6 |
| 20260831053257 | 68 | 185 | 0.0 | 0.0 | 0.00 | 0.80 | 0.00 | 94 | 1016.9 |
| 20260831053151 | 68 | 185 | 0.0 | 0.0 | 0.00 | 0.80 | 0.00 | 94 | 1016.9 |
| 20260831053046 | 68 | 185 | 0.0 | 0.0 | 0.00 | 0.80 | 0.00 | 93 | 1016.6 |
| 20260831052939 | 68 | 185 | 0.0 | 0.0 | 0.00 | 0.80 | 0.00 | 93 | 1016.9 |
| 20260831052834 | 68 | 185 | 0.0 | 0.0 | 0.00 | 0.80 | 0.00 | 93 | 1016.9 |
| 20260831052729 | 68 | 185 | 0.0 | 0.0 | 0.00 | 0.80 | 0.00 | 93 | 1016.6 |
| 20260831052623 | 68 | 185 | 0.0 | 0.0 | 0.00 | 0.80 | 0.00 | 93 | 1016.6 |
| 20260831052530 | 68 | 185 | 0.0 | 0.0 | 0.00 | 0.80 | 0.00 | 93 | 1016.6 |
| 20260831052412 | 68 | 184 | 0.0 | 0.0 | 0.00 | 0.80 | 0.00 | 93 | 1016.6 |
| 20260831052307 | 68 | 184 | 0.0 | 0.0 | 0.00 | 0.80 | 0.00 | 93 | 1016.6 |
| 20260831052200 | 68 | 182 | 0.0 | 0.0 | 0.00 | 0.80 | 0.00 | 93 | 1016.9 |
| 20260831052028 | 68 | 182 | 0.0 | 0.0 | 0.00 | 0.80 | 0.00 | 93 | 1016.6 |
| 20260831051950 | 68 | 182 | 0.0 | 0.0 | 0.00 | 0.80 | 0.00 | 93 | 1016.6 |
| 20260831051856 | 68 | 182 | 0.0 | 0.0 | 0.00 | 0.80 | 0.00 | 93 | 1016.6 |
| 20260831051737 | 68 | 182 | 0.0 | 0.0 | 0.00 | 0.80 | 0.00 | 93 | 1016.6 |
| 20260831051630 | 68 | 180 | 0.0 | 0.0 | 0.00 | 0.80 | 0.00 | 93 | 1016.6 |
| 20260831051525 | 68 | 180 | 0.0 | 0.0 | 0.00 | 0.80 | 0.00 | 93 | 1016.6 |
| 20260831051419 | 68 | 180 | 0.0 | 0.0 | 0.00 | 0.80 | 0.00 | 93 | 1016.9 |
| 20260831051313 | 68 | 180 | 0.0 | 0.0 | 0.00 | 0.80 | 0.00 | 92 | 1016.9 |
| 20260831051221 | 68 | 180 | 0.0 | 0.0 | 0.00 | 0.80 | 0.00 | 92 | 1016.6 |
| 20260831051102 | 69 | 178 | 0.0 | 0.0 | 0.00 | 0.80 | 0.00 | 92 | 1016.6 |
| 20260831051014 | 69 | 168 | 0.0 | 0.0 | 0.00 | 0.80 | 0.00 | 92 | 1016.6 |
| 20260831050957 | 69 | 168 | 0.0 | 0.0 | 0.00 | 0.80 | 0.00 | 92 | 1016.6 |
| 20260831050850 | 69 | 168 | 0.0 | 0.0 | 0.00 | 0.80 | 0.00 | 92 | 1016.9 |
| 20260831050745 | 69 | 168 | 0.0 | 0.0 | 0.00 | 0.80 | 0.00 | 92 | 1016.6 |
| 20260831050640 | 69 | 168 | 0.0 | 0.0 | 0.00 | 0.80 | 0.00 | 92 | 1016.9 |
| 20260831050507 | 69 | 168 | 0.0 | 0.0 | 0.00 | 0.80 | 0.00 | 92 | 1016.6 |
| 20260831050441 | 69 | 168 | 0.0 | 0.0 | 0.00 | 0.80 | 0.00 | 92 | 1016.9 |
| 20260831050322 | 69 | 168 | 0.0 | 0.0 | 0.00 | 0.80 | 0.00 | 92 | 1016.9 |
| 20260831050216 | 69 | 179 | 0.0 | 0.0 | 0.00 | 0.80 | 0.00 | 92 | 1016.9 |
| 20260831050123 | 69 | 185 | 0.0 | 0.0 | 0.00 | 0.80 | 0.00 | 92 | 1016.6 |
| 20260831050005 | 69 | 185 | 0.0 | 0.0 | 0.00 | 0.80 | 0.00 | 92 | 1016.6 |
| 20260831045859 | 69 | 185 | 0.0 | 0.0 | 0.00 | 0.80 | 0.00 | 92 | 1016.6 |
| 20260831045754 | 69 | 185 | 0.0 | 0.0 | 0.00 | 0.80 | 0.00 | 92 | 1016.6 |
| 20260831045648 | 69 | 185 | 0.0 | 1.0 | 0.00 | 0.80 | 0.00 | 92 | 1016.9 |
| 20260831045542 | 69 | 185 | 0.0 | 2.0 | 0.00 | 0.80 | 0.00 | 92 | 1016.9 |
| 20260831045454 | 69 | 188 | 0.0 | 3.0 | 0.00 | 0.80 | 0.00 | 92 | 1016.9 |
| 20260831045436 | 69 | 189 | 0.0 | 3.0 | 0.00 | 0.80 | 0.00 | 92 | 1016.9 |
| 20260831045331 | 69 | 191 | 0.0 | 3.0 | 0.00 | 0.80 | 0.00 | 92 | 1016.9 |
| 20260831045229 | 69 | 188 | 0.0 | 3.0 | 0.00 | 0.80 | 0.00 | 92 | 1016.9 |
| 20260831045225 | 69 | 190 | 0.0 | 3.0 | 0.00 | 0.80 | 0.00 | 92 | 1016.6 |
| 20260831045217 | 69 | 188 | 0.0 | 3.0 | 0.00 | 0.80 | 0.00 | 92 | 1016.9 |
| 20260831045208 | 69 | 181 | 0.0 | 3.0 | 0.00 | 0.80 | 0.00 | 92 | 1016.9 |
| 20260831044907 | 69 | 188 | 0.0 | 3.0 | 0.00 | 0.80 | 0.00 | 92 | 1016.9 |
| 20260831044802 | 69 | 190 | 0.0 | 3.0 | 0.00 | 0.80 | 0.00 | 92 | 1016.9 |
| 20260831044656 | 69 | 187 | 1.0 | 3.0 | 0.00 | 0.80 | 0.00 | 92 | 1016.6 |
| 20260831044551 | 69 | 184 | 1.0 | 3.0 | 0.00 | 0.80 | 0.00 | 92 | 1016.6 |
| 20260831044445 | 69 | 180 | 2.0 | 3.0 | 0.00 | 0.80 | 0.00 | 92 | 1016.6 |
| 20260831044339 | 69 | 182 | 1.0 | 3.0 | 0.00 | 0.80 | 0.00 | 92 | 1016.9 |
| 20260831044234 | 69 | 207 | 1.0 | 3.0 | 0.00 | 0.80 | 0.00 | 92 | 1016.9 |
| 20260831044128 | 69 | 204 | 2.0 | 3.0 | 0.00 | 0.80 | 0.00 | 92 | 1016.6 |
| 20260831044022 | 69 | 164 | 2.0 | 3.0 | 0.00 | 0.80 | 0.00 | 92 | 1016.9 |
| 20260831043933 | 69 | 202 | 2.0 | 3.0 | 0.00 | 0.80 | 0.00 | 92 | 1016.9 |
| 20260831043917 | 69 | 180 | 3.0 | 3.0 | 0.00 | 0.80 | 0.00 | 92 | 1016.9 |
| 20260831043811 | 69 | 196 | 2.0 | 3.0 | 0.00 | 0.80 | 0.00 | 92 | 1016.9 |
| 20260831043705 | 69 | 182 | 3.0 | 3.0 | 0.00 | 0.80 | 0.00 | 92 | 1016.6 |
| 20260831043559 | 69 | 193 | 1.0 | 3.0 | 0.00 | 0.80 | 0.00 | 92 | 1016.9 |
| 20260831043454 | 69 | 200 | 2.0 | 3.0 | 0.00 | 0.80 | 0.00 | 92 | 1016.6 |
| 20260831043427 | 69 | 185 | 2.0 | 3.0 | 0.00 | 0.80 | 0.00 | 92 | 1016.9 |
| 20260831043348 | 69 | 204 | 1.0 | 4.0 | 0.00 | 0.80 | 0.00 | 92 | 1016.9 |
| 20260831043242 | 69 | 197 | 1.0 | 4.0 | 0.00 | 0.80 | 0.00 | 92 | 1016.6 |
| 20260831043136 | 69 | 187 | 2.0 | 4.0 | 0.00 | 0.80 | 0.00 | 92 | 1016.9 |
| 20260831043031 | 69 | 196 | 2.0 | 4.0 | 0.00 | 0.80 | 0.00 | 92 | 1016.9 |
| 20260831042925 | 69 | 206 | 2.0 | 4.0 | 0.00 | 0.80 | 0.00 | 91 | 1016.9 |
| 20260831042819 | 69 | 200 | 1.0 | 4.0 | 0.00 | 0.80 | 0.00 | 91 | 1016.6 |
| 20260831042714 | 69 | 213 | 2.0 | 4.0 | 0.00 | 0.80 | 0.00 | 91 | 1016.6 |
| 20260831042607 | 69 | 194 | 2.0 | 4.0 | 0.00 | 0.80 | 0.00 | 91 | 1016.9 |
| 20260831042502 | 69 | 189 | 2.0 | 4.0 | 0.00 | 0.80 | 0.00 | 92 | 1016.9 |
| 20260831042414 | 69 | 193 | 3.0 | 4.0 | 0.00 | 0.80 | 0.00 | 92 | 1016.6 |
| 20260831042356 | 69 | 206 | 2.0 | 4.0 | 0.00 | 0.80 | 0.00 | 92 | 1016.6 |
| 20260831042251 | 69 | 198 | 2.0 | 3.0 | 0.00 | 0.80 | 0.00 | 92 | 1016.9 |
| 20260831042145 | 69 | 198 | 2.0 | 3.0 | 0.00 | 0.80 | 0.00 | 92 | 1016.9 |
| 20260831042040 | 69 | 161 | 3.0 | 3.0 | 0.00 | 0.80 | 0.00 | 92 | 1016.9 |
| 20260831041933 | 69 | 211 | 2.0 | 3.0 | 0.00 | 0.80 | 0.00 | 92 | 1016.9 |
| 20260831041907 | 69 | 204 | 2.0 | 3.0 | 0.00 | 0.80 | 0.00 | 92 | 1016.9 |
| 20260831041827 | 69 | 187 | 3.0 | 3.0 | 0.00 | 0.80 | 0.00 | 92 | 1016.9 |
| 20260831041722 | 69 | 206 | 2.0 | 3.0 | 0.00 | 0.80 | 0.00 | 92 | 1016.6 |
| 20260831041616 | 69 | 200 | 2.0 | 3.0 | 0.00 | 0.80 | 0.00 | 92 | 1016.9 |
| 20260831041523 | 69 | 199 | 3.0 | 3.0 | 0.00 | 0.80 | 0.00 | 92 | 1016.9 |
| 20260831041404 | 69 | 203 | 1.0 | 2.0 | 0.00 | 0.80 | 0.00 | 91 | 1016.9 |
| 20260831041258 | 69 | 199 | 0.0 | 0.0 | 0.00 | 0.80 | 0.00 | 91 | 1016.9 |
| 20260831041153 | 69 | 204 | 0.0 | 0.0 | 0.00 | 0.80 | 0.00 | 91 | 1016.9 |
| 20260831041125 | 69 | 183 | 0.0 | 0.0 | 0.00 | 0.80 | 0.00 | 91 | 1016.6 |
| 20260831041120 | 69 | 199 | 0.0 | 0.0 | 0.00 | 0.80 | 0.00 | 91 | 1016.9 |
| 20260831041111 | 69 | 193 | 0.0 | 0.0 | 0.00 | 0.80 | 0.00 | 91 | 1016.6 |
| 20260831040835 | 69 | 183 | 0.0 | 0.0 | 0.00 | 0.80 | 0.00 | 91 | 1016.6 |
| 20260831040730 | 69 | 197 | 0.0 | 0.0 | 0.00 | 0.80 | 0.00 | 91 | 1016.9 |
| 20260831040625 | 69 | 190 | 0.0 | 0.0 | 0.00 | 0.80 | 0.00 | 91 | 1016.9 |
| 20260831040518 | 69 | 198 | 0.0 | 0.0 | 0.00 | 0.80 | 0.00 | 91 | 1016.6 |
| 20260831040413 | 68 | 184 | 0.0 | 0.0 | 0.00 | 0.80 | 0.00 | 92 | 1016.6 |
| 20260831040346 | 68 | 185 | 0.0 | 0.0 | 0.00 | 0.80 | 0.00 | 92 | 1016.6 |
| 20260831040307 | 68 | 188 | 0.0 | 0.0 | 0.00 | 0.80 | 0.00 | 92 | 1016.9 |
| 20260831040202 | 68 | 191 | 0.0 | 0.0 | 0.00 | 0.80 | 0.00 | 92 | 1016.9 |
| 20260831040108 | 68 | 191 | 0.0 | 0.0 | 0.00 | 0.80 | 0.00 | 92 | 1016.9 |
| 20260831035950 | 68 | 191 | 0.0 | 0.0 | 0.00 | 0.80 | 0.80 | 92 | 1016.9 |
| 20260831035844 | 68 | 190 | 0.0 | 0.0 | 0.00 | 0.80 | 0.80 | 92 | 1016.9 |
| 20260831035739 | 68 | 161 | 0.0 | 0.0 | 0.00 | 0.80 | 0.80 | 92 | 1016.9 |
| 20260831035633 | 68 | 210 | 0.0 | 0.0 | 0.00 | 0.80 | 0.80 | 92 | 1016.9 |
| 20260831035527 | 68 | 210 | 0.0 | 0.0 | 0.00 | 0.80 | 0.80 | 92 | 1016.9 |
| 20260831035422 | 68 | 210 | 0.0 | 0.0 | 0.00 | 0.80 | 0.80 | 92 | 1016.9 |
| 20260831035316 | 68 | 210 | 0.0 | 0.0 | 0.00 | 0.80 | 0.80 | 92 | 1016.9 |
| 20260831035210 | 68 | 210 | 0.0 | 0.0 | 0.00 | 0.80 | 0.80 | 92 | 1016.6 |
| 20260831035104 | 68 | 210 | 0.0 | 0.0 | 0.00 | 0.80 | 0.80 | 92 | 1016.9 |
| 20260831034959 | 68 | 210 | 0.0 | 0.0 | 0.00 | 0.80 | 0.80 | 92 | 1016.6 |
| 20260831034853 | 68 | 195 | 0.0 | 0.0 | 0.00 | 0.80 | 0.80 | 92 | 1016.6 |
| 20260831034826 | 68 | 185 | 0.0 | 0.0 | 0.00 | 0.80 | 0.80 | 92 | 1016.9 |
| 20260831034747 | 68 | 191 | 0.0 | 0.0 | 0.00 | 0.80 | 0.80 | 92 | 1016.9 |
| 20260831034642 | 68 | 208 | 0.0 | 0.0 | 0.00 | 0.80 | 0.80 | 92 | 1016.9 |
| 20260831034557 | 68 | 208 | 0.0 | 0.0 | 0.00 | 0.80 | 0.80 | 92 | 1016.9 |
| 20260831034549 | 68 | 184 | 0.0 | 0.0 | 0.00 | 0.80 | 0.80 | 92 | 1016.9 |
| 20260831034539 | 68 | 200 | 0.0 | 0.0 | 0.00 | 0.80 | 0.80 | 93 | 1016.9 |
| 20260831034218 | 68 | 205 | 0.0 | 0.0 | 0.00 | 0.80 | 0.80 | 93 | 1016.6 |
| 20260831034113 | 68 | 177 | 0.0 | 2.0 | 0.00 | 0.80 | 0.80 | 93 | 1016.6 |
| 20260831034045 | 67 | 204 | 0.0 | 4.0 | 0.00 | 0.80 | 0.80 | 93 | 1016.9 |
| 20260831034041 | 67 | 229 | 0.0 | 4.0 | 0.00 | 0.80 | 0.80 | 93 | 1016.9 |
| 20260831034033 | 67 | 206 | 0.0 | 4.0 | 0.00 | 0.80 | 0.80 | 93 | 1016.9 |
| 20260831033756 | 67 | 204 | 0.0 | 4.0 | 0.00 | 0.80 | 0.80 | 93 | 1016.9 |
| 20260831033651 | 67 | 199 | 0.0 | 4.0 | 0.00 | 0.80 | 0.80 | 93 | 1016.9 |
| 20260831033544 | 67 | 169 | 0.0 | 4.0 | 0.00 | 0.80 | 0.80 | 94 | 1016.9 |
| 20260831033438 | 67 | 175 | 0.0 | 4.0 | 0.00 | 0.80 | 0.80 | 94 | 1016.9 |
| 20260831033333 | 67 | 184 | 0.0 | 4.0 | 0.00 | 0.80 | 0.80 | 94 | 1016.9 |
| 20260831033307 | 67 | 210 | 0.0 | 4.0 | 0.00 | 0.80 | 0.80 | 94 | 1016.9 |
| 20260831033228 | 67 | 189 | 0.0 | 4.0 | 0.00 | 0.80 | 0.80 | 94 | 1016.9 |
| 20260831033122 | 67 | 202 | 2.0 | 4.0 | 0.00 | 0.80 | 0.80 | 94 | 1016.9 |
| 20260831033016 | 67 | 196 | 0.0 | 0.0 | 0.00 | 0.80 | 0.80 | 94 | 1016.9 |
| 20260831032910 | 67 | 203 | 0.0 | 0.0 | 0.00 | 0.80 | 0.80 | 95 | 1016.9 |
| 20260831032805 | 67 | 195 | 0.0 | 0.0 | 0.00 | 0.80 | 0.80 | 95 | 1016.9 |
| 20260831032658 | 67 | 195 | 0.0 | 0.0 | 0.00 | 0.80 | 0.80 | 95 | 1016.9 |
| 20260831032606 | 67 | 199 | 0.0 | 0.0 | 0.00 | 0.80 | 0.80 | 95 | 1016.9 |
| 20260831032526 | 67 | 183 | 0.0 | 0.0 | 0.00 | 0.80 | 0.80 | 95 | 1016.9 |
| 20260831032519 | 67 | 193 | 0.0 | 0.0 | 0.00 | 0.80 | 0.80 | 95 | 1016.6 |
| 20260831032511 | 67 | 183 | 0.0 | 0.0 | 0.00 | 0.80 | 0.80 | 95 | 1016.9 |
| 20260831032235 | 67 | 181 | 0.0 | 0.0 | 0.00 | 0.80 | 0.80 | 95 | 1016.9 |
| 20260831032130 | 67 | 181 | 0.0 | 0.0 | 0.00 | 0.80 | 0.80 | 95 | 1016.9 |
| 20260831032025 | 67 | 172 | 0.0 | 0.0 | 0.00 | 0.80 | 0.80 | 95 | 1016.9 |
| 20260831031919 | 67 | 172 | 0.0 | 0.0 | 0.00 | 0.80 | 0.80 | 95 | 1016.9 |
| 20260831031813 | 67 | 166 | 0.0 | 0.0 | 0.00 | 0.80 | 0.80 | 95 | 1016.9 |
| 20260831031747 | 67 | 166 | 0.0 | 0.0 | 0.00 | 0.80 | 0.80 | 95 | 1016.9 |
| 20260831031708 | 67 | 166 | 0.0 | 0.0 | 0.00 | 0.80 | 0.80 | 95 | 1017.3 |
| 20260831031601 | 67 | 166 | 0.0 | 0.0 | 0.00 | 0.80 | 0.80 | 95 | 1016.9 |
| 20260831031456 | 67 | 166 | 0.0 | 0.0 | 0.00 | 0.80 | 0.80 | 95 | 1016.9 |
| 20260831031351 | 67 | 166 | 0.0 | 0.0 | 0.00 | 0.80 | 0.80 | 95 | 1016.6 |
| 20260831031257 | 67 | 166 | 0.0 | 0.0 | 0.00 | 0.80 | 0.80 | 95 | 1016.6 |
| 20260831031138 | 67 | 166 | 0.0 | 0.0 | 0.00 | 0.80 | 0.80 | 95 | 1016.9 |
| 20260831031033 | 67 | 164 | 0.0 | 0.0 | 0.00 | 0.80 | 0.80 | 95 | 1016.9 |
| 20260831030928 | 67 | 161 | 0.0 | 0.0 | 0.00 | 0.80 | 0.80 | 95 | 1016.9 |
| 20260831030821 | 67 | 161 | 0.0 | 0.0 | 0.00 | 0.80 | 0.80 | 95 | 1016.9 |
| 20260831030715 | 67 | 161 | 0.0 | 0.0 | 0.00 | 0.80 | 0.80 | 95 | 1016.9 |
| 20260831030610 | 67 | 161 | 0.0 | 0.0 | 0.00 | 0.80 | 0.80 | 95 | 1016.6 |
| 20260831030517 | 67 | 161 | 0.0 | 0.0 | 0.00 | 0.80 | 0.80 | 95 | 1016.9 |
| 20260831030359 | 67 | 161 | 0.0 | 0.0 | 0.00 | 0.80 | 0.80 | 95 | 1016.9 |
| 20260831030226 | 67 | 161 | 0.0 | 0.0 | 0.00 | 0.80 | 0.80 | 95 | 1016.9 |
| 20260831030147 | 67 | 161 | 0.0 | 0.0 | 0.00 | 0.80 | 0.80 | 95 | 1016.9 |
| 20260831030042 | 67 | 160 | 0.0 | 0.0 | 0.00 | 0.80 | 0.80 | 95 | 1016.6 |
| 20260831025937 | 67 | 160 | 0.0 | 0.0 | 0.00 | 0.80 | 0.80 | 95 | 1016.6 |
| 20260831025827 | 67 | 160 | 0.0 | 0.0 | 0.00 | 0.80 | 0.80 | 95 | 1016.9 |
| 20260831025721 | 67 | 160 | 0.0 | 0.0 | 0.00 | 0.80 | 0.80 | 95 | 1016.9 |
| 20260831025615 | 67 | 160 | 0.0 | 0.0 | 0.00 | 0.80 | 0.80 | 95 | 1016.9 |
| 20260831025509 | 67 | 160 | 0.0 | 0.0 | 0.00 | 0.80 | 0.80 | 95 | 1016.9 |
| 20260831025404 | 67 | 160 | 0.0 | 0.0 | 0.00 | 0.80 | 0.80 | 95 | 1016.6 |
| 20260831025258 | 67 | 160 | 0.0 | 0.0 | 0.00 | 0.80 | 0.80 | 95 | 1016.9 |
| 20260831025221 | 67 | 160 | 0.0 | 0.0 | 0.00 | 0.80 | 0.80 | 95 | 1016.9 |
| 20260831025152 | 67 | 160 | 0.0 | 0.0 | 0.00 | 0.80 | 0.80 | 95 | 1016.9 |
| 20260831025047 | 67 | 160 | 0.0 | 0.0 | 0.00 | 0.80 | 0.80 | 95 | 1016.6 |
| 20260831024941 | 67 | 159 | 0.0 | 0.0 | 0.00 | 0.80 | 0.80 | 95 | 1016.6 |
| 20260831024835 | 67 | 159 | 0.0 | 0.0 | 0.00 | 0.80 | 0.80 | 95 | 1016.6 |
| 20260831024714 | 67 | 159 | 0.0 | 0.0 | 0.00 | 0.80 | 0.80 | 95 | 1016.9 |
| 20260831024624 | 67 | 159 | 0.0 | 0.0 | 0.00 | 0.80 | 0.80 | 95 | 1016.6 |
| 20260831024517 | 67 | 161 | 0.0 | 0.0 | 0.00 | 0.80 | 0.80 | 95 | 1016.9 |
| 20260831024441 | 67 | 161 | 0.0 | 0.0 | 0.00 | 0.80 | 0.80 | 95 | 1016.9 |
| 20260831024437 | 67 | 161 | 0.0 | 0.0 | 0.00 | 0.80 | 0.80 | 95 | 1016.9 |
| 20260831024429 | 67 | 161 | 0.0 | 0.0 | 0.00 | 0.80 | 0.80 | 95 | 1016.6 |
| 20260831024201 | 67 | 161 | 0.0 | 0.0 | 0.00 | 0.80 | 0.80 | 95 | 1016.9 |
| 20260831024055 | 67 | 161 | 0.0 | 0.0 | 0.00 | 0.80 | 0.80 | 95 | 1016.9 |
| 20260831023950 | 67 | 161 | 0.0 | 0.0 | 0.00 | 0.80 | 0.80 | 95 | 1016.6 |
| 20260831023844 | 67 | 161 | 0.0 | 0.0 | 0.00 | 0.80 | 0.80 | 95 | 1016.9 |
| 20260831023738 | 67 | 161 | 0.0 | 0.0 | 0.00 | 0.80 | 0.80 | 95 | 1016.9 |
| 20260831023701 | 67 | 161 | 0.0 | 0.0 | 0.00 | 0.80 | 0.80 | 95 | 1016.9 |
| 20260831023632 | 67 | 161 | 0.0 | 0.0 | 0.00 | 0.80 | 0.80 | 95 | 1016.6 |
| 20260831023527 | 67 | 161 | 0.0 | 0.0 | 0.00 | 0.80 | 0.80 | 95 | 1016.6 |
| 20260831023421 | 67 | 161 | 0.0 | 0.0 | 0.00 | 0.80 | 0.80 | 95 | 1016.6 |
| 20260831023315 | 67 | 161 | 0.0 | 0.0 | 0.00 | 0.80 | 0.80 | 95 | 1016.9 |
| 20260831023209 | 67 | 161 | 0.0 | 0.0 | 0.00 | 0.80 | 0.80 | 95 | 1016.6 |
| 20260831023154 | 67 | 161 | 0.0 | 0.0 | 0.00 | 0.80 | 0.80 | 95 | 1016.6 |
| 20260831023103 | 67 | 161 | 0.0 | 0.0 | 0.00 | 0.80 | 0.80 | 94 | 1016.6 |
| 20260831022958 | 67 | 161 | 0.0 | 0.0 | 0.00 | 0.80 | 0.80 | 94 | 1016.6 |
| 20260831022853 | 67 | 161 | 0.0 | 0.0 | 0.00 | 0.80 | 0.80 | 94 | 1016.9 |
| 20260831022746 | 67 | 161 | 0.0 | 0.0 | 0.00 | 0.80 | 0.80 | 94 | 1016.6 |
| 20260831022641 | 67 | 161 | 0.0 | 0.0 | 0.00 | 0.80 | 0.80 | 94 | 1016.6 |
| 20260831022535 | 67 | 161 | 0.0 | 0.0 | 0.00 | 0.80 | 0.80 | 94 | 1016.9 |
| 20260831022429 | 67 | 161 | 0.0 | 0.0 | 0.00 | 0.80 | 0.80 | 94 | 1016.6 |
| 20260831022324 | 67 | 161 | 0.0 | 0.0 | 0.00 | 0.80 | 0.80 | 94 | 1016.9 |
| 20260831022219 | 67 | 161 | 0.0 | 0.0 | 0.00 | 0.80 | 0.80 | 94 | 1016.6 |
| 20260831022113 | 67 | 161 | 0.0 | 0.0 | 0.00 | 0.80 | 0.80 | 94 | 1016.6 |
| 20260831022007 | 67 | 161 | 0.0 | 0.0 | 0.00 | 0.80 | 0.80 | 94 | 1016.9 |
| 20260831021901 | 67 | 161 | 0.0 | 0.0 | 0.00 | 0.80 | 0.80 | 94 | 1016.6 |
| 20260831021755 | 67 | 161 | 0.0 | 0.0 | 0.00 | 0.80 | 0.80 | 94 | 1016.9 |
| 20260831021635 | 67 | 160 | 0.0 | 0.0 | 0.00 | 0.80 | 0.80 | 94 | 1016.6 |
| 20260831021544 | 67 | 160 | 0.0 | 0.0 | 0.00 | 0.80 | 0.80 | 94 | 1016.6 |
| 20260831021439 | 67 | 161 | 0.0 | 0.0 | 0.00 | 0.80 | 0.80 | 94 | 1016.6 |
| 20260831021333 | 67 | 159 | 0.0 | 0.0 | 0.00 | 0.80 | 0.80 | 94 | 1016.9 |
| 20260831021226 | 68 | 159 | 0.0 | 0.0 | 0.00 | 0.80 | 0.80 | 94 | 1016.9 |
| 20260831021127 | 68 | 159 | 0.0 | 0.0 | 0.00 | 0.80 | 0.80 | 94 | 1016.6 |
| 20260831021121 | 68 | 153 | 0.0 | 0.0 | 0.00 | 0.80 | 0.80 | 94 | 1016.6 |
| 20260831021015 | 68 | 166 | 0.0 | 0.0 | 0.00 | 0.80 | 0.80 | 94 | 1016.9 |
| 20260831020909 | 67 | 163 | 0.0 | 0.0 | 0.00 | 0.80 | 0.80 | 94 | 1016.6 |
| 20260831020852 | 67 | 157 | 0.0 | 0.0 | 0.00 | 0.80 | 0.80 | 94 | 1016.6 |
| 20260831020847 | 67 | 163 | 0.0 | 0.0 | 0.00 | 0.80 | 0.80 | 94 | 1016.6 |
| 20260831020839 | 67 | 160 | 0.0 | 0.0 | 0.00 | 0.80 | 0.80 | 94 | 1016.6 |
| 20260831020553 | 68 | 160 | 0.0 | 0.0 | 0.00 | 0.80 | 0.80 | 94 | 1016.6 |
| 20260831020446 | 68 | 160 | 0.0 | 0.0 | 0.00 | 0.80 | 0.80 | 94 | 1016.9 |
| 20260831020353 | 68 | 160 | 0.0 | 0.0 | 0.00 | 0.80 | 0.80 | 94 | 1016.6 |
| 20260831020235 | 68 | 145 | 0.0 | 0.0 | 0.00 | 0.80 | 0.80 | 94 | 1016.6 |
| 20260831020114 | 68 | 195 | 0.0 | 0.0 | 0.00 | 0.80 | 0.80 | 94 | 1016.6 |
| 20260831020023 | 68 | 195 | 0.0 | 0.0 | 0.00 | 0.80 | 0.80 | 94 | 1016.6 |
| 20260831015918 | 68 | 193 | 0.0 | 0.0 | 0.00 | 0.80 | 0.80 | 94 | 1016.6 |
| 20260831015813 | 68 | 188 | 0.0 | 0.0 | 0.00 | 0.80 | 0.80 | 94 | 1016.6 |
| 20260831015706 | 68 | 188 | 0.0 | 0.0 | 0.00 | 0.80 | 0.80 | 94 | 1016.9 |
| 20260831015608 | 68 | 191 | 0.0 | 0.0 | 0.00 | 0.80 | 0.80 | 94 | 1016.6 |
| 20260831015600 | 68 | 191 | 0.0 | 0.0 | 0.00 | 0.80 | 0.80 | 94 | 1016.6 |
| 20260831015455 | 68 | 176 | 0.0 | 0.0 | 0.00 | 0.80 | 0.80 | 94 | 1016.6 |
| 20260831015350 | 68 | 166 | 0.0 | 0.0 | 0.00 | 0.80 | 0.80 | 94 | 1016.6 |
| 20260831015244 | 68 | 154 | 0.0 | 0.0 | 0.00 | 0.80 | 0.80 | 94 | 1016.6 |
| 20260831015138 | 68 | 174 | 0.0 | 0.0 | 0.00 | 0.80 | 0.80 | 94 | 1016.6 |
| 20260831015100 | 68 | 174 | 0.0 | 0.0 | 0.00 | 0.80 | 0.80 | 94 | 1016.6 |
| 20260831015033 | 68 | 195 | 0.0 | 0.0 | 0.00 | 0.80 | 0.80 | 94 | 1016.6 |
| 20260831014926 | 68 | 183 | 0.0 | 0.0 | 0.00 | 0.80 | 0.80 | 94 | 1016.9 |
| 20260831014822 | 68 | 189 | 0.0 | 0.0 | 0.00 | 0.80 | 0.80 | 94 | 1016.3 |
| 20260831014716 | 68 | 195 | 0.0 | 0.0 | 0.00 | 0.80 | 0.80 | 94 | 1016.6 |
| 20260831014609 | 68 | 181 | 0.0 | 0.0 | 0.00 | 0.80 | 0.80 | 94 | 1016.6 |
| 20260831014554 | 68 | 180 | 0.0 | 0.0 | 0.00 | 0.80 | 0.80 | 94 | 1016.6 |
| 20260831014504 | 68 | 177 | 0.0 | 0.0 | 0.00 | 0.80 | 0.80 | 94 | 1016.3 |
| 20260831014358 | 68 | 169 | 0.0 | 0.0 | 0.00 | 0.80 | 0.80 | 94 | 1016.6 |
| 20260831014320 | 68 | 172 | 0.0 | 0.0 | 0.00 | 0.80 | 0.80 | 94 | 1016.6 |
| 20260831014316 | 68 | 162 | 0.0 | 0.0 | 0.00 | 0.80 | 0.80 | 94 | 1016.9 |
| 20260831014307 | 68 | 172 | 0.0 | 0.0 | 0.00 | 0.80 | 0.80 | 94 | 1016.6 |
| 20260831014042 | 68 | 171 | 0.0 | 0.0 | 0.00 | 0.80 | 0.80 | 94 | 1016.6 |
| 20260831013935 | 68 | 171 | 0.0 | 0.0 | 0.00 | 0.80 | 0.80 | 94 | 1016.6 |
| 20260831013830 | 68 | 171 | 0.0 | 0.0 | 0.00 | 0.80 | 0.80 | 94 | 1016.6 |
| 20260831013813 | 68 | 188 | 0.0 | 0.0 | 0.00 | 0.80 | 0.80 | 94 | 1016.3 |
| 20260831013809 | 68 | 188 | 0.0 | 0.0 | 0.00 | 0.80 | 0.80 | 94 | 1016.6 |
| 20260831013801 | 68 | 188 | 0.0 | 0.0 | 0.00 | 0.80 | 0.80 | 94 | 1016.3 |
| 20260831013512 | 68 | 188 | 0.0 | 0.0 | 0.00 | 0.80 | 0.80 | 94 | 1016.6 |
| 20260831013407 | 68 | 183 | 0.0 | 0.0 | 0.00 | 0.80 | 0.80 | 94 | 1016.6 |
| 20260831013301 | 68 | 167 | 0.0 | 0.0 | 0.00 | 0.80 | 0.80 | 94 | 1016.6 |
| 20260831013154 | 68 | 167 | 0.0 | 0.0 | 0.00 | 0.80 | 0.80 | 94 | 1016.6 |
| 20260831013034 | 68 | 169 | 0.0 | 0.0 | 0.00 | 0.80 | 0.80 | 94 | 1016.6 |
| 20260831012943 | 68 | 169 | 0.0 | 0.0 | 0.00 | 0.80 | 0.80 | 94 | 1016.6 |
| 20260831012837 | 68 | 169 | 0.0 | 0.0 | 0.00 | 0.80 | 0.80 | 94 | 1016.6 |
| 20260831012731 | 68 | 168 | 0.0 | 0.0 | 0.00 | 0.80 | 0.80 | 94 | 1016.6 |
| 20260831012626 | 68 | 167 | 0.0 | 0.0 | 0.00 | 0.80 | 0.80 | 94 | 1016.9 |
| 20260831012520 | 68 | 176 | 0.0 | 0.0 | 0.00 | 0.80 | 0.80 | 94 | 1016.9 |
| 20260831012414 | 68 | 148 | 0.0 | 0.0 | 0.00 | 0.80 | 0.80 | 94 | 1016.9 |
| 20260831012309 | 68 | 185 | 0.0 | 0.0 | 0.00 | 0.80 | 0.80 | 94 | 1016.6 |
| 20260831012203 | 68 | 186 | 0.0 | 0.0 | 0.00 | 0.80 | 0.80 | 94 | 1016.6 |
| 20260831012057 | 68 | 186 | 0.0 | 0.0 | 0.00 | 0.80 | 0.80 | 94 | 1016.6 |
| 20260831012020 | 68 | 186 | 0.0 | 0.0 | 0.00 | 0.80 | 0.80 | 94 | 1016.6 |
| 20260831011952 | 68 | 186 | 0.0 | 0.0 | 0.00 | 0.80 | 0.80 | 94 | 1016.6 |
| 20260831011858 | 68 | 186 | 0.0 | 3.0 | 0.00 | 0.80 | 0.80 | 94 | 1016.3 |
| 20260831011740 | 68 | 179 | 0.0 | 3.0 | 0.00 | 0.80 | 0.80 | 94 | 1016.3 |
| 20260831011633 | 68 | 179 | 0.0 | 3.0 | 0.00 | 0.80 | 0.80 | 94 | 1016.6 |
| 20260831011511 | 68 | 180 | 0.0 | 4.0 | 0.00 | 0.80 | 0.80 | 94 | 1016.6 |
| 20260831011421 | 68 | 180 | 0.0 | 4.0 | 0.00 | 0.80 | 0.80 | 94 | 1016.6 |
| 20260831011315 | 68 | 179 | 0.0 | 4.0 | 0.00 | 0.80 | 0.80 | 94 | 1016.6 |
| 20260831011210 | 68 | 177 | 0.0 | 4.0 | 0.00 | 0.80 | 0.80 | 94 | 1016.6 |
| 20260831011104 | 68 | 169 | 0.0 | 4.0 | 0.00 | 0.80 | 0.80 | 94 | 1016.6 |
| 20260831011023 | 68 | 134 | 1.0 | 4.0 | 0.00 | 0.80 | 0.80 | 93 | 1016.3 |
| 20260831011015 | 68 | 167 | 0.0 | 4.0 | 0.00 | 0.80 | 0.80 | 94 | 1016.6 |
| 20260831011011 | 68 | 158 | 0.0 | 4.0 | 0.00 | 0.80 | 0.80 | 94 | 1016.6 |
| 20260831011003 | 68 | 193 | 2.0 | 4.0 | 0.00 | 0.80 | 0.80 | 94 | 1016.6 |
| 20260831010954 | 68 | 156 | 0.0 | 4.0 | 0.00 | 0.80 | 0.80 | 93 | 1016.6 |
| 20260831010729 | 68 | 117 | 0.0 | 4.0 | 0.00 | 0.80 | 0.80 | 93 | 1016.3 |
| 20260831010721 | 68 | 151 | 2.0 | 4.0 | 0.00 | 0.80 | 0.80 | 93 | 1016.3 |
| 20260831010459 | 68 | 172 | 1.0 | 4.0 | 0.00 | 0.80 | 0.80 | 93 | 1016.3 |
| 20260831010455 | 68 | 170 | 2.0 | 4.0 | 0.00 | 0.80 | 0.80 | 93 | 1016.3 |
| 20260831010447 | 68 | 168 | 2.0 | 4.0 | 0.00 | 0.80 | 0.80 | 93 | 1016.3 |
| 20260831010227 | 68 | 162 | 1.0 | 4.0 | 0.00 | 0.80 | 0.80 | 93 | 1016.3 |
| 20260831010219 | 68 | 149 | 1.0 | 4.0 | 0.00 | 0.80 | 0.80 | 93 | 1016.3 |
| 20260831010210 | 68 | 136 | 1.0 | 4.0 | 0.00 | 0.80 | 0.80 | 93 | 1016.3 |
| 20260831005900 | 68 | 176 | 0.0 | 3.0 | 0.00 | 0.80 | 0.80 | 93 | 1016.3 |
| 20260831005755 | 68 | 177 | 0.0 | 3.0 | 0.00 | 0.80 | 0.80 | 93 | 1016.3 |
| 20260831005715 | 68 | 182 | 0.0 | 3.0 | 0.00 | 0.80 | 0.80 | 93 | 1016.6 |
| 20260831005711 | 68 | 181 | 2.0 | 3.0 | 0.00 | 0.80 | 0.80 | 93 | 1016.3 |
| 20260831005703 | 68 | 175 | 1.0 | 3.0 | 0.00 | 0.80 | 0.80 | 93 | 1016.6 |
| 20260831005438 | 68 | 182 | 0.0 | 3.0 | 0.00 | 0.80 | 0.80 | 93 | 1016.6 |
| 20260831005331 | 68 | 179 | 1.0 | 3.0 | 0.00 | 0.80 | 0.80 | 93 | 1016.6 |
| 20260831005226 | 68 | 178 | 2.0 | 3.0 | 0.00 | 0.80 | 0.80 | 93 | 1016.3 |
| 20260831005208 | 68 | 163 | 2.0 | 3.0 | 0.00 | 0.80 | 0.80 | 93 | 1016.6 |
| 20260831005204 | 68 | 164 | 1.0 | 3.0 | 0.00 | 0.80 | 0.80 | 93 | 1016.6 |
| 20260831005155 | 68 | 165 | 1.0 | 3.0 | 0.00 | 0.80 | 0.80 | 93 | 1016.6 |
| 20260831004909 | 68 | 159 | 2.0 | 3.0 | 0.00 | 0.80 | 0.80 | 93 | 1016.6 |
| 20260831004804 | 68 | 173 | 0.0 | 3.0 | 0.00 | 0.80 | 0.80 | 93 | 1016.6 |
| 20260831004657 | 68 | 174 | 1.0 | 3.0 | 0.00 | 0.80 | 0.80 | 93 | 1016.6 |
| 20260831004552 | 68 | 174 | 3.0 | 4.0 | 0.00 | 0.80 | 0.80 | 93 | 1016.6 |
| 20260831004430 | 68 | 176 | 2.0 | 4.0 | 0.00 | 0.80 | 0.80 | 93 | 1016.3 |
| 20260831004341 | 68 | 136 | 1.0 | 4.0 | 0.00 | 0.80 | 0.80 | 93 | 1016.3 |
| 20260831004234 | 68 | 137 | 2.0 | 4.0 | 0.00 | 0.80 | 0.80 | 93 | 1016.3 |
| 20260831004155 | 69 | 158 | 1.0 | 4.0 | 0.00 | 0.80 | 0.80 | 93 | 1016.6 |
| 20260831004150 | 68 | 177 | 0.0 | 4.0 | 0.00 | 0.80 | 0.80 | 93 | 1016.6 |
| 20260831004141 | 68 | 140 | 1.0 | 4.0 | 0.00 | 0.80 | 0.80 | 93 | 1016.3 |
| 20260831003917 | 69 | 158 | 1.0 | 4.0 | 0.00 | 0.80 | 0.80 | 93 | 1016.6 |
| 20260831003812 | 69 | 129 | 1.0 | 4.0 | 0.00 | 0.80 | 0.80 | 93 | 1016.6 |
| 20260831003706 | 69 | 170 | 1.0 | 4.0 | 0.00 | 0.80 | 0.80 | 93 | 1016.6 |
| 20260831003647 | 69 | 159 | 0.0 | 3.0 | 0.00 | 0.80 | 0.80 | 93 | 1016.6 |
| 20260831003643 | 69 | 158 | 1.0 | 3.0 | 0.00 | 0.80 | 0.80 | 93 | 1016.6 |
| 20260831003634 | 69 | 160 | 0.0 | 3.0 | 0.00 | 0.80 | 0.80 | 93 | 1016.6 |
| 20260831003349 | 69 | 158 | 1.0 | 3.0 | 0.00 | 0.80 | 0.80 | 93 | 1016.6 |
| 20260831003243 | 69 | 166 | 0.0 | 3.0 | 0.00 | 0.80 | 0.80 | 93 | 1016.6 |
| 20260831003137 | 69 | 114 | 1.0 | 3.0 | 0.00 | 0.80 | 0.80 | 93 | 1016.3 |
| 20260831003032 | 69 | 126 | 1.0 | 3.0 | 0.00 | 0.80 | 0.80 | 93 | 1016.3 |
| 20260831003003 | 69 | 143 | 2.0 | 6.0 | 0.00 | 0.80 | 0.80 | 93 | 1016.3 |
| 20260831002959 | 69 | 140 | 2.0 | 3.0 | 0.00 | 0.80 | 0.80 | 93 | 1016.3 |
| 20260831002948 | 69 | 130 | 1.0 | 3.0 | 0.00 | 0.80 | 0.80 | 93 | 1016.3 |
| 20260831002944 | 69 | 129 | 1.0 | 4.0 | 0.00 | 0.80 | 0.80 | 93 | 1016.3 |
| 20260831002922 | 69 | 146 | 0.0 | 4.0 | 0.00 | 0.80 | 0.80 | 93 | 1016.3 |
| 20260831002657 | 69 | 124 | 0.0 | 4.0 | 0.00 | 0.80 | 0.80 | 93 | 1016.6 |
| 20260831002648 | 69 | 147 | 0.0 | 4.0 | 0.00 | 0.80 | 0.80 | 93 | 1016.3 |
| 20260831002423 | 69 | 158 | 0.0 | 4.0 | 0.00 | 0.80 | 0.80 | 93 | 1016.6 |
| 20260831002419 | 69 | 157 | 0.0 | 6.0 | 0.00 | 0.80 | 0.80 | 93 | 1016.6 |
| 20260831002410 | 69 | 108 | 2.0 | 6.0 | 0.00 | 0.80 | 0.80 | 93 | 1016.3 |
| 20260831002147 | 69 | 161 | 0.0 | 6.0 | 0.00 | 0.80 | 0.80 | 93 | 1016.3 |
| 20260831002140 | 69 | 164 | 0.0 | 6.0 | 0.00 | 0.80 | 0.80 | 93 | 1016.3 |
| 20260831002130 | 69 | 171 | 3.0 | 6.0 | 0.00 | 0.80 | 0.80 | 93 | 1016.3 |
| 20260831001829 | 69 | 132 | 0.0 | 6.0 | 0.00 | 0.80 | 0.80 | 93 | 1016.3 |
| 20260831001723 | 69 | 132 | 0.0 | 6.0 | 0.00 | 0.80 | 0.80 | 93 | 1016.3 |
| 20260831001645 | 69 | 130 | 4.0 | 6.0 | 0.00 | 0.80 | 0.80 | 93 | 1016.3 |
| 20260831001640 | 69 | 125 | 1.0 | 6.0 | 0.00 | 0.80 | 0.80 | 93 | 1016.3 |
| 20260831001632 | 69 | 126 | 1.0 | 6.0 | 0.00 | 0.80 | 0.80 | 93 | 1016.3 |
| 20260831001623 | 69 | 130 | 4.0 | 6.0 | 0.00 | 0.80 | 0.80 | 93 | 1016.3 |
| 20260831001300 | 69 | 113 | 2.0 | 4.0 | 0.00 | 0.80 | 0.80 | 93 | 1016.3 |
| 20260831001154 | 69 | 163 | 2.0 | 4.0 | 0.00 | 0.80 | 0.80 | 93 | 1016.3 |
| 20260831001049 | 69 | 131 | 1.0 | 4.0 | 0.00 | 0.80 | 0.80 | 93 | 1016.3 |
| 20260831000942 | 69 | 168 | 0.0 | 4.0 | 0.00 | 0.80 | 0.80 | 93 | 1016.3 |
| 20260831000844 | 69 | 147 | 1.0 | 7.0 | 0.00 | 0.80 | 0.80 | 93 | 1016.3 |
| 20260831000837 | 69 | 149 | 1.0 | 7.0 | 0.00 | 0.80 | 0.80 | 93 | 1016.3 |
| 20260831000731 | 69 | 147 | 2.0 | 7.0 | 0.00 | 0.80 | 0.80 | 93 | 1016.3 |
| 20260831000626 | 69 | 207 | 2.0 | 7.0 | 0.00 | 0.80 | 0.80 | 93 | 1015.9 |
| 20260831000519 | 69 | 212 | 3.0 | 7.0 | 0.00 | 0.80 | 0.80 | 93 | 1016.3 |
| 20260831000414 | 69 | 133 | 2.0 | 7.0 | 0.00 | 0.80 | 0.80 | 93 | 1016.3 |
| 20260831000337 | 69 | 169 | 2.0 | 7.0 | 0.00 | 0.80 | 0.80 | 93 | 1016.3 |
| 20260831000321 | 69 | 137 | 2.0 | 7.0 | 0.00 | 0.80 | 0.80 | 93 | 1016.3 |
| 20260831000204 | 69 | 117 | 1.0 | 7.0 | 0.00 | 0.80 | 0.80 | 93 | 1015.9 |
| 20260831000109 | 69 | 136 | 2.0 | 7.0 | 0.00 | 0.80 | 0.80 | 93 | 1016.3 |
| 20260830235952 | 69 | 165 | 2.0 | 7.0 | 0.00 | 0.80 | 0.80 | 93 | 1016.3 |
| 20260830235845 | 69 | 154 | 1.0 | 6.0 | 0.00 | 0.80 | 0.80 | 93 | 1016.3 |
| 20260830235830 | 69 | 142 | 1.0 | 6.0 | 0.00 | 0.80 | 0.80 | 93 | 1016.3 |
| 20260830235739 | 69 | 176 | 1.0 | 6.0 | 0.00 | 0.80 | 0.80 | 93 | 1016.3 |
| 20260830235634 | 69 | 115 | 3.0 | 6.0 | 0.00 | 0.80 | 0.80 | 93 | 1016.3 |
| 20260830235528 | 69 | 171 | 1.0 | 6.0 | 0.00 | 0.80 | 0.80 | 93 | 1016.3 |
| 20260830235423 | 69 | 169 | 1.0 | 7.0 | 0.00 | 0.80 | 0.80 | 93 | 1016.3 |
| 20260830235324 | 69 | 147 | 2.0 | 7.0 | 0.00 | 0.80 | 0.80 | 93 | 1016.3 |
| 20260830235317 | 69 | 180 | 2.0 | 7.0 | 0.00 | 0.80 | 0.80 | 93 | 1016.3 |
| 20260830235211 | 69 | 120 | 1.0 | 7.0 | 0.00 | 0.80 | 0.80 | 93 | 1016.3 |
| 20260830235106 | 69 | 152 | 1.0 | 7.0 | 0.00 | 0.80 | 0.80 | 93 | 1016.3 |
| 20260830234959 | 69 | 170 | 2.0 | 7.0 | 0.00 | 0.80 | 0.80 | 93 | 1016.3 |
| 20260830234854 | 69 | 102 | 2.0 | 7.0 | 0.00 | 0.80 | 0.80 | 93 | 1016.3 |
| 20260830234817 | 69 | 145 | 1.0 | 7.0 | 0.00 | 0.80 | 0.80 | 93 | 1016.3 |
| 20260830234749 | 69 | 138 | 2.0 | 7.0 | 0.00 | 0.80 | 0.80 | 93 | 1016.3 |
| 20260830234642 | 69 | 133 | 1.0 | 7.0 | 0.00 | 0.80 | 0.80 | 93 | 1016.6 |
| 20260830234537 | 69 | 116 | 4.0 | 7.0 | 0.00 | 0.80 | 0.80 | 93 | 1016.3 |
| 20260830234432 | 69 | 173 | 0.0 | 7.0 | 0.00 | 0.80 | 0.80 | 92 | 1016.6 |
| 20260830234310 | 69 | 131 | 1.0 | 7.0 | 0.00 | 0.80 | 0.80 | 93 | 1016.3 |
| 20260830234220 | 69 | 109 | 2.0 | 7.0 | 0.00 | 0.80 | 0.80 | 92 | 1016.6 |
| 20260830234113 | 69 | 165 | 2.0 | 7.0 | 0.00 | 0.80 | 0.80 | 93 | 1016.6 |
| 20260830234008 | 69 | 148 | 2.0 | 7.0 | 0.00 | 0.80 | 0.80 | 93 | 1016.3 |
| 20260830233903 | 69 | 57 | 2.0 | 7.0 | 0.00 | 0.80 | 0.80 | 93 | 1016.6 |
| 20260830233804 | 69 | 87 | 1.0 | 7.0 | 0.00 | 0.80 | 0.80 | 93 | 1016.6 |
| 20260830233757 | 69 | 87 | 2.0 | 7.0 | 0.00 | 0.80 | 0.80 | 93 | 1016.6 |
| 20260830233651 | 69 | 145 | 2.0 | 7.0 | 0.00 | 0.80 | 0.80 | 93 | 1016.3 |
| 20260830233546 | 69 | 170 | 2.0 | 7.0 | 0.00 | 0.80 | 0.80 | 93 | 1016.3 |
| 20260830233440 | 69 | 193 | 2.0 | 7.0 | 0.00 | 0.80 | 0.80 | 93 | 1016.3 |
| 20260830233334 | 69 | 130 | 4.0 | 7.0 | 0.00 | 0.80 | 0.80 | 93 | 1016.6 |
| 20260830233258 | 69 | 114 | 2.0 | 7.0 | 0.00 | 0.80 | 0.80 | 93 | 1016.6 |
| 20260830233228 | 69 | 137 | 6.0 | 7.0 | 0.00 | 0.80 | 0.80 | 94 | 1016.3 |
| 20260830233123 | 69 | 164 | 2.0 | 7.0 | 0.00 | 0.80 | 0.80 | 94 | 1016.6 |
| 20260830233031 | 69 | 165 | 1.0 | 7.0 | 0.00 | 0.80 | 0.80 | 94 | 1016.6 |
| 20260830233028 | 69 | 173 | 1.0 | 7.0 | 0.00 | 0.80 | 0.80 | 94 | 1016.3 |
| 20260830233019 | 69 | 98 | 3.0 | 7.0 | 0.00 | 0.80 | 0.80 | 94 | 1016.6 |
| 20260830233010 | 69 | 154 | 3.0 | 7.0 | 0.00 | 0.80 | 0.80 | 94 | 1016.6 |
| 20260830232700 | 69 | 171 | 2.0 | 7.0 | 0.00 | 0.80 | 0.80 | 94 | 1016.6 |
| 20260830232554 | 69 | 148 | 2.0 | 7.0 | 0.00 | 0.80 | 0.80 | 94 | 1016.6 |
| 20260830232529 | 69 | 166 | 3.0 | 7.0 | 0.00 | 0.80 | 0.80 | 94 | 1016.6 |
| 20260830232525 | 69 | 174 | 1.0 | 7.0 | 0.00 | 0.80 | 0.80 | 94 | 1016.3 |
| 20260830232503 | 69 | 148 | 0.0 | 7.0 | 0.00 | 0.80 | 0.80 | 94 | 1016.6 |
| 20260830232237 | 69 | 185 | 2.0 | 7.0 | 0.00 | 0.80 | 0.80 | 94 | 1016.6 |
| 20260830232131 | 69 | 106 | 2.0 | 7.0 | 0.00 | 0.80 | 0.80 | 94 | 1016.9 |
| 20260830232025 | 69 | 115 | 1.0 | 7.0 | 0.00 | 0.80 | 0.80 | 94 | 1016.9 |
| 20260830231920 | 69 | 139 | 2.0 | 7.0 | 0.00 | 0.80 | 0.80 | 94 | 1016.9 |
| 20260830231815 | 69 | 123 | 3.0 | 7.0 | 0.00 | 0.80 | 0.80 | 94 | 1016.9 |
| 20260830231737 | 69 | 131 | 2.0 | 6.0 | 0.00 | 0.80 | 0.80 | 94 | 1016.9 |
| 20260830231708 | 69 | 154 | 1.0 | 6.0 | 0.00 | 0.80 | 0.80 | 94 | 1016.9 |
| 20260830231603 | 69 | 144 | 2.0 | 6.0 | 0.00 | 0.80 | 0.80 | 94 | 1016.9 |
| 20260830231457 | 69 | 113 | 0.0 | 6.0 | 0.00 | 0.80 | 0.80 | 94 | 1016.9 |
| 20260830231352 | 69 | 107 | 3.0 | 4.0 | 0.00 | 0.80 | 0.80 | 94 | 1016.9 |
| 20260830231230 | 69 | 152 | 1.0 | 4.0 | 0.00 | 0.80 | 0.80 | 94 | 1016.6 |
| 20260830231140 | 69 | 141 | 0.0 | 4.0 | 0.00 | 0.80 | 0.80 | 94 | 1016.6 |
| 20260830231035 | 69 | 166 | 2.0 | 4.0 | 0.00 | 0.80 | 0.80 | 94 | 1016.9 |
| 20260830231009 | 69 | 104 | 0.0 | 4.0 | 0.00 | 0.80 | 0.80 | 94 | 1016.9 |
| 20260830231005 | 69 | 125 | 1.0 | 4.0 | 0.00 | 0.80 | 0.80 | 94 | 1016.9 |
| 20260830231001 | 69 | 157 | 1.0 | 4.0 | 0.00 | 0.80 | 0.80 | 94 | 1016.9 |
| 20260830230952 | 69 | 119 | 2.0 | 4.0 | 0.00 | 0.80 | 0.80 | 94 | 1016.9 |
| 20260830230728 | 69 | 110 | 0.0 | 4.0 | 0.00 | 0.80 | 0.80 | 94 | 1016.9 |
| 20260830230720 | 69 | 126 | 1.0 | 4.0 | 0.00 | 0.80 | 0.80 | 94 | 1016.9 |
| 20260830230711 | 69 | 161 | 0.0 | 4.0 | 0.00 | 0.80 | 0.80 | 94 | 1017.3 |
| 20260830230452 | 69 | 148 | 1.0 | 3.0 | 0.00 | 0.80 | 0.80 | 94 | 1017.3 |
| 20260830230448 | 69 | 136 | 0.0 | 4.0 | 0.00 | 0.80 | 0.80 | 94 | 1017.3 |
| 20260830230440 | 69 | 120 | 3.0 | 4.0 | 0.00 | 0.80 | 0.80 | 94 | 1017.3 |
| 20260830230218 | 69 | 112 | 1.0 | 4.0 | 0.00 | 0.80 | 0.80 | 94 | 1016.9 |
| 20260830230210 | 69 | 143 | 1.0 | 4.0 | 0.00 | 0.80 | 0.80 | 94 | 1017.3 |
| 20260830225949 | 69 | 139 | 2.0 | 3.0 | 0.00 | 0.80 | 0.80 | 94 | 1017.3 |
| 20260830225941 | 69 | 127 | 1.0 | 3.0 | 0.00 | 0.80 | 0.80 | 94 | 1016.9 |
| 20260830225932 | 69 | 101 | 2.0 | 3.0 | 0.00 | 0.80 | 0.80 | 94 | 1017.3 |
| 20260830225620 | 69 | 160 | 2.0 | 3.0 | 0.00 | 0.80 | 0.80 | 94 | 1016.9 |
| 20260830225514 | 69 | 139 | 1.0 | 3.0 | 0.00 | 0.80 | 0.80 | 93 | 1017.3 |
| 20260830225439 | 69 | 154 | 0.0 | 2.0 | 0.00 | 0.80 | 0.80 | 93 | 1017.3 |
| 20260830225434 | 69 | 162 | 0.0 | 2.0 | 0.00 | 0.80 | 0.80 | 93 | 1017.3 |
| 20260830225425 | 69 | 161 | 1.0 | 2.0 | 0.00 | 0.80 | 0.80 | 93 | 1017.3 |
| 20260830225158 | 69 | 155 | 1.0 | 2.0 | 0.00 | 0.80 | 0.80 | 93 | 1017.3 |
| 20260830225052 | 69 | 157 | 0.0 | 2.0 | 0.00 | 0.80 | 0.80 | 93 | 1017.3 |
| 20260830224945 | 69 | 161 | 0.0 | 2.0 | 0.00 | 0.80 | 0.80 | 93 | 1017.3 |
| 20260830224840 | 69 | 161 | 0.0 | 2.0 | 0.00 | 0.80 | 0.80 | 93 | 1017.3 |
| 20260830224735 | 69 | 160 | 2.0 | 2.0 | 0.00 | 0.80 | 0.80 | 93 | 1017.3 |
| 20260830224657 | 69 | 110 | 0.0 | 2.0 | 0.00 | 0.80 | 0.80 | 93 | 1017.3 |
| 20260830224629 | 69 | 143 | 0.0 | 2.0 | 0.00 | 0.80 | 0.80 | 93 | 1017.3 |
| 20260830224523 | 69 | 142 | 0.0 | 2.0 | 0.00 | 0.80 | 0.80 | 93 | 1016.9 |
| 20260830224433 | 69 | 130 | 2.0 | 2.0 | 0.00 | 0.80 | 0.80 | 93 | 1016.9 |
| 20260830224428 | 69 | 144 | 0.0 | 2.0 | 0.00 | 0.80 | 0.80 | 93 | 1017.3 |
| 20260830224419 | 69 | 107 | 0.0 | 2.0 | 0.00 | 0.80 | 0.80 | 93 | 1016.9 |
| 20260830224411 | 69 | 130 | 2.0 | 2.0 | 0.00 | 0.80 | 0.80 | 93 | 1016.9 |
| 20260830224100 | 69 | 181 | 0.0 | 2.0 | 0.00 | 0.80 | 0.80 | 93 | 1016.9 |
| 20260830223955 | 69 | 181 | 0.0 | 2.0 | 0.00 | 0.80 | 0.80 | 93 | 1016.9 |
| 20260830223849 | 69 | 181 | 0.0 | 2.0 | 0.00 | 0.80 | 0.80 | 93 | 1017.3 |
| 20260830223743 | 69 | 181 | 0.0 | 2.0 | 0.00 | 0.80 | 0.80 | 93 | 1016.9 |
| 20260830223644 | 69 | 154 | 1.0 | 2.0 | 0.00 | 0.80 | 0.80 | 93 | 1017.3 |
| 20260830223637 | 69 | 128 | 1.0 | 2.0 | 0.00 | 0.80 | 0.80 | 93 | 1017.3 |
| 20260830223532 | 69 | 167 | 0.0 | 1.0 | 0.00 | 0.80 | 0.80 | 93 | 1017.3 |
| 20260830223425 | 69 | 102 | 0.0 | 1.0 | 0.00 | 0.80 | 0.80 | 93 | 1016.9 |
| 20260830223321 | 70 | 124 | 0.0 | 1.0 | 0.00 | 0.80 | 0.80 | 93 | 1016.9 |
| 20260830223214 | 70 | 123 | 0.0 | 1.0 | 0.00 | 0.80 | 0.80 | 93 | 1017.3 |
| 20260830223137 | 70 | 128 | 0.0 | 1.0 | 0.00 | 0.80 | 0.80 | 94 | 1017.3 |
| 20260830223109 | 69 | 131 | 0.0 | 1.0 | 0.00 | 0.80 | 0.80 | 94 | 1017.3 |
| 20260830223004 | 70 | 149 | 0.0 | 1.0 | 0.00 | 0.80 | 0.80 | 93 | 1017.3 |
| 20260830222906 | 70 | 116 | 0.0 | 2.0 | 0.00 | 0.80 | 0.80 | 93 | 1017.7 |
| 20260830222858 | 70 | 134 | 0.0 | 2.0 | 0.00 | 0.80 | 0.80 | 93 | 1017.3 |
| 20260830222849 | 70 | 140 | 0.0 | 2.0 | 0.00 | 0.80 | 0.80 | 93 | 1017.3 |
| 20260830222543 | 70 | 140 | 1.0 | 2.0 | 0.00 | 0.80 | 0.80 | 93 | 1017.3 |
| 20260830222436 | 70 | 163 | 0.0 | 2.0 | 0.00 | 0.80 | 0.80 | 93 | 1017.7 |
| 20260830222331 | 70 | 157 | 0.0 | 2.0 | 0.00 | 0.80 | 0.80 | 93 | 1017.3 |
| 20260830222225 | 70 | 154 | 1.0 | 2.0 | 0.00 | 0.80 | 0.80 | 93 | 1017.3 |
| 20260830222119 | 70 | 169 | 1.0 | 2.0 | 0.00 | 0.80 | 0.80 | 93 | 1017.3 |
| 20260830222014 | 70 | 153 | 1.0 | 2.0 | 0.00 | 0.80 | 0.80 | 93 | 1017.7 |
| 20260830221908 | 70 | 148 | 0.0 | 2.0 | 0.00 | 0.80 | 0.80 | 93 | 1017.3 |
| 20260830221802 | 70 | 148 | 0.0 | 2.0 | 0.00 | 0.80 | 0.80 | 93 | 1017.3 |
| 20260830221705 | 70 | 164 | 1.0 | 4.0 | 0.00 | 0.80 | 0.80 | 93 | 1017.3 |
| 20260830221701 | 70 | 148 | 1.0 | 2.0 | 0.00 | 0.80 | 0.80 | 93 | 1016.9 |
| 20260830221650 | 70 | 154 | 1.0 | 2.0 | 0.00 | 0.80 | 0.80 | 93 | 1017.3 |
| 20260830221646 | 70 | 153 | 1.0 | 2.0 | 0.00 | 0.80 | 0.80 | 93 | 1017.3 |
| 20260830221625 | 70 | 165 | 0.0 | 2.0 | 0.00 | 0.80 | 0.80 | 93 | 1017.3 |
| 20260830221400 | 70 | 174 | 0.0 | 2.0 | 0.00 | 0.80 | 0.80 | 93 | 1017.3 |
| 20260830221352 | 70 | 174 | 1.0 | 2.0 | 0.00 | 0.80 | 0.80 | 93 | 1016.9 |
| 20260830221120 | 70 | 174 | 1.0 | 2.0 | 0.00 | 0.80 | 0.80 | 93 | 1016.9 |
| 20260830221116 | 70 | 174 | 1.0 | 2.0 | 0.00 | 0.80 | 0.80 | 93 | 1016.9 |
| 20260830221108 | 70 | 174 | 2.0 | 2.0 | 0.00 | 0.80 | 0.80 | 93 | 1016.9 |
| 20260830220843 | 70 | 135 | 0.0 | 4.0 | 0.00 | 0.80 | 0.80 | 93 | 1016.9 |
| 20260830220834 | 70 | 133 | 0.0 | 4.0 | 0.00 | 0.80 | 0.80 | 93 | 1016.9 |
| 20260830220611 | 70 | 133 | 1.0 | 4.0 | 0.00 | 0.80 | 0.80 | 93 | 1016.9 |
| 20260830220607 | 70 | 133 | 1.0 | 4.0 | 0.00 | 0.80 | 0.80 | 93 | 1016.9 |
| 20260830220559 | 70 | 131 | 1.0 | 4.0 | 0.00 | 0.80 | 0.80 | 93 | 1016.9 |
| 20260830220550 | 70 | 104 | 0.0 | 4.0 | 0.00 | 0.80 | 0.80 | 93 | 1016.9 |
| 20260830220327 | 70 | 106 | 2.0 | 4.0 | 0.00 | 0.80 | 0.80 | 93 | 1016.9 |
| 20260830220318 | 70 | 98 | 1.0 | 4.0 | 0.00 | 0.80 | 0.80 | 93 | 1016.9 |
| 20260830220031 | 70 | 164 | 1.0 | 4.0 | 0.00 | 0.80 | 0.80 | 93 | 1016.9 |
| 20260830215924 | 70 | 118 | 0.0 | 4.0 | 0.00 | 0.80 | 0.80 | 93 | 1016.9 |
| 20260830215832 | 70 | 178 | 0.0 | 3.0 | 0.00 | 0.80 | 0.80 | 94 | 1016.9 |
| 20260830215828 | 70 | 140 | 2.0 | 4.0 | 0.00 | 0.80 | 0.80 | 94 | 1016.9 |
| 20260830215820 | 70 | 184 | 2.0 | 3.0 | 0.00 | 0.80 | 0.80 | 93 | 1016.9 |
| 20260830215811 | 70 | 171 | 1.0 | 3.0 | 0.00 | 0.80 | 0.80 | 94 | 1016.9 |
| 20260830215501 | 70 | 179 | 1.0 | 3.0 | 0.00 | 0.80 | 0.80 | 94 | 1016.9 |
| 20260830215356 | 70 | 179 | 2.0 | 3.0 | 0.00 | 0.80 | 0.80 | 93 | 1017.3 |
| 20260830215317 | 70 | 189 | 1.0 | 3.0 | 0.00 | 0.80 | 0.80 | 93 | 1016.9 |
| 20260830215312 | 70 | 162 | 0.0 | 3.0 | 0.00 | 0.80 | 0.80 | 94 | 1016.9 |
| 20260830215305 | 70 | 131 | 1.0 | 3.0 | 0.00 | 0.80 | 0.80 | 93 | 1016.9 |
| 20260830215038 | 70 | 189 | 1.0 | 3.0 | 0.00 | 0.80 | 0.80 | 93 | 1016.9 |
| 20260830214933 | 70 | 189 | 0.0 | 3.0 | 0.00 | 0.80 | 0.80 | 93 | 1016.9 |
| 20260830214827 | 70 | 189 | 1.0 | 3.0 | 0.00 | 0.80 | 0.80 | 93 | 1016.9 |
| 20260830214722 | 70 | 175 | 1.0 | 2.0 | 0.00 | 0.80 | 0.80 | 93 | 1016.9 |
| 20260830214615 | 70 | 169 | 1.0 | 2.0 | 0.00 | 0.80 | 0.80 | 93 | 1016.9 |
| 20260830214538 | 70 | 167 | 0.0 | 2.0 | 0.00 | 0.80 | 0.80 | 93 | 1016.9 |
| 20260830214510 | 70 | 167 | 0.0 | 2.0 | 0.00 | 0.80 | 0.80 | 93 | 1017.3 |
| 20260830214404 | 70 | 167 | 0.0 | 2.0 | 0.00 | 0.80 | 0.80 | 94 | 1016.9 |
| 20260830214307 | 70 | 167 | 0.0 | 2.0 | 0.00 | 0.80 | 0.80 | 94 | 1017.3 |
| 20260830214259 | 70 | 159 | 0.0 | 3.0 | 0.00 | 0.80 | 0.80 | 93 | 1016.9 |
| 20260830214250 | 70 | 196 | 0.0 | 3.0 | 0.00 | 0.80 | 0.80 | 93 | 1017.3 |
| 20260830213941 | 70 | 202 | 0.0 | 3.0 | 0.00 | 0.80 | 0.80 | 93 | 1016.9 |
| 20260830213835 | 70 | 202 | 1.0 | 3.0 | 0.00 | 0.80 | 0.80 | 94 | 1017.3 |
| 20260830213756 | 70 | 182 | 0.0 | 3.0 | 0.00 | 0.80 | 0.80 | 94 | 1016.9 |
| 20260830213751 | 70 | 202 | 1.0 | 3.0 | 0.00 | 0.80 | 0.80 | 93 | 1017.3 |
| 20260830213742 | 70 | 191 | 1.0 | 3.0 | 0.00 | 0.80 | 0.80 | 93 | 1017.3 |
| 20260830213519 | 70 | 182 | 1.0 | 3.0 | 0.00 | 0.80 | 0.80 | 93 | 1016.9 |
| 20260830213412 | 70 | 191 | 0.0 | 3.0 | 0.00 | 0.80 | 0.80 | 94 | 1016.9 |
| 20260830213307 | 70 | 191 | 2.0 | 3.0 | 0.00 | 0.80 | 0.80 | 93 | 1017.3 |
| 20260830213248 | 70 | 147 | 1.0 | 2.0 | 0.00 | 0.80 | 0.80 | 93 | 1017.3 |
| 20260830213244 | 70 | 206 | 2.0 | 3.0 | 0.00 | 0.80 | 0.80 | 93 | 1016.9 |
| 20260830213236 | 70 | 180 | 1.0 | 2.0 | 0.00 | 0.80 | 0.80 | 93 | 1016.9 |
| 20260830212950 | 70 | 177 | 1.0 | 2.0 | 0.00 | 0.80 | 0.80 | 93 | 1017.3 |
| 20260830212845 | 70 | 170 | 1.0 | 2.0 | 0.00 | 0.80 | 0.80 | 93 | 1016.9 |
| 20260830212755 | 70 | 171 | 0.0 | 2.0 | 0.00 | 0.80 | 0.80 | 93 | 1016.9 |
| 20260830212751 | 70 | 178 | 2.0 | 2.0 | 0.00 | 0.80 | 0.80 | 93 | 1016.9 |
| 20260830212743 | 70 | 177 | 1.0 | 2.0 | 0.00 | 0.80 | 0.80 | 93 | 1016.9 |
| 20260830212734 | 70 | 180 | 1.0 | 2.0 | 0.00 | 0.80 | 0.80 | 93 | 1016.9 |
| 20260830212434 | 70 | 177 | 1.0 | 2.0 | 0.00 | 0.80 | 0.80 | 93 | 1017.3 |
| 20260830212315 | 70 | 176 | 0.0 | 2.0 | 0.00 | 0.80 | 0.80 | 93 | 1016.9 |
| 20260830212239 | 70 | 184 | 0.0 | 2.0 | 0.00 | 0.80 | 0.80 | 93 | 1016.9 |
| 20260830212235 | 70 | 172 | 1.0 | 2.0 | 0.00 | 0.80 | 0.80 | 93 | 1016.9 |
| 20260830212227 | 70 | 172 | 0.0 | 2.0 | 0.00 | 0.80 | 0.80 | 93 | 1016.9 |
| 20260830211958 | 70 | 184 | 0.0 | 2.0 | 0.00 | 0.80 | 0.80 | 93 | 1016.9 |
| 20260830211853 | 70 | 184 | 1.0 | 2.0 | 0.00 | 0.80 | 0.80 | 93 | 1016.9 |
| 20260830211748 | 70 | 173 | 1.0 | 2.0 | 0.00 | 0.80 | 0.80 | 93 | 1017.3 |
| 20260830211641 | 70 | 149 | 0.0 | 3.0 | 0.00 | 0.80 | 0.80 | 93 | 1016.9 |
| 20260830211536 | 70 | 170 | 1.0 | 3.0 | 0.00 | 0.80 | 0.80 | 93 | 1016.9 |
| 20260830211507 | 70 | 162 | 0.0 | 3.0 | 0.00 | 0.80 | 0.80 | 92 | 1016.9 |
| 20260830211501 | 70 | 156 | 1.0 | 3.0 | 0.00 | 0.80 | 0.80 | 93 | 1016.6 |
| 20260830211457 | 70 | 175 | 0.0 | 3.0 | 0.00 | 0.80 | 0.80 | 93 | 1016.9 |
| 20260830211448 | 70 | 162 | 0.0 | 3.0 | 0.00 | 0.80 | 0.80 | 93 | 1016.6 |
| 20260830211228 | 70 | 176 | 0.0 | 3.0 | 0.00 | 0.80 | 0.80 | 93 | 1016.9 |
| 20260830211220 | 70 | 177 | 0.0 | 3.0 | 0.00 | 0.80 | 0.80 | 92 | 1016.9 |
| 20260830211211 | 70 | 162 | 0.0 | 3.0 | 0.00 | 0.80 | 0.80 | 92 | 1016.9 |
| 20260830210950 | 70 | 175 | 1.0 | 4.0 | 0.00 | 0.80 | 0.80 | 92 | 1016.9 |
| 20260830210945 | 70 | 175 | 0.0 | 3.0 | 0.00 | 0.80 | 0.80 | 92 | 1016.9 |
| 20260830210936 | 70 | 168 | 1.0 | 4.0 | 0.00 | 0.80 | 0.80 | 92 | 1016.9 |
| 20260830210713 | 70 | 158 | 2.0 | 4.0 | 0.00 | 0.80 | 0.80 | 92 | 1016.9 |
| 20260830210704 | 70 | 147 | 2.0 | 4.0 | 0.00 | 0.80 | 0.80 | 92 | 1016.9 |
| 20260830210439 | 70 | 177 | 2.0 | 4.0 | 0.00 | 0.80 | 0.80 | 92 | 1016.9 |
| 20260830210333 | 71 | 174 | 1.0 | 4.0 | 0.00 | 0.80 | 0.80 | 92 | 1016.9 |
| 20260830210228 | 70 | 174 | 1.0 | 4.0 | 0.00 | 0.80 | 0.80 | 92 | 1016.9 |
| 20260830210121 | 70 | 171 | 1.0 | 4.0 | 0.00 | 0.80 | 0.80 | 91 | 1016.6 |
| 20260830210016 | 70 | 135 | 1.0 | 4.0 | 0.00 | 0.80 | 0.80 | 91 | 1016.9 |
| 20260830205938 | 70 | 183 | 3.0 | 4.0 | 0.00 | 0.80 | 0.80 | 91 | 1016.9 |
| 20260830205910 | 70 | 154 | 3.0 | 4.0 | 0.00 | 0.80 | 0.80 | 91 | 1016.9 |
| 20260830205811 | 70 | 176 | 1.0 | 4.0 | 0.00 | 0.80 | 0.80 | 91 | 1016.6 |
| 20260830205713 | 70 | 135 | 3.0 | 4.0 | 0.00 | 0.80 | 0.80 | 91 | 1016.6 |
| 20260830205704 | 70 | 175 | 2.0 | 4.0 | 0.00 | 0.80 | 0.80 | 91 | 1016.9 |
| 20260830205655 | 70 | 182 | 2.0 | 4.0 | 0.00 | 0.80 | 0.80 | 91 | 1016.6 |
| 20260830205347 | 71 | 200 | 2.0 | 4.0 | 0.00 | 0.80 | 0.80 | 91 | 1016.9 |
| 20260830205242 | 71 | 174 | 2.0 | 4.0 | 0.00 | 0.80 | 0.80 | 91 | 1016.6 |
| 20260830205206 | 71 | 157 | 0.0 | 7.0 | 0.00 | 0.80 | 0.80 | 91 | 1016.9 |
| 20260830205202 | 71 | 175 | 2.0 | 4.0 | 0.00 | 0.80 | 0.80 | 91 | 1016.9 |
| 20260830205153 | 71 | 176 | 1.0 | 4.0 | 0.00 | 0.80 | 0.80 | 91 | 1016.9 |
| 20260830204924 | 71 | 141 | 0.0 | 7.0 | 0.00 | 0.80 | 0.80 | 91 | 1016.6 |
| 20260830204819 | 70 | 165 | 1.0 | 7.0 | 0.00 | 0.80 | 0.80 | 91 | 1016.9 |
| 20260830204713 | 70 | 139 | 0.0 | 7.0 | 0.00 | 0.80 | 0.80 | 91 | 1016.6 |
| 20260830204607 | 71 | 125 | 4.0 | 7.0 | 0.00 | 0.80 | 0.80 | 91 | 1016.6 |
| 20260830204501 | 71 | 187 | 2.0 | 7.0 | 0.00 | 0.80 | 0.80 | 91 | 1016.9 |
| 20260830204423 | 71 | 158 | 2.0 | 7.0 | 0.00 | 0.80 | 0.80 | 91 | 1016.9 |
| 20260830204355 | 70 | 179 | 1.0 | 7.0 | 0.00 | 0.80 | 0.80 | 91 | 1016.9 |
| 20260830204250 | 70 | 188 | 1.0 | 7.0 | 0.00 | 0.80 | 0.80 | 91 | 1016.9 |
| 20260830204200 | 70 | 129 | 2.0 | 4.0 | 0.00 | 0.80 | 0.80 | 91 | 1016.6 |
| 20260830204156 | 70 | 137 | 0.0 | 7.0 | 0.00 | 0.80 | 0.80 | 92 | 1016.9 |
| 20260830204147 | 70 | 220 | 2.0 | 7.0 | 0.00 | 0.80 | 0.80 | 91 | 1016.3 |
| 20260830204139 | 70 | 181 | 3.0 | 4.0 | 0.00 | 0.80 | 0.80 | 92 | 1016.6 |
| 20260830203828 | 70 | 126 | 3.0 | 4.0 | 0.00 | 0.80 | 0.80 | 91 | 1016.6 |
| 20260830203721 | 70 | 163 | 3.0 | 4.0 | 0.00 | 0.80 | 0.80 | 91 | 1016.6 |
| 20260830203616 | 70 | 155 | 2.0 | 6.0 | 0.00 | 0.80 | 0.80 | 92 | 1016.6 |
| 20260830203522 | 70 | 114 | 1.0 | 6.0 | 0.00 | 0.80 | 0.80 | 92 | 1016.6 |
| 20260830203410 | 70 | 146 | 3.0 | 6.0 | 0.00 | 0.80 | 0.80 | 91 | 1016.6 |
| 20260830203403 | 70 | 127 | 3.0 | 6.0 | 0.00 | 0.80 | 0.80 | 91 | 1016.6 |
| 20260830203258 | 70 | 152 | 1.0 | 6.0 | 0.00 | 0.80 | 0.80 | 91 | 1016.6 |
| 20260830203152 | 70 | 107 | 1.0 | 6.0 | 0.00 | 0.80 | 0.80 | 91 | 1016.6 |
| 20260830203047 | 70 | 170 | 2.0 | 6.0 | 0.00 | 0.80 | 0.80 | 91 | 1016.6 |
| 20260830202941 | 70 | 118 | 2.0 | 6.0 | 0.00 | 0.80 | 0.80 | 91 | 1016.6 |
| 20260830202904 | 70 | 96 | 1.0 | 6.0 | 0.00 | 0.80 | 0.80 | 91 | 1016.6 |
| 20260830202836 | 70 | 96 | 2.0 | 6.0 | 0.00 | 0.80 | 0.80 | 91 | 1016.6 |
| 20260830202729 | 71 | 129 | 3.0 | 6.0 | 0.00 | 0.80 | 0.80 | 91 | 1016.6 |
| 20260830202624 | 71 | 180 | 2.0 | 6.0 | 0.00 | 0.80 | 0.80 | 91 | 1016.6 |
| 20260830202518 | 71 | 126 | 1.0 | 6.0 | 0.00 | 0.80 | 0.80 | 91 | 1016.6 |
| 20260830202413 | 70 | 149 | 1.0 | 6.0 | 0.00 | 0.80 | 0.80 | 91 | 1016.6 |
| 20260830202357 | 70 | 149 | 1.0 | 6.0 | 0.00 | 0.80 | 0.80 | 91 | 1016.6 |
| 20260830202307 | 70 | 112 | 2.0 | 6.0 | 0.00 | 0.80 | 0.80 | 91 | 1016.9 |
| 20260830202201 | 70 | 177 | 1.0 | 6.0 | 0.00 | 0.80 | 0.80 | 91 | 1016.9 |
| 20260830202056 | 70 | 174 | 1.0 | 4.0 | 0.00 | 0.80 | 0.80 | 91 | 1016.9 |
| 20260830201950 | 70 | 141 | 2.0 | 4.0 | 0.00 | 0.80 | 0.80 | 91 | 1016.9 |
| 20260830201851 | 70 | 129 | 1.0 | 4.0 | 0.00 | 0.80 | 0.80 | 92 | 1016.6 |
| 20260830201844 | 70 | 167 | 1.0 | 4.0 | 0.00 | 0.80 | 0.80 | 92 | 1016.6 |
| 20260830201738 | 70 | 125 | 1.0 | 4.0 | 0.00 | 0.80 | 0.80 | 92 | 1016.6 |
| 20260830201633 | 70 | 175 | 0.0 | 4.0 | 0.00 | 0.80 | 0.80 | 92 | 1016.6 |
| 20260830201620 | 70 | 155 | 2.0 | 3.0 | 0.00 | 0.80 | 0.80 | 92 | 1016.6 |
| 20260830201611 | 70 | 129 | 4.0 | 4.0 | 0.00 | 0.80 | 0.80 | 92 | 1016.9 |
| 20260830201602 | 70 | 189 | 1.0 | 3.0 | 0.00 | 0.80 | 0.80 | 92 | 1016.6 |
| 20260830201315 | 70 | 139 | 2.0 | 3.0 | 0.00 | 0.80 | 0.80 | 92 | 1016.9 |
| 20260830201210 | 70 | 160 | 1.0 | 3.0 | 0.00 | 0.80 | 0.80 | 92 | 1016.6 |
| 20260830201117 | 70 | 182 | 2.0 | 3.0 | 0.00 | 0.80 | 0.80 | 92 | 1016.6 |
| 20260830201113 | 70 | 185 | 3.0 | 3.0 | 0.00 | 0.80 | 0.80 | 92 | 1016.6 |
| 20260830201104 | 70 | 184 | 1.0 | 3.0 | 0.00 | 0.80 | 0.80 | 92 | 1016.9 |
| 20260830201055 | 70 | 181 | 1.0 | 3.0 | 0.00 | 0.80 | 0.80 | 92 | 1016.6 |
| 20260830200747 | 70 | 172 | 2.0 | 3.0 | 0.00 | 0.80 | 0.80 | 92 | 1016.9 |
| 20260830200642 | 70 | 166 | 1.0 | 3.0 | 0.00 | 0.80 | 0.80 | 92 | 1016.6 |
| 20260830200535 | 70 | 150 | 0.0 | 6.0 | 0.00 | 0.80 | 0.80 | 92 | 1016.9 |
| 20260830200430 | 70 | 156 | 1.0 | 6.0 | 0.00 | 0.80 | 0.80 | 92 | 1016.6 |
| 20260830200331 | 70 | 166 | 1.0 | 6.0 | 0.00 | 0.80 | 0.80 | 92 | 1016.6 |
| 20260830200324 | 70 | 159 | 1.0 | 6.0 | 0.00 | 0.80 | 0.80 | 92 | 1016.6 |
| 20260830200218 | 70 | 172 | 1.0 | 6.0 | 0.00 | 0.80 | 0.80 | 92 | 1016.6 |
| 20260830200115 | 70 | 172 | 1.0 | 6.0 | 0.00 | 0.80 | 0.80 | 92 | 1016.9 |
| 20260830200106 | 70 | 120 | 2.0 | 6.0 | 0.00 | 0.80 | 0.80 | 92 | 1016.9 |
| 20260830200041 | 70 | 110 | 1.0 | 6.0 | 0.00 | 0.80 | 0.80 | 92 | 1016.6 |
| 20260830195754 | 70 | 208 | 3.0 | 6.0 | 0.00 | 0.80 | 0.80 | 92 | 1016.9 |
| 20260830195649 | 70 | 177 | 1.0 | 6.0 | 0.00 | 0.80 | 0.80 | 92 | 1016.9 |
| 20260830195543 | 70 | 143 | 4.0 | 6.0 | 0.00 | 0.80 | 0.80 | 92 | 1016.9 |
| 20260830195437 | 70 | 205 | 2.0 | 6.0 | 0.00 | 0.80 | 0.80 | 92 | 1016.9 |
| 20260830195317 | 70 | 161 | 2.0 | 6.0 | 0.00 | 0.80 | 0.80 | 93 | 1016.9 |
| 20260830195226 | 70 | 107 | 4.0 | 6.0 | 0.00 | 0.80 | 0.80 | 92 | 1016.9 |
| 20260830195134 | 70 | 148 | 1.0 | 4.0 | 0.00 | 0.80 | 0.80 | 93 | 1016.9 |
| 20260830195014 | 70 | 179 | 2.0 | 4.0 | 0.00 | 0.80 | 0.80 | 93 | 1016.6 |
| 20260830194909 | 70 | 199 | 2.0 | 4.0 | 0.00 | 0.80 | 0.80 | 93 | 1016.9 |
| 20260830194810 | 69 | 149 | 0.0 | 4.0 | 0.00 | 0.80 | 0.80 | 93 | 1016.9 |
| 20260830194803 | 69 | 149 | 0.0 | 4.0 | 0.00 | 0.80 | 0.80 | 93 | 1016.9 |
| 20260830194657 | 69 | 149 | 0.0 | 4.0 | 0.00 | 0.80 | 0.80 | 93 | 1016.9 |
| 20260830194552 | 69 | 198 | 3.0 | 4.0 | 0.00 | 0.80 | 0.80 | 93 | 1016.9 |
| 20260830194446 | 69 | 167 | 1.0 | 4.0 | 0.00 | 0.80 | 0.80 | 93 | 1016.9 |
| 20260830194340 | 69 | 137 | 4.0 | 4.0 | 0.00 | 0.80 | 0.80 | 93 | 1016.9 |
| 20260830194302 | 69 | 160 | 1.0 | 3.0 | 0.00 | 0.80 | 0.80 | 93 | 1016.9 |
| 20260830194235 | 69 | 119 | 1.0 | 3.0 | 0.00 | 0.80 | 0.80 | 93 | 1016.9 |
| 20260830194129 | 69 | 120 | 2.0 | 4.0 | 0.00 | 0.80 | 0.80 | 93 | 1017.3 |
| 20260830194024 | 69 | 137 | 1.0 | 4.0 | 0.00 | 0.80 | 0.80 | 93 | 1017.3 |
| 20260830193917 | 69 | 127 | 2.0 | 4.0 | 0.00 | 0.80 | 0.80 | 93 | 1016.9 |
| 20260830193813 | 69 | 167 | 1.0 | 4.0 | 0.00 | 0.80 | 0.80 | 93 | 1016.9 |
| 20260830193757 | 69 | 168 | 1.0 | 4.0 | 0.00 | 0.80 | 0.80 | 94 | 1016.9 |
| 20260830193706 | 69 | 168 | 0.0 | 4.0 | 0.00 | 0.80 | 0.80 | 94 | 1016.9 |
| 20260830193600 | 69 | 159 | 0.0 | 4.0 | 0.00 | 0.80 | 0.80 | 94 | 1016.9 |
| 20260830193523 | 69 | 152 | 3.0 | 4.0 | 0.00 | 0.80 | 0.80 | 94 | 1016.9 |
| 20260830193519 | 69 | 148 | 0.0 | 4.0 | 0.00 | 0.80 | 0.80 | 94 | 1016.9 |
| 20260830193510 | 69 | 191 | 1.0 | 4.0 | 0.00 | 0.80 | 0.80 | 94 | 1016.9 |
| 20260830193243 | 69 | 148 | 3.0 | 4.0 | 0.00 | 0.80 | 0.80 | 94 | 1016.9 |
| 20260830193150 | 69 | 125 | 2.0 | 4.0 | 0.00 | 0.80 | 0.80 | 94 | 1016.9 |
| 20260830193032 | 69 | 145 | 2.0 | 4.0 | 0.00 | 0.80 | 0.80 | 94 | 1016.9 |
| 20260830193016 | 69 | 87 | 3.0 | 4.0 | 0.00 | 0.80 | 0.80 | 94 | 1016.9 |
| 20260830193012 | 69 | 181 | 2.0 | 4.0 | 0.00 | 0.80 | 0.80 | 94 | 1016.6 |
| 20260830193004 | 69 | 95 | 3.0 | 4.0 | 0.00 | 0.80 | 0.80 | 94 | 1016.9 |
| 20260830192714 | 69 | 114 | 1.0 | 3.0 | 0.00 | 0.80 | 0.80 | 95 | 1016.9 |
| 20260830192609 | 69 | 180 | 1.0 | 3.0 | 0.00 | 0.80 | 0.80 | 95 | 1016.9 |
| 20260830192504 | 69 | 139 | 3.0 | 3.0 | 0.00 | 0.80 | 0.80 | 95 | 1016.6 |
| 20260830192357 | 69 | 155 | 0.0 | 3.0 | 0.00 | 0.80 | 0.80 | 95 | 1016.6 |
| 20260830192237 | 69 | 110 | 1.0 | 3.0 | 0.00 | 0.80 | 0.80 | 95 | 1016.9 |
| 20260830192146 | 69 | 110 | 0.0 | 3.0 | 0.00 | 0.80 | 0.80 | 95 | 1017.3 |
| 20260830192053 | 69 | 110 | 0.0 | 3.0 | 0.00 | 0.80 | 0.80 | 95 | 1016.9 |
| 20260830192001 | 69 | 141 | 1.0 | 3.0 | 0.00 | 0.80 | 0.80 | 95 | 1016.9 |
| 20260830191957 | 69 | 110 | 0.0 | 3.0 | 0.00 | 0.80 | 0.80 | 95 | 1016.9 |
| 20260830191948 | 69 | 110 | 0.0 | 3.0 | 0.00 | 0.80 | 0.80 | 95 | 1016.9 |
| 20260830191723 | 69 | 141 | 1.0 | 3.0 | 0.00 | 0.80 | 0.80 | 95 | 1016.9 |
| 20260830191618 | 69 | 177 | 0.0 | 4.0 | 0.00 | 0.80 | 0.80 | 95 | 1017.3 |
| 20260830191512 | 69 | 115 | 1.0 | 4.0 | 0.00 | 0.80 | 0.80 | 95 | 1017.3 |
| 20260830191406 | 69 | 159 | 2.0 | 4.0 | 0.00 | 0.80 | 0.80 | 95 | 1016.9 |
| 20260830191300 | 69 | 154 | 2.0 | 4.0 | 0.00 | 0.80 | 0.80 | 95 | 1016.9 |
| 20260830191223 | 69 | 153 | 0.0 | 4.0 | 0.00 | 0.80 | 0.80 | 95 | 1016.9 |
| 20260830191154 | 69 | 152 | 0.0 | 4.0 | 0.00 | 0.80 | 0.80 | 95 | 1016.9 |
| 20260830191049 | 69 | 148 | 0.0 | 4.0 | 0.00 | 0.80 | 0.80 | 95 | 1017.3 |
| 20260830190944 | 69 | 104 | 1.0 | 4.0 | 0.00 | 0.80 | 0.80 | 95 | 1016.9 |
| 20260830190838 | 69 | 119 | 2.0 | 4.0 | 0.00 | 0.80 | 0.80 | 95 | 1016.9 |
| 20260830190732 | 69 | 135 | 2.0 | 4.0 | 0.00 | 0.80 | 0.80 | 95 | 1016.9 |
| 20260830190717 | 69 | 109 | 4.0 | 4.0 | 0.00 | 0.80 | 0.80 | 95 | 1016.9 |
| 20260830190626 | 69 | 154 | 2.0 | 3.0 | 0.00 | 0.80 | 0.80 | 95 | 1016.9 |
| 20260830190521 | 69 | 157 | 0.0 | 3.0 | 0.00 | 0.80 | 0.80 | 95 | 1016.9 |
| 20260830190414 | 69 | 197 | 0.0 | 3.0 | 0.00 | 0.80 | 0.80 | 95 | 1017.3 |
| 20260830190310 | 69 | 107 | 0.0 | 2.0 | 0.00 | 0.80 | 0.80 | 95 | 1016.9 |